[[{"header":{"parameterUnit":"m.s-1","parameterCategory":1,"la1":31.0,"la2":29.5877,"lo1":-88.7671,"lo2":-86.6584,"dy":0.0162,"dx":0.0185,"nx":115,"ny":88,"refTime":"2023-09-06T00:00:00:Z","depth":0,"parameterNumber":2,"parameterNumberName":"U-component_of_WINDS"},"data":[0.0,0.0,0.0,0.0,0.0,0.0,0.0,0.0,0.0,0.0,0.0,0.0,0.0,0.0,0.0,0.0,0.0,0.0,0.0,0.0,0.0,0.0,0.0,0.0,0.0,0.0,0.0,0.0,0.0,0.0,0.0,0.0,0.0,0.0,0.0,0.0,0.0,0.0,0.0,0.0,0.0,0.0,0.0,0.0,0.0,0.0,0.0,0.0,0.0,0.0,0.0,0.0,0.0,0.0,0.0,0.0,0.0,0.0,0.0,0.0,0.0,0.0,0.0,0.0,0.0,0.0,0.0,0.0,0.0,0.0,0.0,0.0,0.0,0.0,0.0,0.0,0.0,0.0,0.0,0.0,0.0,0.0,0.0,0.0,0.0,0.0,0.0,0.0,0.0,0.0,0.0,0.0,0.0,0.0,0.0,0.0,0.0,0.0,0.0,0.0,0.0,0.0,0.0,0.0,0.0,0.0,0.0,0.0,0.0,0.0,0.0,0.0,0.0,0.0,0.0,0.0,0.0,0.0,0.0,0.0,0.0,0.0,0.0,0.0,0.0,0.0,0.0,0.0,0.0,0.0,0.0,0.0,0.0,0.0,0.0,0.0,0.0,0.0,0.0,0.0,0.0,0.0,0.0,0.0,0.0,0.0,0.0,0.0,0.0,0.0,0.0,0.0,0.0,0.0,0.0,0.0,0.0,0.0,0.0,0.0,0.0,0.0,0.0,0.0,0.0,0.0,0.0,0.0,0.0,0.0,0.0,0.0,0.0,0.0,0.0,0.0,0.0,0.0,0.0,0.0,0.0,0.0,0.0,0.0,0.0,0.0,0.0,0.0,0.0,0.0,0.0,0.0,0.0,0.0,0.0,0.0,0.0,0.0,0.0,0.0,0.0,0.0,0.0,0.0,0.0,0.0,0.0,0.0,0.0,0.0,0.0,0.0,0.0,0.0,0.0,0.0,0.0,0.0,0.0,0.0,0.0,0.0,0.0,0.0,0.0,0.0,0.0,0.0,0.0,0.0,0.0,0.0,0.0,0.0,0.0,0.0,0.0,0.0,0.0,0.0,0.0,0.0,0.0,0.0,0.0,0.0,0.0,0.0,0.0,0.0,0.0,0.0,0.0,0.0,0.0,0.0,0.0,0.0,0.0,0.0,0.0,0.0,0.0,0.0,0.0,0.0,0.0,0.0,0.0,0.0,0.0,0.0,0.0,0.0,0.0,0.0,0.0,0.0,0.0,0.0,0.0,0.0,0.0,0.0,0.0,0.0,0.0,0.0,0.0,0.0,0.0,0.0,0.0,0.0,0.0,0.0,0.0,0.0,0.0,0.0,0.0,0.0,0.0,0.0,0.0,0.0,0.0,0.0,0.0,0.0,0.0,0.0,0.0,0.0,0.0,0.0,0.0,0.0,0.0,0.0,0.0,0.0,0.0,0.0,0.0,0.0,0.0,0.0,0.0,0.0,0.0,0.0,0.0,0.0,0.0,0.0,0.0,0.0,0.0,0.0,0.0,0.0,0.0,0.0,0.0,0.0,0.0,0.0,0.0,0.0,0.0,0.0,0.0,0.0,0.0,0.0,0.0,0.0,0.0,0.0,0.0,0.0,0.0,0.0,0.0,0.0,0.0,0.0,0.0,0.0,0.0,0.0,0.0,0.0,0.0,0.0,0.0,0.0,0.0,0.0,0.0,0.0,0.0,0.0,0.0,0.0,0.0,0.0,0.0,0.0,0.0,0.0,0.0,0.0,0.0,0.0,0.0,0.0,0.0,0.0,0.0,0.0,0.0,0.0,0.0,0.0,0.0,0.0,0.0,0.0,0.0,0.0,0.0,0.0,0.0,0.0,0.0,0.0,0.0,0.0,0.0,0.0,0.0,0.0,0.0,0.0,0.0,0.0,0.0,0.0,0.0,0.0,0.0,0.0,0.0,0.0,0.0,0.0,0.0,0.0,0.0,0.0,0.0,0.0,0.0,0.0,0.0,0.0,0.0,0.0,0.0,0.0,0.0,0.0,0.0,0.0,0.0,0.0,0.0,0.0,0.0,0.0,0.0,0.0,0.0,0.0,0.0,0.0,0.0,0.0,0.0,0.0,0.0,0.0,0.0,0.0,0.0,0.0,0.0,0.0,0.0,0.0,0.0,0.0,0.0,0.0,0.0,0.0,0.0,0.0,0.0,0.0,0.0,0.0,0.0,0.0,0.0,0.0,0.0,0.0,0.0,0.0,0.0,0.0,0.0,0.0,0.0,0.0,0.0,0.0,0.0,0.0,0.0,0.0,0.0,0.0,0.0,0.0,0.0,0.0,0.0,0.0,0.0,0.0,0.0,0.0,0.0,0.0,0.0,0.0,0.0,0.0,0.0,0.0,0.0,0.0,0.0,0.0,0.0,0.0,0.0,0.0,0.0,0.0,0.0,0.0,0.0,0.0,0.0,0.0,0.0,0.0,0.0,0.0,0.0,0.0,0.0,0.0,0.0,0.0,0.0,0.0,0.0,0.0,0.0,0.0,0.0,0.0,0.0,0.0,0.0,0.0,0.0,0.0,0.0,0.0,0.0,0.0,0.0,0.0,0.0,0.0,0.0,0.0,0.0,0.0,0.0,0.0,0.0,0.0,0.0,0.0,0.0,0.0,0.0,0.0,0.0,0.0,0.0,0.0,0.0,0.0,0.0,0.0,0.0,0.0,0.0,0.0,0.0,0.0,0.0,0.0,0.0,0.0,0.0,0.0,0.0,0.0,0.0,0.0,0.0,0.0,0.0,0.0,0.0,0.0,0.0,0.0,0.0,0.0,0.0,0.0,0.0,0.0,0.0,0.0,0.0,0.0,0.0,0.0,0.0,0.0,0.0,0.0,0.0,0.0,0.0,0.0,0.0,0.0,0.0,0.0,0.0,0.0,0.0,0.0,0.0,0.0,0.0,0.0,0.0,0.0,0.0,0.0,0.0,0.0,0.0,0.0,0.0,0.0,0.0,0.0,0.0,0.0,0.0,0.0,0.0,0.0,0.0,0.0,0.0,0.0,0.0,0.0,0.0,0.0,0.0,0.0,0.0,0.0,0.0,0.0,0.0,0.0,0.0,0.0,0.0,0.0,0.0,0.0,0.0,0.0,0.0,0.0,0.0,0.0,0.0,0.0,0.0,0.0,0.0,0.0,0.0,0.0,0.0,0.0,0.0,0.0,0.0,0.0,0.0,0.0,0.0,0.0,0.0,0.0,0.0,0.0,0.0,0.0,0.0,0.0,0.0,0.0,0.0,0.0,0.0,0.0,0.0,0.0,0.0,0.0,0.0,0.0,0.0,0.0,0.0,0.0,0.0,0.0,0.0,0.0,0.0,0.0,0.0,0.0,0.0,0.0,0.0,0.0,0.0,0.0,0.0,0.0,0.0,0.0,0.0,0.0,0.0,0.0,0.0,0.0,0.0,0.0,0.0,0.0,0.0,0.0,0.0,0.0,0.0,0.0,0.0,0.0,0.0,0.0,0.0,0.0,0.0,0.0,0.0,0.0,0.0,0.0,0.0,0.0,0.0,0.0,0.0,0.0,0.0,0.0,0.0,0.0,0.0,0.0,0.0,0.0,0.0,0.0,0.0,0.0,0.0,0.0,0.0,0.0,0.0,0.0,0.0,0.0,0.0,0.0,0.0,0.0,0.0,0.0,0.0,0.0,0.0,0.0,0.0,0.0,0.0,0.0,0.0,0.0,0.0,0.0,0.0,0.0,0.0,0.0,0.0,0.0,0.0,0.0,0.0,0.0,0.0,0.0,0.0,0.0,0.0,0.0,0.0,0.0,0.0,0.0,0.0,0.0,0.0,0.0,0.0,0.0,0.0,0.0,0.0,0.0,0.0,0.0,0.0,0.0,0.0,0.0,0.0,0.0,0.0,0.0,0.0,0.0,0.0,0.0,0.0,0.0,0.0,0.0,0.0,0.0,0.0,0.0,0.0,0.0,0.0,0.0,0.0,0.0,0.0,0.0,0.0,0.0,0.0,0.0,0.0,0.0,0.0,0.0,0.0,0.0,0.0,0.0,0.0,0.0,0.0,0.0,0.0,0.0,0.0,0.0,0.0,0.0,0.0,0.0,0.0,0.0,0.0,0.0,0.0,0.0,0.0,0.0,0.0,0.0,0.0,0.0,0.0,0.0,0.0,0.0,0.0,0.0,0.0,0.0,0.0,0.0,0.0,0.0,0.0,0.0,0.0,0.0,0.0,0.0,0.0,0.0,0.0,0.0,0.0,0.0,0.0,0.0,0.0,0.0,0.0,0.0,0.0,0.0,-0.1567,0.0,0.0,0.0,0.0,0.0,0.0,0.0,0.0,0.0,0.0,0.0,0.0,0.0,0.0,0.0,0.0,0.0,0.0,0.0,0.0,0.0,0.0,0.0,0.0,0.0,0.0,0.0,0.0,0.0,0.0,0.0,0.0,0.0,0.0,0.0,0.0,0.0,0.0,0.0,0.0,0.0,0.0,0.0,0.0,0.0,0.0,0.0,0.0,0.0,0.0,0.0,0.0,0.0,0.0,0.0,0.0,0.0,0.0,0.0,0.0,0.0,0.0,0.0,0.0,0.0,0.0,0.0,0.0,0.0,0.0,0.0,0.0,0.0,0.0,0.0,0.0,0.0,0.0,0.0,0.0,0.0,0.0,0.0,0.0,0.0,0.0,0.0,0.0,0.0,0.0,0.0,0.0,0.0,0.0,0.0,0.0,0.0,0.0,0.0,0.0,0.0,0.0,0.0,0.0,0.0,0.0,0.0,0.0,0.0,0.0,-0.4116,-0.4094,-0.4296,-0.408,-0.339,0.0,0.0,0.0,0.0,0.0,0.0,0.0,0.0,0.0,0.0,0.0,0.0,0.0,0.0,0.0,0.0,0.0,0.0,0.0,0.0,0.0,0.0,0.0,0.0,0.0,0.0,0.0,0.0,0.0,0.0,0.0,0.0,0.0,0.0,0.0,0.0,0.0,0.0,0.0,0.0,0.0,0.0,0.0,0.0,0.0,0.0,0.0,0.0,0.0,0.0,0.0,0.0,0.0,0.0,0.0,0.0,0.0,0.0,0.0,0.0,0.0,0.0,0.0,0.0,0.0,0.0,0.0,0.0,0.0,0.0,0.0,0.0,0.0,0.0,0.0,0.0,0.0,0.0,0.0,0.0,0.0,0.0,0.0,0.0,0.0,0.0,0.0,0.0,0.0,0.0,0.0,0.0,0.0,0.0,0.0,0.0,0.0,0.0,0.0,0.0,0.0,0.0,0.0,0.0,0.0,0.0,0.0,0.0,0.0,0.0,0.0,0.0,-0.6697,-0.6069,-0.5005,0.0,0.0,0.0,0.0,0.0,0.0,0.0,0.0,0.0,0.0,0.0,0.0,0.0,0.0,0.0,0.0,0.0,0.0,0.0,0.0,0.0,0.0,0.0,0.0,0.0,0.0,0.0,0.0,0.0,0.0,0.0,0.0,0.0,0.0,0.0,0.0,0.0,0.0,0.0,0.0,0.0,0.0,0.0,0.0,0.0,0.0,0.0,0.0,0.0,0.0,0.0,0.0,0.0,0.0,0.0,0.0,0.0,0.0,0.0,0.0,0.0,0.0,0.0,0.0,0.0,0.0,0.0,0.0,0.0,0.0,0.0,0.0,0.0,0.0,0.0,0.0,0.0,0.0,0.0,0.0,0.0,0.0,0.0,0.0,0.0,0.0,0.0,0.0,0.0,0.0,0.0,0.0,0.0,0.0,0.0,0.0,0.0,0.0,0.0,0.0,0.0,0.0,0.0,0.0,0.0,0.0,0.0,0.0,0.0,0.0,-0.9248,-1.1002,-1.0498,0.0,-0.6764,0.0,0.0,0.0,0.0,0.0,0.0,0.0,0.0,0.0,0.0,0.0,0.0,0.0,0.0,0.0,0.0,0.0,0.0,0.0,0.0,0.0,0.0,0.0,0.0,0.0,0.0,0.0,0.0,0.0,0.0,0.0,0.0,0.0,0.0,0.0,0.0,0.0,0.0,0.0,0.0,0.0,0.0,0.0,0.0,0.0,0.0,0.0,0.0,0.0,0.0,0.0,0.0,0.0,0.0,0.0,0.0,0.0,0.0,0.0,0.0,0.0,0.0,0.0,0.0,0.0,0.0,0.0,0.0,0.0,0.0,0.0,0.0,0.0,0.0,0.0,0.0,0.0,0.0,0.0,0.0,0.0,0.0,0.0,0.0,0.0,0.0,0.0,0.0,0.0,0.0,0.0,0.0,0.0,0.0,0.0,0.0,0.0,0.0,0.0,0.0,0.0,0.0,0.0,0.0,0.0,0.0,0.0,0.0,0.0,0.0,-1.1676,-1.3259,-1.2402,-1.1087,0.0,0.0,0.0,0.0,0.0,0.0,0.0,0.0,0.0,0.0,0.0,0.0,0.0,0.0,0.0,0.0,0.0,0.0,0.0,0.0,0.0,0.0,0.0,0.0,0.0,0.0,0.0,0.0,0.0,0.0,0.0,0.0,0.0,0.0,0.0,0.0,0.0,0.0,0.0,0.0,0.0,0.0,0.0,0.0,0.0,0.0,0.0,0.0,0.0,0.0,0.0,0.0,0.0,0.0,0.0,0.0,0.0,0.0,0.0,0.0,0.0,0.0,0.0,0.0,0.0,0.0,0.0,0.0,0.0,0.0,0.0,0.0,0.0,0.0,0.0,0.0,0.0,0.0,0.0,0.0,0.0,0.0,0.0,0.0,0.0,0.0,0.0,0.0,0.0,0.0,0.0,0.0,0.0,0.0,0.0,0.0,0.0,0.0,0.0,0.0,0.0,0.0,0.0,0.0,0.0,0.0,0.0,0.0,0.0,0.0,-1.3435,-1.4327,-1.551,-1.4087,-1.2815,-1.1879,0.0,0.0,0.0,0.0,0.0,0.0,0.0,0.0,0.0,0.0,0.0,0.0,0.0,0.0,0.0,0.0,0.0,0.0,0.0,0.0,0.0,0.0,0.0,0.0,0.0,0.0,0.0,0.0,0.0,0.0,0.0,0.0,0.0,0.0,0.0,0.0,0.0,0.0,0.0,0.0,0.0,0.0,0.0,0.0,0.0,0.0,0.0,0.0,0.0,0.0,0.0,0.0,0.0,0.0,0.0,0.0,0.0,0.0,0.0,0.0,0.0,0.0,0.0,0.0,0.0,0.0,0.0,0.0,0.0,0.0,0.0,0.0,0.0,0.0,0.0,0.0,0.0,0.0,0.0,0.0,0.0,0.0,0.0,0.0,0.0,0.0,0.0,0.0,0.0,0.0,0.0,0.0,0.0,0.0,0.0,0.0,0.0,0.0,0.0,0.0,0.0,0.0,0.0,0.0,0.0,0.0,0.0,0.0,-1.7512,-1.7229,-1.7478,-1.8393,-1.6063,-1.4364,0.0,0.0,0.0,0.0,0.0,0.0,0.0,0.0,0.0,0.0,0.0,0.0,0.0,0.0,0.0,0.0,0.0,0.0,0.0,0.0,0.0,0.0,0.0,0.0,0.0,0.0,0.0,0.0,0.0,0.0,0.0,0.0,0.0,0.0,0.0,0.0,0.0,0.0,0.0,0.0,0.0,0.0,0.0,0.0,0.0,0.0,0.0,0.0,0.0,0.0,0.0,0.0,0.0,0.0,0.0,0.0,0.0,0.0,0.0,0.0,0.0,0.0,0.0,0.0,0.0,0.0,0.0,0.0,0.0,0.0,0.0,0.0,0.0,0.0,0.0,0.0,0.0,0.0,0.0,0.0,0.0,0.0,0.0,0.0,0.0,0.0,0.0,0.0,0.0,0.0,0.0,0.0,0.0,0.0,0.0,0.0,0.0,0.0,0.0,0.0,0.0,0.0,0.0,0.0,0.0,0.0,0.0,0.0,0.0,-1.7551,-1.8653,-1.9549,-2.0182,-1.7795,-1.6193,0.0,0.0,0.0,0.0,0.0,0.0,0.0,0.0,0.0,0.0,0.0,0.0,0.0,0.0,0.0,0.0,0.0,0.0,0.0,0.0,0.0,0.0,0.0,0.0,0.0,0.0,0.0,0.0,0.0,0.0,0.0,0.0,0.0,0.0,0.0,0.0,0.0,0.0,0.0,0.0,0.0,0.0,0.0,0.0,0.0,0.0,0.0,0.0,0.0,0.0,0.0,0.0,0.0,0.0,0.0,0.0,0.0,0.0,0.0,0.0,0.0,0.0,0.0,0.0,0.0,0.0,0.0,0.0,0.0,0.0,0.0,0.0,0.0,0.0,0.0,0.0,0.0,0.0,0.0,0.0,0.0,0.0,0.0,0.0,0.0,0.0,0.0,0.0,0.0,0.0,0.0,0.0,0.0,0.0,0.0,0.0,0.0,0.0,0.0,0.0,0.0,0.0,0.0,0.0,0.0,0.0,0.0,0.0,0.0,-1.9742,0.0,-2.2759,-2.1945,-1.9748,-1.7782,0.0,0.0,0.0,0.0,0.0,0.0,0.0,0.0,0.0,0.0,0.0,0.0,0.0,0.0,0.0,0.0,0.0,0.0,0.0,0.0,0.0,0.0,0.0,0.0,0.0,0.0,0.0,0.0,0.0,0.0,0.0,0.0,0.0,0.0,0.0,0.0,0.0,0.0,0.0,0.0,0.0,0.0,0.0,0.0,0.0,0.0,0.0,0.0,0.0,0.0,0.0,0.0,0.0,0.0,0.0,0.0,0.0,0.0,0.0,0.0,0.0,0.0,0.0,0.0,0.0,0.0,0.0,0.0,0.0,0.0,0.0,0.0,0.0,0.0,0.0,0.0,0.0,0.0,0.0,0.0,0.0,0.0,0.0,0.0,0.0,0.0,0.0,0.0,0.0,0.0,0.0,0.0,0.0,0.0,0.0,0.0,0.0,0.0,0.0,0.0,0.0,0.0,0.0,0.0,0.0,0.0,0.0,0.0,-1.9846,-2.4476,-2.7251,-2.7006,-2.3876,-2.1831,-1.9192,0.0,0.0,0.0,0.0,0.0,0.0,0.0,0.0,0.0,0.0,0.0,0.0,0.0,0.0,0.0,0.0,0.0,0.0,0.0,0.0,0.0,0.0,0.0,0.0,0.0,0.0,0.0,0.0,0.0,0.0,0.0,0.0,0.0,0.0,0.0,0.0,0.0,0.0,0.0,0.0,0.0,0.0,0.0,0.0,0.0,0.0,0.0,0.0,0.0,0.0,0.0,0.0,0.0,0.0,0.0,0.0,0.0,0.0,0.0,0.0,0.0,0.0,0.0,0.0,0.0,0.0,0.0,0.0,0.0,0.0,0.0,0.0,0.0,0.0,0.0,0.0,0.0,0.0,0.0,0.0,0.0,0.0,0.0,0.0,0.0,0.0,0.0,0.0,0.0,0.0,0.0,0.0,0.0,0.0,0.0,0.0,0.0,0.0,0.0,0.0,0.0,0.0,0.0,0.0,0.0,0.0,0.0,0.0,0.0,-2.5263,-2.7385,-2.8139,-2.7292,-2.3791,-2.132,0.0,0.0,0.0,0.0,0.0,0.0,0.0,0.0,0.0,0.0,0.0,0.0,0.0,0.0,0.0,0.0,0.0,0.0,0.0,0.0,0.0,0.0,0.0,0.0,0.0,0.0,0.0,0.0,0.0,0.0,0.0,0.0,0.0,0.0,0.0,0.0,0.0,0.0,0.0,0.0,0.0,0.0,0.0,0.0,0.0,0.0,0.0,0.0,0.0,0.0,0.0,0.0,0.0,0.0,0.0,0.0,0.0,0.0,0.0,0.0,0.0,0.0,0.0,0.0,0.0,0.0,0.0,0.0,0.0,0.0,0.0,0.0,0.0,0.0,0.0,0.0,0.0,0.0,0.0,0.0,0.0,0.0,0.0,0.0,0.0,0.0,0.0,0.0,0.0,0.0,0.0,0.0,0.0,0.0,0.0,0.0,0.0,0.0,0.0,0.0,0.0,0.0,0.0,0.0,0.0,0.0,0.0,0.0,0.0,-2.7417,-2.9171,-2.9663,-2.8613,-2.5316,-2.279,-2.1153,0.0,0.0,0.0,0.0,0.0,0.0,0.0,0.0,0.0,0.0,0.0,0.0,0.0,0.0,0.0,0.0,0.0,0.0,0.0,0.0,0.0,0.0,0.0,0.0,0.0,0.0,0.0,0.0,0.0,0.0,0.0,0.0,0.0,0.0,0.0,0.0,0.0,0.0,0.0,0.0,0.0,0.0,0.0,0.0,0.0,0.0,0.0,0.0,0.0,0.0,0.0,0.0,0.0,0.0,0.0,0.0,0.0,0.0,0.0,0.0,0.0,0.0,0.0,0.0,0.0,0.0,0.0,0.0,0.0,0.0,0.0,0.0,0.0,0.0,0.0,0.0,0.0,0.0,0.0,0.0,0.0,0.0,0.0,0.0,0.0,0.0,0.0,0.0,0.0,0.0,0.0,0.0,0.0,0.0,0.0,0.0,0.0,0.0,0.0,0.0,0.0,0.0,0.0,0.0,0.0,0.0,0.0,0.0,-3.0404,-3.2246,-3.16,-2.8394,-2.6497,-2.3779,0.0,0.0,0.0,0.0,0.0,0.0,0.0,0.0,0.0,0.0,0.0,0.0,0.0,0.0,0.0,0.0,0.0,0.0,0.0,0.0,0.0,0.0,0.0,0.0,0.0,0.0,0.0,0.0,0.0,0.0,0.0,0.0,0.0,0.0,0.0,0.0,0.0,0.0,0.0,0.0,0.0,0.0,0.0,0.0,0.0,0.0,0.0,0.0,0.0,0.0,0.0,0.0,0.0,0.0,0.0,0.0,0.0,0.0,0.0,0.0,0.0,0.0,0.0,0.0,0.0,0.0,0.0,0.0,0.0,0.0,0.0,0.0,0.0,0.0,0.0,0.0,0.0,0.0,0.0,0.0,0.0,0.0,0.0,0.0,0.0,0.0,0.0,0.0,0.0,0.0,0.0,0.0,0.0,0.0,0.0,0.0,0.0,0.0,0.0,0.0,0.0,0.0,0.0,0.0,0.0,0.0,0.0,0.0,0.0,-3.0545,-3.1784,-3.2307,-3.1946,-2.877,-2.5925,0.0,0.0,0.0,0.0,0.0,0.0,0.0,0.0,0.0,0.0,0.0,0.0,0.0,0.0,0.0,0.0,0.0,0.0,0.0,0.0,0.0,0.0,0.0,0.0,0.0,0.0,0.0,0.0,0.0,0.0,0.0,0.0,0.0,0.0,0.0,0.0,0.0,0.0,0.0,0.0,0.0,0.0,0.0,0.0,0.0,0.0,0.0,0.0,0.0,0.0,0.0,0.0,0.0,0.0,0.0,0.0,0.0,0.0,0.0,0.0,0.0,0.0,0.0,0.0,0.0,0.0,0.0,0.0,0.0,0.0,0.0,0.0,0.0,0.0,0.0,0.0,0.0,0.0,0.0,0.0,0.0,0.0,0.0,0.0,0.0,0.0,0.0,0.0,0.0,0.0,0.0,0.0,0.0,0.0,0.0,0.0,0.0,0.0,0.0,0.0,0.0,0.0,0.0,0.0,0.0,0.0,0.0,0.0,-2.9999,-3.0557,-3.1825,-3.2637,-3.2908,-2.9559,-2.6693,0.0,0.0,0.0,0.0,0.0,0.0,0.0,0.0,0.0,0.0,0.0,0.0,0.0,0.0,0.0,0.0,0.0,0.0,0.0,0.0,0.0,0.0,0.0,0.0,0.0,0.0,0.0,0.0,0.0,0.0,0.0,0.0,0.0,0.0,0.0,0.0,0.0,0.0,0.0,0.0,0.0,0.0,0.0,0.0,0.0,0.0,0.0,0.0,0.0,0.0,0.0,0.0,0.0,0.0,0.0,0.0,0.0,0.0,0.0,0.0,0.0,0.0,0.0,0.0,0.0,0.0,0.0,0.0,0.0,0.0,0.0,0.0,0.0,0.0,0.0,0.0,0.0,0.0,0.0,0.0,0.0,0.0,0.0,0.0,0.0,0.0,0.0,0.0,0.0,0.0,0.0,0.0,0.0,0.0,0.0,0.0,0.0,0.0,0.0,0.0,0.0,0.0,0.0,0.0,0.0,0.0,0.0,0.0,-3.0032,-3.0641,-3.2109,-3.2667,-3.2109,-2.9407,-2.6673,0.0,0.0,0.0,0.0,0.0,0.0,0.0,0.0,0.0,0.0,0.0,0.0,0.0,0.0,0.0,0.0,0.0,0.0,0.0,0.0,0.0,0.0,0.0,0.0,0.0,0.0,0.0,0.0,0.0,0.0,0.0,0.0,0.0,0.0,0.0,0.0,0.0,0.0,0.0,0.0,0.0,0.0,0.0,0.0,0.0,0.0,0.0,0.0,0.0,0.0,0.0,0.0,0.0,0.0,0.0,0.0,0.0,0.0,0.0,0.0,0.0,0.0,0.0,0.0,0.0,0.0,0.0,0.0,0.0,0.0,0.0,0.0,0.0,0.0,0.0,0.0,0.0,0.0,0.0,0.0,0.0,0.0,0.0,0.0,0.0,0.0,0.0,0.0,0.0,0.0,0.0,0.0,0.0,0.0,0.0,0.0,0.0,0.0,0.0,0.0,0.0,0.0,0.0,0.0,0.0,0.0,0.0,0.0,-3.09,-3.1337,-3.1915,-3.2038,-3.1712,-2.9357,-2.6995,0.0,0.0,0.0,0.0,0.0,0.0,0.0,0.0,0.0,0.0,0.0,0.0,0.0,0.0,0.0,0.0,0.0,0.0,0.0,0.0,0.0,0.0,0.0,0.0,0.0,0.0,0.0,0.0,0.0,0.0,0.0,0.0,0.0,0.0,0.0,0.0,0.0,0.0,0.0,0.0,0.0,0.0,0.0,0.0,0.0,0.0,0.0,0.0,-2.4207,0.0,0.0,0.0,0.0,0.0,0.0,0.0,0.0,0.0,0.0,0.0,0.0,0.0,0.0,0.0,0.0,0.0,0.0,0.0,0.0,0.0,0.0,0.0,0.0,0.0,0.0,0.0,0.0,0.0,0.0,0.0,0.0,0.0,0.0,0.0,0.0,0.0,0.0,0.0,0.0,0.0,0.0,0.0,0.0,0.0,0.0,0.0,0.0,0.0,0.0,0.0,0.0,0.0,0.0,0.0,0.0,0.0,0.0,0.0,-3.1199,-3.1604,-3.193,-3.2101,-3.1988,-2.9956,-2.7569,0.0,0.0,0.0,0.0,0.0,0.0,0.0,0.0,0.0,0.0,0.0,0.0,0.0,0.0,0.0,0.0,0.0,0.0,0.0,0.0,0.0,0.0,0.0,0.0,0.0,0.0,0.0,0.0,0.0,0.0,0.0,0.0,0.0,0.0,0.0,0.0,0.0,0.0,0.0,0.0,0.0,0.0,0.0,0.0,0.0,0.0,0.0,0.0,0.0,0.0,0.0,0.0,0.0,0.0,0.0,0.0,0.0,0.0,0.0,0.0,0.0,0.0,0.0,0.0,0.0,0.0,0.0,0.0,0.0,0.0,0.0,0.0,0.0,0.0,0.0,0.0,0.0,0.0,0.0,0.0,0.0,0.0,0.0,0.0,0.0,0.0,0.0,0.0,0.0,0.0,0.0,0.0,0.0,0.0,0.0,0.0,0.0,0.0,0.0,0.0,0.0,0.0,0.0,0.0,0.0,0.0,0.0,-2.9958,-3.1243,-3.1689,-3.2141,-3.2376,-3.2409,-3.0494,-2.8107,-2.5109,0.0,0.0,0.0,0.0,0.0,0.0,0.0,0.0,0.0,0.0,0.0,0.0,0.0,0.0,0.0,0.0,0.0,0.0,0.0,0.0,0.0,0.0,0.0,0.0,0.0,0.0,0.0,0.0,0.0,0.0,0.0,0.0,0.0,0.0,0.0,0.0,0.0,0.0,-2.1064,-2.5737,0.0,0.0,0.0,0.0,0.0,0.0,0.0,0.0,-3.0273,0.0,0.0,0.0,0.0,0.0,0.0,0.0,0.0,0.0,0.0,0.0,0.0,0.0,0.0,0.0,0.0,0.0,0.0,0.0,0.0,0.0,0.0,0.0,0.0,0.0,0.0,0.0,0.0,0.0,0.0,0.0,0.0,0.0,0.0,0.0,0.0,0.0,0.0,0.0,0.0,0.0,0.0,0.0,0.0,0.0,0.0,0.0,0.0,0.0,0.0,0.0,0.0,0.0,0.0,0.0,0.0,-2.9347,-3.0432,-3.1404,-3.2158,-3.2791,-3.2668,-3.1686,-2.9958,-2.7936,-2.5618,0.0,0.0,0.0,0.0,0.0,0.0,0.0,0.0,0.0,0.0,0.0,0.0,0.0,0.0,0.0,0.0,0.0,0.0,0.0,0.0,0.0,0.0,0.0,0.0,0.0,0.0,0.0,0.0,0.0,0.0,0.0,0.0,0.0,0.0,0.0,0.0,0.0,0.0,0.0,-3.0528,-3.2863,0.0,0.0,0.0,0.0,0.0,0.0,0.0,0.0,-3.0418,0.0,0.0,0.0,0.0,0.0,0.0,0.0,0.0,0.0,0.0,0.0,0.0,0.0,0.0,0.0,0.0,0.0,0.0,0.0,0.0,0.0,0.0,0.0,0.0,0.0,0.0,0.0,0.0,0.0,0.0,0.0,0.0,0.0,0.0,0.0,0.0,0.0,0.0,0.0,0.0,0.0,0.0,0.0,0.0,0.0,0.0,0.0,0.0,0.0,0.0,0.0,0.0,0.0,0.0,0.0,-2.906,-3.0517,-3.1809,-3.2897,-3.3085,-3.2997,-3.2602,-3.0537,-2.8542,0.0,0.0,0.0,0.0,0.0,0.0,0.0,0.0,0.0,0.0,0.0,0.0,0.0,0.0,0.0,0.0,0.0,0.0,0.0,0.0,0.0,0.0,0.0,0.0,0.0,0.0,0.0,0.0,0.0,0.0,0.0,0.0,0.0,0.0,0.0,0.0,0.0,0.0,0.0,0.0,-3.2066,-3.414,-3.2297,0.0,0.0,0.0,0.0,0.0,0.0,-3.3577,-3.3414,0.0,0.0,0.0,0.0,0.0,0.0,0.0,0.0,0.0,0.0,0.0,0.0,0.0,0.0,0.0,0.0,0.0,0.0,0.0,0.0,0.0,0.0,0.0,0.0,0.0,0.0,0.0,0.0,0.0,0.0,0.0,0.0,0.0,0.0,0.0,0.0,0.0,0.0,0.0,0.0,0.0,0.0,0.0,0.0,0.0,0.0,0.0,0.0,0.0,0.0,0.0,0.0,0.0,0.0,0.0,-2.851,-3.0606,-3.2258,-3.3334,-3.3405,-3.3461,-3.3535,-3.0989,-2.8914,0.0,0.0,0.0,0.0,0.0,0.0,0.0,0.0,0.0,0.0,0.0,0.0,0.0,0.0,0.0,0.0,0.0,0.0,0.0,0.0,0.0,0.0,0.0,0.0,0.0,0.0,0.0,0.0,0.0,0.0,0.0,0.0,0.0,0.0,0.0,0.0,0.0,0.0,0.0,0.0,0.0,-3.5465,-3.3956,-3.5129,0.0,0.0,0.0,0.0,-3.5434,-3.6059,0.0,0.0,0.0,0.0,0.0,0.0,0.0,0.0,0.0,0.0,0.0,0.0,0.0,0.0,0.0,0.0,0.0,0.0,0.0,0.0,0.0,0.0,0.0,0.0,0.0,0.0,0.0,0.0,0.0,0.0,0.0,0.0,0.0,0.0,0.0,0.0,0.0,0.0,0.0,0.0,0.0,0.0,0.0,0.0,0.0,0.0,0.0,0.0,0.0,0.0,0.0,0.0,0.0,0.0,0.0,0.0,-2.8486,-3.1049,-3.2599,-3.3092,-3.4117,-3.4269,-3.335,-3.0322,-2.8275,0.0,0.0,0.0,0.0,0.0,0.0,0.0,0.0,0.0,0.0,0.0,0.0,0.0,0.0,0.0,0.0,0.0,0.0,0.0,0.0,0.0,0.0,0.0,0.0,0.0,0.0,0.0,0.0,0.0,0.0,0.0,0.0,0.0,0.0,0.0,0.0,0.0,0.0,0.0,0.0,0.0,-3.9445,-3.568,-3.697,-3.8061,0.0,0.0,-3.5966,-3.7182,-3.6533,0.0,0.0,0.0,0.0,0.0,0.0,0.0,0.0,0.0,0.0,0.0,0.0,0.0,0.0,0.0,0.0,0.0,0.0,0.0,0.0,0.0,0.0,0.0,0.0,0.0,0.0,0.0,0.0,0.0,0.0,0.0,0.0,0.0,0.0,0.0,0.0,0.0,0.0,0.0,0.0,0.0,0.0,0.0,0.0,0.0,0.0,0.0,0.0,0.0,0.0,0.0,0.0,0.0,0.0,0.0,-2.7861,-2.8191,-3.0688,-3.2446,-3.3333,-3.3592,-3.3734,-3.3795,-3.0195,-2.7905,0.0,0.0,0.0,0.0,0.0,0.0,0.0,0.0,0.0,0.0,0.0,0.0,0.0,0.0,0.0,0.0,0.0,0.0,0.0,0.0,0.0,0.0,0.0,0.0,0.0,0.0,0.0,0.0,0.0,0.0,0.0,0.0,0.0,0.0,0.0,0.0,0.0,0.0,0.0,0.0,0.0,0.0,-3.7707,-3.8276,0.0,0.0,0.0,-3.8316,-3.9976,0.0,0.0,0.0,0.0,0.0,0.0,0.0,0.0,0.0,0.0,0.0,0.0,0.0,0.0,0.0,0.0,0.0,0.0,0.0,0.0,0.0,0.0,0.0,0.0,0.0,0.0,0.0,0.0,0.0,0.0,0.0,0.0,0.0,0.0,0.0,0.0,0.0,0.0,0.0,0.0,0.0,0.0,0.0,0.0,0.0,0.0,0.0,0.0,0.0,0.0,0.0,0.0,0.0,0.0,0.0,0.0,0.0,-2.8018,-3.0609,-3.2542,-3.3677,-3.3395,-3.3444,-3.4005,-3.037,0.0,0.0,0.0,0.0,0.0,0.0,0.0,0.0,0.0,0.0,0.0,0.0,0.0,0.0,0.0,0.0,0.0,0.0,0.0,0.0,0.0,0.0,0.0,0.0,0.0,0.0,0.0,-1.8405,0.0,0.0,0.0,0.0,0.0,0.0,0.0,0.0,0.0,0.0,0.0,0.0,0.0,0.0,-3.7598,-3.954,-3.9691,-4.001,0.0,0.0,-4.053,-4.1812,-4.0877,-3.9558,0.0,0.0,0.0,0.0,0.0,0.0,0.0,0.0,0.0,0.0,0.0,0.0,0.0,0.0,0.0,0.0,0.0,0.0,0.0,0.0,0.0,0.0,0.0,0.0,0.0,0.0,0.0,0.0,0.0,0.0,0.0,0.0,0.0,0.0,0.0,0.0,0.0,0.0,0.0,0.0,0.0,0.0,0.0,0.0,0.0,0.0,0.0,0.0,0.0,0.0,0.0,0.0,0.0,0.0,0.0,-2.8265,-3.1309,-3.3188,-3.3856,-3.4085,-3.4053,-3.3713,-3.0973,-2.8742,0.0,0.0,0.0,0.0,0.0,0.0,0.0,0.0,0.0,0.0,0.0,0.0,0.0,0.0,0.0,0.0,0.0,0.0,0.0,0.0,0.0,0.0,0.0,0.0,0.0,0.0,0.0,0.0,0.0,0.0,0.0,0.0,0.0,0.0,0.0,0.0,0.0,0.0,0.0,0.0,0.0,-3.9633,-4.0744,-4.1328,-4.2097,0.0,0.0,-4.2149,-4.1459,-4.0575,-3.9266,-3.7303,0.0,0.0,0.0,0.0,0.0,0.0,0.0,0.0,0.0,0.0,0.0,0.0,0.0,0.0,0.0,0.0,0.0,0.0,0.0,0.0,0.0,0.0,0.0,0.0,0.0,0.0,0.0,0.0,0.0,0.0,0.0,0.0,0.0,0.0,0.0,0.0,0.0,0.0,0.0,0.0,0.0,0.0,0.0,0.0,0.0,0.0,0.0,0.0,0.0,0.0,0.0,0.0,0.0,-2.7569,-2.8646,-3.0962,-3.2536,-3.3303,-3.3193,-3.3144,-3.3124,-3.06,-2.8488,0.0,0.0,0.0,0.0,0.0,0.0,0.0,0.0,0.0,0.0,0.0,0.0,0.0,0.0,0.0,0.0,0.0,0.0,0.0,0.0,0.0,0.0,0.0,0.0,0.0,0.0,0.0,0.0,-2.1847,-2.2439,-2.283,0.0,0.0,0.0,0.0,0.0,0.0,0.0,0.0,0.0,0.0,-3.9613,-4.0603,-4.1056,0.0,0.0,-4.2718,-4.2466,-4.253,-4.1322,-3.9903,-3.8443,-3.7394,0.0,0.0,0.0,0.0,0.0,0.0,0.0,0.0,0.0,0.0,0.0,0.0,0.0,0.0,0.0,0.0,0.0,0.0,0.0,0.0,0.0,0.0,0.0,0.0,0.0,0.0,0.0,0.0,0.0,0.0,0.0,0.0,0.0,0.0,0.0,0.0,0.0,0.0,0.0,0.0,0.0,0.0,0.0,0.0,0.0,0.0,0.0,0.0,0.0,0.0,0.0,0.0,-2.7784,-2.895,-3.0879,-3.2266,-3.3076,-3.2724,-3.2641,-3.2889,-3.0728,-2.892,0.0,0.0,0.0,0.0,0.0,0.0,0.0,0.0,0.0,0.0,0.0,0.0,0.0,0.0,0.0,0.0,0.0,0.0,0.0,0.0,0.0,0.0,0.0,0.0,0.0,0.0,0.0,0.0,-2.3701,-2.4132,-2.4099,0.0,0.0,0.0,0.0,0.0,0.0,0.0,0.0,0.0,0.0,-3.9658,-4.0905,-4.1242,-4.1691,-4.2888,-4.2893,-4.2775,-4.2644,-4.1749,-4.0606,-3.9368,0.0,0.0,0.0,0.0,0.0,0.0,0.0,0.0,0.0,0.0,0.0,0.0,0.0,0.0,0.0,0.0,0.0,0.0,0.0,0.0,0.0,0.0,0.0,0.0,0.0,0.0,0.0,0.0,0.0,0.0,0.0,0.0,0.0,0.0,0.0,0.0,0.0,0.0,0.0,0.0,0.0,0.0,0.0,0.0,0.0,0.0,0.0,0.0,0.0,0.0,0.0,0.0,0.0,-2.8345,-2.9091,-3.137,-3.2774,-3.323,-3.2949,-3.2975,-3.329,-3.1647,-3.0338,-2.9334,0.0,0.0,0.0,0.0,0.0,0.0,0.0,0.0,0.0,0.0,0.0,0.0,0.0,0.0,0.0,0.0,0.0,0.0,0.0,0.0,0.0,0.0,0.0,0.0,0.0,0.0,-2.3538,-2.4896,-2.5697,0.0,0.0,0.0,0.0,0.0,0.0,0.0,0.0,0.0,0.0,-3.9326,-4.0087,-4.1933,-4.2288,-4.2536,-4.3336,-4.3668,-4.3245,-4.1562,-4.1547,-4.1261,0.0,0.0,0.0,0.0,0.0,0.0,0.0,0.0,0.0,0.0,0.0,0.0,0.0,0.0,0.0,0.0,0.0,0.0,0.0,0.0,0.0,0.0,0.0,0.0,0.0,0.0,0.0,-2.9453,-2.8779,0.0,0.0,0.0,0.0,0.0,0.0,0.0,0.0,0.0,0.0,0.0,-3.1759,-3.3238,0.0,0.0,0.0,0.0,0.0,0.0,0.0,0.0,0.0,0.0,0.0,0.0,-2.86,-2.9828,-3.1454,-3.255,-3.2949,-3.2602,-3.2211,-3.1809,-3.0954,-2.948,-2.7344,0.0,0.0,0.0,0.0,0.0,0.0,0.0,0.0,0.0,0.0,0.0,0.0,0.0,0.0,0.0,0.0,0.0,0.0,0.0,0.0,0.0,0.0,0.0,0.0,0.0,-2.5204,0.0,0.0,0.0,0.0,0.0,0.0,0.0,0.0,0.0,0.0,0.0,-3.7854,-3.9232,-4.0197,-4.0626,-4.0363,-4.1045,-4.175,0.0,0.0,0.0,0.0,0.0,0.0,0.0,0.0,0.0,0.0,0.0,0.0,0.0,0.0,-4.2251,-3.8901,-3.714,-3.6012,-3.5272,0.0,0.0,0.0,0.0,0.0,0.0,0.0,0.0,0.0,0.0,0.0,0.0,0.0,0.0,0.0,0.0,-2.9565,0.0,0.0,0.0,0.0,0.0,0.0,0.0,0.0,-3.3535,-3.3595,-3.2958,-3.4162,-3.4098,0.0,-3.2757,-3.2308,0.0,0.0,0.0,0.0,0.0,0.0,0.0,0.0,-2.9286,-3.0154,-3.1541,-3.2244,-3.2281,-3.2007,-3.1672,-3.1114,-3.0506,-2.9129,-2.6894,-2.4762,-2.3048,0.0,0.0,0.0,0.0,0.0,0.0,0.0,0.0,0.0,0.0,0.0,0.0,0.0,0.0,0.0,0.0,0.0,0.0,0.0,0.0,0.0,0.0,0.0,-2.6705,0.0,0.0,0.0,0.0,0.0,0.0,0.0,0.0,0.0,-3.7712,-3.8646,-3.9631,-4.0474,-4.1219,-4.1319,-4.0422,0.0,0.0,0.0,0.0,0.0,0.0,0.0,-4.1395,-4.1369,-4.103,-4.0669,-4.0546,-4.1501,-4.2105,-4.1604,0.0,0.0,-4.0041,-3.8335,-3.7157,-3.6782,-3.6938,-3.699,-3.6538,-3.6951,-3.7247,0.0,0.0,0.0,0.0,0.0,0.0,0.0,0.0,-3.1958,-3.1959,0.0,-3.0483,0.0,0.0,0.0,0.0,0.0,0.0,0.0,0.0,-3.3675,-3.3938,-3.4334,-3.4935,-3.4994,-3.4423,-3.5142,-3.4908,-3.3614,-3.0959,0.0,0.0,0.0,0.0,0.0,0.0,-3.0354,-2.9972,-3.148,-3.1992,-3.1336,-3.1278,-3.1279,-3.1176,-3.0367,-2.9299,-2.796,-2.6129,-2.4834,-2.423,-2.1401,0.0,0.0,0.0,0.0,0.0,0.0,0.0,0.0,0.0,0.0,0.0,0.0,0.0,0.0,0.0,0.0,0.0,0.0,0.0,0.0,-2.8155,0.0,0.0,0.0,0.0,0.0,0.0,0.0,0.0,0.0,0.0,-3.9033,-4.0483,-4.1852,-4.2586,0.0,0.0,0.0,0.0,-4.1239,-4.1943,-4.178,-4.1646,-4.1984,-4.2176,-4.2101,-4.1442,0.0,0.0,-4.0347,-4.1488,-4.1983,-4.057,-4.0563,-4.1115,-4.2543,-4.1124,-3.9947,-3.9841,-3.8985,-3.8432,-3.8299,-3.7954,-3.7959,-3.9688,0.0,0.0,0.0,0.0,-3.734,-3.6826,-3.6445,-3.4866,-3.3923,-3.3453,-3.2315,0.0,0.0,0.0,0.0,0.0,0.0,-3.3969,-3.3728,-3.3842,-3.3396,-3.2616,-3.3502,-3.3578,-3.3093,-3.3209,-3.3145,-3.2801,-3.1339,-3.0551,-3.0449,0.0,0.0,0.0,0.0,-3.0301,-2.9904,-3.0784,-3.1058,-3.0703,-3.0539,-3.0215,-2.9729,-2.9026,-2.8146,-2.7121,-2.6518,-2.5278,-2.322,-2.1978,0.0,0.0,0.0,0.0,0.0,0.0,0.0,0.0,0.0,0.0,0.0,0.0,0.0,0.0,0.0,0.0,0.0,0.0,0.0,-2.9444,-2.9588,-2.9944,0.0,0.0,0.0,0.0,0.0,0.0,0.0,0.0,0.0,-4.1204,-4.2188,-4.2886,0.0,0.0,-4.2397,-4.1845,-4.173,-4.1774,-4.1758,0.0,0.0,0.0,-4.1588,-4.151,-4.1789,-4.1512,-4.1095,-4.0624,-4.0662,-4.0445,-3.9595,-3.9514,-3.9709,-3.9901,-3.9269,-3.8253,-3.7331,-3.695,-3.6755,-3.63,-3.6067,-3.5962,-4.0216,-3.8979,-3.9259,-3.934,-3.9177,-3.7923,-3.7186,-3.6724,-3.5045,-3.4178,-3.393,-3.3057,-3.2713,-3.278,-3.2691,0.0,0.0,0.0,-3.4654,-3.4035,-3.3498,-3.2907,-3.2329,-3.265,-3.2629,-3.2323,-3.2044,-3.1997,-3.2094,-3.1156,-3.0762,-3.0784,0.0,0.0,-2.9321,-2.9965,-2.9997,-2.9518,-3.0017,-3.0147,-2.9842,-2.9484,-2.9058,-2.8573,-2.7987,-2.7403,-2.685,-2.644,-2.5413,-2.3508,-2.2562,-2.1195,0.0,0.0,0.0,0.0,0.0,0.0,0.0,0.0,0.0,0.0,0.0,-2.3482,-2.3416,0.0,0.0,0.0,-2.8132,-2.9673,-3.0989,-3.0812,0.0,0.0,0.0,0.0,0.0,0.0,0.0,-4.007,-4.0352,-4.0842,-4.2148,-4.2915,-4.3386,-4.3507,-4.334,-4.2926,-4.2184,0.0,-4.1365,-4.1236,-4.1097,-4.1195,-4.1502,-4.0849,-4.042,-4.0774,-4.0318,-3.9868,-3.9772,-3.9063,-3.8475,-3.8117,-3.8106,-3.8047,-3.7899,-3.7541,-3.7204,-3.6488,-3.6316,-3.6172,-3.5798,-3.5435,-3.5172,-3.9505,-3.8818,-3.9715,-3.9715,-3.9062,-3.751,-3.6291,-3.5288,-3.3614,-3.3411,-3.4192,-3.305,-3.3154,-3.433,-3.5309,0.0,-3.5232,-3.5554,-3.5149,-3.4288,-3.2846,-3.2362,-3.273,-3.2117,-3.1817,-3.1811,-3.1303,-3.1204,-3.1256,-3.0563,-3.0292,-3.0489,-3.0338,-2.9971,-2.9619,-2.9731,-2.9493,-2.8916,-2.9147,-2.9142,-2.8661,-2.8157,-2.7842,-2.7709,-2.7242,-2.6905,-2.6824,-2.6013,-2.5223,-2.4486,-2.3171,-2.1602,-1.9899,0.0,0.0,0.0,0.0,0.0,0.0,0.0,0.0,0.0,0.0,0.0,0.0,0.0,0.0,0.0,-2.9959,0.0,-3.2549,-3.1899,0.0,0.0,0.0,-3.4494,-3.5927,-3.7209,-3.8378,-3.9313,0.0,0.0,-4.1865,0.0,-4.3122,-4.3405,-4.3589,-4.3423,-4.2645,-4.1329,-4.0432,-4.0372,-3.9613,-3.9457,-4.0515,-3.9897,-3.9196,-3.9023,-3.8205,-3.7963,-3.8027,-3.7323,-3.6458,-3.6344,-3.6416,-3.6536,-3.6311,-3.6297,-3.6433,-3.6822,-3.6527,-3.6169,-3.6014,-3.5518,-3.5093,-3.8959,-3.8198,-3.7871,-3.7873,-3.8162,-3.8127,-3.7434,-3.6314,-3.5121,-3.4583,-3.4426,-3.3675,-3.3722,-3.4426,-3.4802,-3.4567,-3.3845,-3.4426,-3.4303,-3.3548,-3.2593,-3.1909,-3.1559,-3.0825,-3.0359,-3.0164,-2.9834,-2.9694,-2.9806,-2.9386,-2.9063,-2.8852,-2.868,-2.881,-2.9302,-2.9091,-2.8628,-2.7851,-2.7919,-2.7868,-2.763,-2.7364,-2.7175,-2.6985,-2.6577,-2.622,-2.5955,-2.5453,-2.4625,-2.3478,-2.2754,-2.1658,-2.0018,-1.8953,0.0,0.0,0.0,0.0,0.0,0.0,0.0,0.0,0.0,-2.6597,-2.5353,0.0,-3.0084,0.0,-3.1581,-3.3082,-3.3779,-3.3393,0.0,0.0,-3.5205,-3.5649,-3.7281,-3.7686,-3.8014,-3.8561,-3.882,-3.9118,-3.9527,-3.9763,-3.9999,-4.0196,-4.1564,-4.2047,-4.0661,-4.0225,-3.9738,-3.9138,-3.8779,-3.8727,-3.8877,-3.8616,-3.8259,-3.8242,-3.8053,-3.7752,-3.7282,-3.6969,-3.6499,-3.587,-3.578,-3.5674,-3.5302,-3.5377,-3.5254,-3.4832,-3.4719,-3.4674,-3.4486,-3.4024,-3.373,-3.7375,-3.6618,-3.6531,-3.6315,-3.6086,-3.6533,-3.6359,-3.5636,-3.4649,-3.404,-3.3832,-3.3424,-3.3381,-3.363,-3.3673,-3.3478,-3.3073,-3.3437,-3.3199,-3.2584,-3.1765,-3.1102,-3.0613,-2.9676,-2.9224,-2.9176,-2.8972,-2.8766,-2.861,-2.8481,-2.8235,-2.7815,-2.7617,-2.7644,-2.7867,-2.788,-2.7657,-2.7162,-2.7095,-2.6892,-2.6633,-2.6577,-2.6371,-2.6082,-2.5721,-2.5441,-2.5229,-2.4659,-2.3913,-2.2984,-2.2441,-2.1543,-2.0202,-1.9113,-1.8666,0.0,0.0,0.0,0.0,0.0,0.0,0.0,0.0,0.0,0.0,0.0,-3.076,-3.141,-3.2996,-3.4266,-3.4973,-3.5027,-3.5291,-3.5995,-3.5521,-3.5538,-3.6631,-3.6621,-3.6868,-3.7607,-3.7639,-3.7791,-3.8341,-3.8435,-3.8278,-3.8015,-3.9251,-3.9971,-3.9301,-3.8964,-3.856,-3.7935,-3.7604,-3.7376,-3.7292,-3.7258,-3.721,-3.7076,-3.6581,-3.6191,-3.5848,-3.5549,-3.5094,-3.4539,-3.4693,-3.4818,-3.445,-3.451,-3.443,-3.4005,-3.3626,-3.3629,-3.3838,-3.3584,-3.3401,-3.5465,-3.4779,-3.5193,-3.4781,-3.3695,-3.3914,-3.41,-3.4212,-3.3239,-3.2846,-3.2846,-3.2618,-3.2522,-3.2582,-3.2327,-3.2272,-3.2289,-3.2091,-3.1858,-3.1516,-3.0664,-3.0106,-2.9772,-2.8781,-2.8381,-2.8522,-2.8471,-2.8183,-2.7789,-2.7855,-2.763,-2.7095,-2.6973,-2.6633,-2.6151,-2.6564,-2.6701,-2.6508,-2.6289,-2.6082,-2.5758,-2.5758,-2.5548,-2.5182,-2.4802,-2.4576,-2.4564,-2.3875,-2.3212,-2.27,-2.2022,-2.127,-2.0292,-1.9527,-1.9212,0.0,-1.9723,0.0,0.0,0.0,0.0,0.0,0.0,0.0,0.0,-2.9574,-3.1129,-3.3076,-3.4222,-3.511,-3.5685,-3.6212,-3.6291,-3.577,-3.5198,-3.4912,-3.503,-3.5118,-3.5533,-3.6484,-3.6589,-3.6926,-3.7449,-3.7637,-3.7261,-3.658,-3.6932,-3.7537,-3.7846,-3.7609,-3.7254,-3.6869,-3.6288,-3.6061,-3.6076,-3.615,-3.6134,-3.5701,-3.501,-3.4149,-3.4342,-3.3833,-3.3269,-3.3142,-3.3547,-3.3868,-3.3591,-3.3651,-3.3668,-3.3412,-3.2925,-3.2786,-3.3429,-3.3422,-3.3445,-3.4452,-3.352,-3.2765,-3.2453,-3.2395,-3.186,-3.22,-3.3043,-3.2386,-3.2055,-3.1982,-3.1603,-3.1636,-3.1788,-3.1042,-3.0605,-3.0289,-2.9693,-2.9744,-3.021,-2.9907,-2.9478,-2.8918,-2.8528,-2.8237,-2.7934,-2.7802,-2.7656,-2.751,-2.731,-2.696,-2.6552,-2.6233,-2.5886,-2.5523,0.0,0.0,0.0,-2.537,-2.5217,-2.5158,-2.5004,-2.4802,-2.4622,-2.4105,0.0,-2.3801,-2.3213,-2.255,-2.1919,-2.1407,0.0,0.0,0.0,0.0,0.0,0.0,0.0,0.0,0.0,0.0,0.0,-2.8716,-2.9226,-2.9439,-3.1619,-3.3334,-3.4061,-3.5031,-3.5416,-3.4976,-3.4889,-3.4898,-3.492,-3.4662,-3.4604,-3.4824,-3.5354,-3.5613,-3.5222,-3.568,-3.5925,-3.5607,-3.5489,-3.5459,-3.5274,-3.5348,-3.5489,-3.5621,-3.6133,-3.6193,-3.5627,-3.5419,-3.5459,-3.5688,-3.5404,-3.5082,-3.4838,-3.4457,-3.3962,-3.3592,-3.3452,-3.3115,-3.2818,-3.2872,-3.2969,-3.2681,-3.2798,-3.2773,-3.2134,-3.1885,-3.1981,-3.253,-3.2377,-3.2098,-3.3101,0.0,-3.1378,-3.0891,0.0,-2.9967,-3.0006,-3.0529,-3.0871,-3.0785,-3.0329,-3.0098,-3.05,-3.1275,-3.0059,-2.8936,-2.7915,-2.844,-2.8825,-2.8986,-2.8721,-2.8421,-2.809,-2.7751,-2.7527,-2.7377,-2.7188,-2.6998,-2.6863,-2.6714,-2.6346,-2.5861,-2.5664,-2.5394,-2.5052,-2.4766,-2.4766,-2.5052,-2.4826,-2.4683,-2.4599,-2.4299,-2.4093,-2.3897,0.0,0.0,0.0,0.0,0.0,0.0,0.0,0.0,0.0,0.0,0.0,-2.1101,-2.1661,-2.2488,-2.3777,-2.4694,-2.572,-2.6859,-2.8177,-2.9416,-3.0573,-3.2378,-3.3573,-3.3944,-3.4442,-3.4528,-3.421,-3.4322,-3.4336,-3.4278,-3.4192,-3.4245,-3.4587,-3.4864,-3.4952,-3.4823,-3.5081,-3.5169,-3.4898,-3.4494,-3.4332,-3.4317,-3.4266,-3.4083,-3.4024,-3.4817,-3.5326,-3.4861,-3.4721,-3.4589,-3.4347,-3.409,-3.3772,-3.3528,-3.2947,-3.2579,-3.2556,-3.2542,-3.2472,-3.2233,-3.2425,-3.2632,-3.2359,-3.2431,-3.2324,-3.1662,-3.1357,-3.1341,-3.1581,-3.142,-3.1382,-3.1571,-3.0875,-3.0225,-2.9608,-2.9041,-2.8456,-2.7991,-2.7765,0.0,0.0,0.0,-2.8605,-2.9261,-3.0368,-2.9034,-2.7523,-2.6177,-2.7629,-2.8055,-2.7721,-2.7399,-2.7296,-2.7201,-2.668,-2.6544,-2.6769,-2.6544,-2.6283,-2.6119,-2.6025,-2.5734,-2.5229,-2.517,-2.4981,-2.4646,-2.4273,-2.4273,-2.4562,-2.4418,-2.4273,-2.4043,-2.3677,-2.3372,-2.3224,-2.2702,-2.2424,-2.2424,-2.1608,-2.1105,-2.1001,-2.0386,-2.0226,-2.0547,-2.0891,-2.1286,-2.1643,-2.2259,-2.2834,-2.3304,-2.3998,-2.4885,-2.608,-2.7397,-2.897,-3.1065,-3.1972,-3.2583,-3.2904,-3.3099,-3.3127,-3.321,-3.3756,-3.3854,-3.3485,-3.3459,-3.3596,-3.3797,-3.3729,-3.3753,-3.4147,-3.4103,-3.4199,-3.4259,-3.3769,-3.3383,-3.3398,-3.3282,-3.3057,-3.2853,-3.3674,-3.4449,-3.4287,-3.3993,-3.3509,-3.3001,-3.2644,-3.2404,-3.2227,-3.1511,-3.1047,-3.1433,-3.1585,-3.1529,-3.132,-3.1801,-3.1935,-3.1744,-3.1591,-3.1527,-3.0858,-3.0596,-3.0441,-3.0228,-3.0156,-3.0283,-2.9904,-2.9513,-2.8599,-2.8241,-2.8205,-2.765,-2.6962,-2.6347,-2.7348,-2.7975,-2.8205,-2.784,-2.8049,-2.8562,-2.7513,-2.6843,-2.6564,-2.6362,-2.6293,0.0,-2.6161,-2.6124,-2.6082,-2.5568,-2.5592,-2.5975,-2.5362,-2.5306,-2.5639,-2.53,-2.5004,-2.4791,-2.4683,-2.4406,-2.4043,-2.3824,-2.3677,-2.3751,-2.374,-2.3593,-2.3446,-2.3224,-2.3001,-2.2756,-2.2009,-2.1513,-2.1376,-2.072,-2.0083,-1.9565,-1.9941,-2.0072,-1.9962,-2.0828,-2.1445,-2.1725,-2.2628,-2.3447,-2.3951,-2.4811,-2.5973,-2.7201,-2.757,-2.8192,-2.9267,-2.9987,-3.0443,-3.0801,-3.1212,-3.1509,-3.1805,-3.2356,-3.2497,-3.1946,-3.1937,-3.1994,-3.2009,-3.198,-3.2061,-3.2471,-3.2108,-3.2151,-3.2471,-3.2327,-3.2227,-3.2241,-3.2105,-3.2054,-3.1974,-3.2515,-3.3264,-3.355,-3.3093,-3.263,-3.2306,-3.2017,-3.1569,-3.1436,-3.0936,-3.0583,-3.0624,-3.0651,-3.0582,-3.0362,-3.0414,-3.0244,-2.9905,-2.96,-2.9385,-2.8812,-2.8612,-2.8503,-2.8459,-2.8177,-2.8244,-2.8834,-2.8139,-2.7405,-2.7037,-2.6838,-2.6282,-2.5673,-2.5058,-2.55,-2.5803,-2.5949,-2.6045,-2.6239,-2.6565,-2.6116,-2.597,-2.5887,-2.5645,-2.5618,-2.5758,-2.5758,-2.5758,-2.5734,-2.535,-2.5293,-2.5334,-2.4575,-2.4505,-2.5004,-2.4097,-2.3758,-2.4002,-2.3429,-2.3063,-2.3011,-2.2551,-2.2287,-2.2215,-2.2611,-2.2816,-2.2743,-2.2067,-2.1585,-2.1502,-2.0918,-2.0596,-2.0524,-1.9971,-1.9505,-1.9233,-1.9243,-1.9424,-1.9859,-2.0534,-2.1188,-2.1744,-2.2435,-2.295,-2.3167,-2.3992,-2.4908,-2.5645,-2.5973,-2.6251,-2.6788,-2.8351,-2.9421,-2.9784,-3.0062,-3.0337,-3.0705,-3.0939,-3.0993,-3.0936,-3.0556,-3.0528,-3.1096,-3.1096,-3.1244,-3.1641,-3.1443,-3.1377,-3.1707,-3.1228,-3.0872,-3.0895,-3.0684,-3.0684,-3.1274,-3.1061,-3.1133,-3.1797,-3.1597,-3.109,-3.0797,-3.0596,-3.0278,-3.0078,-2.9658,-2.951,-2.9659,-2.9835,-2.9754,-2.9563,-2.96,-2.9605,-2.9183,-2.9054,-2.8666,-2.8112,-2.7818,-2.7748,-2.7538,-2.7197,-2.711,-2.7777,-2.6901,-2.6395,-2.5943,-2.5548,-2.4945,-2.4455,-2.4043,-2.3897,-2.3824,-2.3897,-2.4418,-2.4848,-2.5063,-2.5111,-2.5135,-2.504,-2.5123,-2.5122,-2.5168,-2.5205,-2.5193,-2.5073,-2.4895,-2.4731,-2.4531,-2.3711,-2.3607,-2.4014,-2.2949,-2.2582,-2.2888,-2.2154,-2.1793,-2.1951,-2.1523,-2.1118,-2.1069,-2.1457,-2.1793,-2.188,-2.0986,-2.0462,-2.0298,-1.99,-1.9635,-1.9533,-1.9073,-1.8854,-1.8785,-1.8626,-1.8844,-1.9745,-2.0123,-2.0739,-2.1542,-2.1949,-2.2252,-2.2478,-2.3001,-2.3519,-2.3909,-2.4273,-2.4622,-2.4873,-2.6611,-2.8053,-2.8479,-2.8695,-2.9,-2.9289,-2.9366,-2.9518,-2.9685,-2.9318,-2.932,-3.0051,-3.0092,-3.0146,-3.056,-3.0427,-3.0319,-3.053,-3.0014,-2.9608,-2.9563,-2.9311,-2.9541,-3.0308,-2.9573,-2.9337,-2.9738,-3.0025,-2.9834,-2.9147,-2.9146,-2.908,-2.8812,-2.8531,-2.8584,-2.8852,-2.9013,-2.8933,-2.8624,-2.8684,-2.8604,-2.8357,-2.8203,-2.787,-2.7278,-2.6992,-2.6972,-2.6735,-2.6451,-2.6201,-2.6746,-2.6042,-2.577,-2.5241,-2.4599,-2.4032,-2.3666,-2.3508,-2.2927,-2.2553,-2.2638,-2.3751,-2.42,-2.4368,-2.4571,-2.456,-2.4322,-2.456,-2.4304,-2.3792,-2.4126,-2.4091,-2.3688,-2.3179,-2.319,-2.3398,-2.2479,-2.2207,-2.2754,-2.217,-2.1757,-2.1533,-2.121,-2.1047,-2.1101,-2.0988,-2.0966,-2.0966,-2.0338,-2.0229,-2.0625,-2.0554,-2.0237,-1.9713,-1.9252,-1.8913,-1.854,-1.8054,-1.7783,-1.7684,-1.818,-1.8708,-1.933,-1.9797,-2.0305,-2.0971,-2.1339,-2.1883,-2.2553,-2.2703,-2.2841,-2.3075,-2.3423,-2.379,-2.402,-2.4704,-2.548,-2.6116,-2.6521,-2.6917,-2.7194,-2.7726,-2.7993,-2.7983,-2.8219,-2.8297,-2.7985,-2.7814,-2.7947,-2.8265,-2.8279,-2.8014,-2.8635,-2.8568,-2.8565,-2.875,-2.8617,-2.8525,-2.8662,-2.8463,-2.8158,-2.8239,-2.845,-2.8752,-2.8592,-2.8421,-2.8265,-2.8186,-2.8132,-2.8119,-2.8186,-2.7974,-2.7615,-2.7637,-2.7165,-2.6924,-2.6494,-2.6045,-2.6012,-2.6037,-2.5834,-2.5632,-2.5538,-2.5467,-2.5396,-2.5664,-2.517,-2.5028,-2.4443,-2.3655,-2.3372,-2.2848,-2.2178,-2.1996,-2.1582,-2.123,-2.2052,-2.2756,-2.3309,-2.3892,-2.3952,-2.361,-2.3458,-2.3267,-2.3064,-2.305,-2.2888,-2.2684,-2.2284,-2.2168,-2.2291,-2.1371,-2.1237,-2.1738,-2.1218,-2.0642,-2.0174,-1.9689,-1.9551,-1.9776,-1.9412,-1.9211,-1.9201,-1.8901,-1.8764,-1.8844,-1.8944,-1.8874,-1.8506,-1.8211,-1.8064,-1.7906,-1.7674,-1.7529,-1.7548,-1.777,-1.8222,-1.8883,-1.9242,-1.9713,-2.0488,-2.0634,-2.1031,-2.1807,-2.1787,-2.2014,-2.2392,-2.2433,-2.2564,-2.2939,-2.33,-2.3718,-2.4308,-2.5177,-2.5988,-2.6483,-2.6615,-2.6722,-2.713,-2.7246,-2.7272,-2.7253,-2.7201,-2.7335,-2.759,-2.7403,-2.7323,-2.7723,-2.7656,-2.7656,-2.7868,-2.7802,-2.7669,-2.7736,-2.7669,-2.7616,-2.7536,-2.759,-2.7776,-2.8052,-2.8066,-2.7736,-2.7459,-2.7657,-2.7815,-2.7223,-2.7433,-2.739,-2.6905,-2.6552,-2.622,-2.5865,-2.5688,-2.5535,-2.5394,-2.5312,-2.5312,-2.5312,-2.4849,-2.4637,-2.5016,-2.4659,-2.4299,-2.3644,-2.2841,-2.2852,-2.2222,-2.1352,-2.1237,-2.0767,-2.0196,-2.0331,-2.0873,-2.1761,-2.2863,-2.3176,-2.2611,-2.1984,-2.1822,-2.2034,-2.1954,-2.184,-2.1638,-2.1421,-2.1224,-2.109,-2.0418,-2.0296,-2.0631,-2.0091,-1.9483,-1.901,-1.8486,-1.836,-1.8537,-1.8223,-1.8008,-1.8018,-1.7872,-1.7725,-1.7588,-1.7579,-1.7579,-1.751,-1.7314,-1.7254,-1.7185,-1.7116,-1.7125,-1.7116,-1.7047,-1.7422,-1.8173,-1.8311,-1.8826,-1.9716,-1.9812,-2.011,-2.0841,-2.0807,-2.1029,-2.1478,-2.1471,-2.1498,-2.1776,-2.2144,-2.2428,-2.2804,-2.3757,-2.4776,-2.5791,-2.5804,-2.5968,-2.6452,-2.644,-2.6602,-2.6683,-2.6739,-2.6943,-2.7121,-2.6832,-2.67,-2.6982,-2.7018,-2.7146,-2.7348,-2.7214,-2.7079,-2.7229,-2.7219,-2.7022,-2.6956,-2.6693,-2.684,-2.7406,-2.7443,-2.7142,-2.6959,-2.7102,-2.71,-2.6475,-2.6928,-2.704,-2.6371,-2.622,-2.6,-2.5594,-2.5465,-2.537,-2.5241,-2.5146,-2.498,-2.4696,-2.419,-2.3886,-2.4969,-2.4394,-2.3666,-2.2957,-2.2392,-2.2381,-2.2059,-2.1181,-2.0637,-2.0107,-1.9621,-1.8845,-1.8676,-1.9336,-2.1324,-2.2018,-2.1253,-2.0326,-2.0143,-2.0592,-2.0885,-2.0813,-2.0439,-2.0349,-2.027,-2.0091,-1.9588,-1.9168,-1.8765,-1.8802,-1.8492,-1.7872,-1.7881,-1.7872,-1.7773,-1.7823,-1.794,-1.7803,-1.752,-1.7304,-1.7166,-1.6821,-1.6751,-1.683,-1.6751,-1.6612,-1.6412,-1.6202,-1.6202,-1.6132,-1.6053,-1.6244,-1.6991,-1.6971,-1.7474,-1.8568,-1.8695,-1.9031,-1.9984,-1.9831,-1.9853,-2.0257,-2.0442,-2.0502,-2.0644,-2.122,-2.1581,-2.1651,-2.2179,-2.3132,-2.4519,-2.5193,-2.5535,-2.5487,-2.6066,-2.6218,-2.5992,-2.6245,-2.6452,-2.6445,-2.6131,-2.5929,-2.6029,-2.6611,-2.6799,-2.6892,-2.6918,-2.6867,-2.678,-2.6618,-2.6308,-2.6023,-2.5818,-2.5755,-2.6665,-2.6764,-2.6506,-2.6367,-2.6362,-2.6476,-2.6333,-2.622,-2.6082,-2.5873,-2.5664,-2.5511,-2.53,-2.5217,-2.504,-2.4862,-2.4779,-2.4519,-2.4061,-2.3735,-2.3316,-2.2369,-2.1973,-2.1817,-2.125,-2.0665,-2.0791,-2.0217,-1.9126,-1.8881,-1.8313,-1.7697,-1.7463,-1.7375,-1.7445,-1.8967,-1.9808,-2.0078,-1.958,-1.9449,-1.9525,-1.9495,-1.9332,-1.9026,-1.9053,-1.9043,-1.9069,-1.8812,-1.8472,-1.8192,-1.8066,-1.7872,-1.7598,-1.7235,-1.7097,-1.7019,-1.6959,-1.6899,-1.676,-1.6621,-1.6412,-1.6123,-1.5833,-1.5692,-1.5683,-1.6123,-1.6342,-1.6272,-1.6053,-1.5903,-1.5912,-1.5709,-1.5871,-1.6383,-1.6872,-1.734,-1.789,-1.7818,-1.8024,-1.8574,-1.8481,-1.8535,-1.9112,-1.9076,-1.9213,-1.9646,-2.0066,-2.0403,-2.0653,-2.1188,-2.1908,-2.2666,-2.3851,-2.48,-2.4879,-2.5247,-2.5487,-2.5523,-2.5664,-2.5734,-2.5697,-2.5689,-2.5822,-2.5779,-2.6121,-2.6108,-2.5729,-2.5586,-2.5585,-2.5552,-2.5483,-2.555,-2.5525,-2.5384,-2.5358,-2.547,-2.582,-2.585,-2.5737,-2.5711,-2.579,-2.571,-2.5815,-2.5714,-2.5213,-2.5021,-2.5011,-2.4833,-2.4656,-2.4553,-2.4389,-2.4248,-2.3886,-2.3475,-2.2926,-2.2457,-2.0715,-2.0411,-2.0451,-2.0036,-1.9316,-1.9442,-1.8786,-1.7697,-1.755,-1.7087,-1.6387,-1.6292,-1.6153,-1.6085,-1.6676,-1.7382,-1.8164,-1.861,-1.8825,-1.8553,-1.8426,-1.835,-1.8251,-1.8212,-1.8202,-1.825,-1.8056,-1.7784,-1.752,-1.7245,-1.6968,-1.6691,-1.6464,-1.6254,-1.6114,-1.6053,-1.6,-1.585,-1.57,-1.5551,-1.5346,-1.5133,-1.4911,-1.4911,-1.5417,-1.578,-1.5771,-1.5488,-1.5346,-1.5338,-1.5133,-1.5176,-1.5568,-1.611,-1.6602,-1.6945,-1.6759,-1.6972,-1.7512,-1.734,-1.7542,-1.8203,-1.8038,-1.8078,-1.8646,-1.9051,-1.9325,-1.9671,-2.0112,-2.061,-2.0924,-2.1987,-2.3064,-2.3582,-2.3955,-2.4283,-2.4517,-2.4725,-2.4675,-2.4587,-2.4888,-2.5098,-2.5049,-2.5122,-2.5025,-2.4572,-2.4615,-2.4511,-2.4583,-2.4568,-2.4595,-2.4633,-2.4432,-2.4192,-2.4089,-2.427,-2.4698,-2.4752,-2.4863,-2.4964,-2.5124,-2.5196,-2.5127,-2.4562,-2.441,-2.4426,-2.4321,-2.4121,-2.3937,-2.3777,-2.3546,-2.3177,-2.2671,-2.2069,-2.1587,-2.0369,-1.9838,-1.9971,-1.9281,-1.8422,-1.835,-1.7989,-1.7151,-1.6741,-1.6357,-1.5831,-1.5105,-1.4814,-1.503,-1.4838,-1.4903,-1.5553,-1.6945,-1.7622,-1.753,-1.7777,-1.7871,-1.7794,-1.7794,-1.7725,-1.7569,-1.7373,-1.7019,-1.6673,-1.6455,-1.6035,-1.5488,-1.5692,-1.5542,-1.4966,-1.5346,-1.5355,-1.5204,-1.5054,-1.4903,-1.484,-1.4633,-1.4418,-1.4489,-1.4497,-1.4561,-1.4561,-1.4497,-1.4418,-1.4425,-1.4201,-1.4201,-1.4537,-1.472,-1.5041,-1.5658,-1.5668,-1.6091,-1.691,-1.675,-1.6738,-1.7227,-1.7282,-1.737,-1.7802,-1.8251,-1.8532,-1.8728,-1.9044,-1.9358,-1.9431,-1.997,-2.0816,-2.1727,-2.2503,-2.2845,-2.3106,-2.3518,-2.3634,-2.334,-2.3694,-2.3586,-2.3345,-2.3682,-2.3948,-2.3983,-2.3935,-2.4006,-2.3965,-2.3825,-2.3628,-2.3391,-2.3356,-2.3331,-2.2946,-2.2706,-2.3224,-2.3634,-2.3905,-2.4111,-2.4171,-2.4316,-2.4177,-2.3814,-2.3585,-2.3589,-2.3508,-2.3243,-2.2956,-2.2775,-2.2592,-2.2296,-2.1698,-2.1129,-2.061,-1.8067,-1.7647,-1.7694,-1.7432,-1.6821,-1.6671,-1.628,-1.5599,-1.5105,-1.4775,-1.4448,-1.3784,-1.3536,-1.3513,-1.3228,-1.3096,-1.3314,-1.4187,-1.5162,-1.6161,-1.6534,-1.6625,-1.656,-1.6612,-1.6612,-1.6612,-1.6473,-1.6324,-1.6044,-1.5842,-1.5568,-1.5426,-1.5196,-1.5117,-1.4832,-1.4919,-1.4784,-1.4641,-1.4266,-1.4049,-1.3768,-1.3397,-1.3185,-1.3032,-1.3032,-1.3039,-1.3032,-1.3542,-1.3753,-1.3753,-1.3622,-1.3775,-1.4281,-1.4425,-1.4632,-1.4921,-1.4928,-1.496,-1.5336,-1.5572,-1.5833,-1.6254,-1.6473,-1.6848,-1.7361,-1.7676,-1.7979,-1.833,-1.8417,-1.8472,-1.8627,-1.8977,-1.9781,-2.1193,-2.1685,-2.1933,-2.2185,-2.2593,-2.2919,-2.316,-2.3309,-2.3309,-2.3202,-2.3333,-2.3179,-2.293,-2.2947,-2.2982,-2.2889,-2.302,-2.3059,-2.2936,-2.2873,-2.2787,-2.2616,-2.2515,-2.2769,-2.3091,-2.3268,-2.3424,-2.3496,-2.3377,-2.3227,-2.3013,-2.284,-2.2678,-2.2611,-2.233,-2.2014,-2.1698,-2.1485,-2.1085,-2.0665,-2.0227,-1.9931,-1.6607,-1.5929,-1.6011,-1.5698,-1.5229,-1.4928,-1.4598,-1.4129,-1.3608,-1.3324,-1.3112,-1.2673,-1.2452,-1.2271,-1.1739,-1.1605,-1.1822,-1.1992,-1.2825,-1.4351,-1.5328,-1.5559,-1.5608,-1.5869,-1.5991,-1.5921,-1.5842,-1.57,-1.5559,-1.5275,-1.4991,-1.4713,-1.4489,-1.4186,-1.3962,-1.3905,-1.3768,-1.3622,-1.3244,-1.2886,-1.2599,-1.2224,-1.2003,-1.1855,-1.1855,-1.1848,-1.1929,-1.2218,-1.2579,-1.2952,-1.2893,-1.3112,-1.3542,-1.3775,-1.392,-1.4201,-1.4353,-1.4497,-1.4569,-1.4935,-1.5133,-1.5401,-1.5771,-1.6219,-1.6736,-1.7065,-1.7517,-1.787,-1.7871,-1.7794,-1.7998,-1.8212,-1.8893,-1.9984,-2.0671,-2.1127,-2.1386,-2.1688,-2.1955,-2.2294,-2.2395,-2.2496,-2.2496,-2.2549,-2.239,-2.211,-2.2104,-2.2162,-2.2145,-2.2283,-2.2432,-2.2616,-2.2616,-2.2555,-2.2494,-2.2457,-2.2395,-2.2537,-2.2663,-2.2783,-2.2931,-2.265,-2.2462,-2.2045,-2.1758,-2.1564,-2.1461,-2.1273,-2.0952,-2.0643,-2.0468,-2.0402,-2.0216,-1.9845,-1.955,-1.5838,-1.4593,-1.4681,-1.4394,-1.3787,-1.3361,-1.3157,-1.2893,-1.2405,-1.2265,-1.2211,-1.181,-1.1582,-1.1304,-1.0423,-1.0277,-1.0745,-1.055,-1.0914,-1.215,-1.3415,-1.4388,-1.4957,-1.527,-1.5413,-1.5409,-1.5204,-1.5054,-1.4919,-1.4489,-1.4072,-1.3637,-1.3492,-1.3039,-1.2666,-1.2526,-1.2599,-1.2385,-1.1935,-1.1706,-1.1632,-1.126,-1.1037,-1.1037,-1.1037,-1.1037,-1.0962,-1.0812,-1.1111,-1.2003,-1.215,-1.2157,-1.2378,-1.2673,-1.3039,-1.339,-1.3833,-1.4129,-1.4425,-1.4497,-1.4633,-1.484,-1.5275,-1.5647,-1.6149,-1.6639,-1.6917,-1.7172,-1.7194,-1.7304,-1.7529,-1.7598,-1.7959,-1.8549,-1.961,-2.0336,-2.0744,-2.0854,-2.102,-2.1232,-2.1192,-2.1244,-2.1487,-2.1464,-2.1516,-2.1642,-2.1717,-2.1808,-2.1835,-2.1925,-2.2061,-2.2185,-2.2371,-2.2371,-2.2383,-2.2321,-2.2321,-2.2332,-2.2324,-2.2348,-2.2321,-2.2044,-2.1614,-2.1179,-2.0865,-2.0649,-2.0455,-2.0314,-2.0183,-2.0019,-1.9976,-1.9933,-1.9781,-1.9452,-1.9243,-1.3822,-1.3275,-1.3216,-1.3049,-1.2785,-1.2407,-1.2322,-1.2325,-1.1623,-1.1436,-1.1403,-1.0906,-1.0458,-1.0053,-0.9405,-0.9051,-0.923,-0.9466,-0.973,-1.0276,-1.1129,-1.2359,-1.3408,-1.3855,-1.4033,-1.4083,-1.3905,-1.3768,-1.392,-1.3404,-1.3112,-1.3046,-1.268,-1.2372,-1.1929,-1.1842,-1.1955,-1.19,-1.1198,-1.0726,-1.0576,-1.0363,-1.0143,-0.9997,-1.0143,-1.0143,-0.9992,-1.0067,-1.0293,-1.0887,-1.0962,-1.126,-1.1787,-1.1929,-1.215,-1.2592,-1.2966,-1.3258,-1.3404,-1.3912,-1.4194,-1.4346,-1.484,-1.5443,-1.5848,-1.6228,-1.6333,-1.6385,-1.6594,-1.7107,-1.7392,-1.7588,-1.7998,-1.8674,-1.9229,-1.9768,-2.0129,-2.0194,-2.0313,-2.0646,-2.0571,-2.0764,-2.1019,-2.1094,-2.0967,-2.1158,-2.1434,-2.1635,-2.1675,-2.1862,-2.1987,-2.2123,-2.2259,-2.2197,-2.2197,-2.2197,-2.2197,-2.2197,-2.2133,-2.1957,-2.178,-2.1516,-2.0971,-2.0453,-2.0346,-2.014,-1.9823,-1.9592,-1.9473,-1.9386,-1.932,-1.933,-1.9264,-1.9065,-1.8931,-1.2666,-1.2123,-1.2078,-1.1985,-1.1741,-1.1371,-1.1175,-1.1103,-1.0557,-1.0271,-1.0292,-0.9846,-0.9416,-0.9092,-0.8614,-0.8364,-0.8343,-0.8473,-0.8775,-0.9254,-0.9873,-1.0923,-1.199,-1.2534,-1.2742,-1.2834,-1.2837,-1.29,-1.29,-1.2452,-1.2224,-1.2077,-1.1706,-1.1279,-1.0563,-1.0574,-1.0506,-1.0302,-0.9771,-0.9345,-0.9357,-0.9074,-0.8856,-0.8703,-0.8856,-0.8851,-0.8856,-0.8927,-0.9382,-1.0067,-1.0293,-1.0438,-1.0893,-1.1111,-1.126,-1.1558,-1.2077,-1.2378,-1.2526,-1.2959,-1.3397,-1.3622,-1.4194,-1.4649,-1.5039,-1.5443,-1.5471,-1.5296,-1.5816,-1.6333,-1.676,-1.7254,-1.7803,-1.8134,-1.8549,-1.9019,-1.9671,-1.9868,-2.0064,-2.0248,-2.0377,-2.0431,-2.1031,-2.0967,-2.1019,-2.1135,-2.1411,-2.1474,-2.1463,-2.1726,-2.1862,-2.1937,-2.1949,-2.1949,-2.1886,-2.1886,-2.1874,-2.1874,-2.1612,-2.1474,-2.1348,-2.1031,-2.0571,-2.0183,-1.9911,-1.9649,-1.9341,-1.9019,-1.8818,-1.8741,-1.8674,-1.8664,-1.8664,-1.8741,-1.8596,-1.1765,-1.0837,-1.1009,-1.0882,-1.0498,-1.0211,-0.9942,-0.9653,-0.9324,-0.913,-0.9022,-0.8714,-0.8473,-0.8238,-0.7917,-0.7844,-0.7911,-0.7669,-0.7947,-0.8456,-0.9023,-0.9764,-1.0466,-1.1454,-1.1784,-1.1839,-1.1992,-1.1985,-1.1832,-1.1556,-1.1199,-1.0879,-1.0519,-0.984,-0.9249,-0.8968,-0.8724,-0.8505,-0.8144,-0.7825,-0.7767,-0.7576,-0.758,-0.7505,-0.7509,-0.7593,-0.7685,-0.7711,-0.8179,-0.9451,-0.9567,-0.9536,-0.9691,-0.998,-1.0232,-1.0467,-1.0995,-1.1403,-1.1626,-1.1929,-1.2372,-1.2739,-1.3171,-1.3622,-1.416,-1.4433,-1.4474,-1.4355,-1.4752,-1.5338,-1.5912,-1.6788,-1.7263,-1.7373,-1.7423,-1.8094,-1.8998,-1.9615,-1.9802,-1.9977,-2.0248,-2.0506,-2.0828,-2.1008,-2.1135,-2.0688,-2.0955,-2.1019,-2.1071,-2.121,-2.1348,-2.1434,-2.1498,-2.1572,-2.1572,-2.1572,-2.1498,-2.1423,-2.1019,-2.0828,-2.0892,-2.0635,-2.0248,-1.9922,-1.966,-1.933,-1.9008,-1.8674,-1.8405,-1.8549,-1.8741,-1.8395,-1.8114,-1.8327,-1.8327,-0.9453,-0.8954,-0.9069,-0.9076,-0.8885,-0.8806,-0.8869,-0.8959,-0.8521,-0.8403,-0.8434,-0.8191,-0.7706,-0.7271,-0.7176,-0.7034,-0.6894,-0.6976,-0.7334,-0.771,-0.7816,-0.7992,-0.8662,-0.9941,-1.0847,-1.0867,-1.0532,-1.0501,-1.0501,-1.0137,-0.9694,-0.9469,-0.9332,-0.8871,-0.8066,-0.7762,-0.7642,-0.7292,-0.6933,-0.6508,-0.6244,-0.6503,-0.6587,-0.6434,-0.643,-0.6569,-0.666,-0.66,-0.667,-0.7053,-0.7634,-0.806,-0.8189,-0.8259,-0.8709,-0.9273,-0.9595,-1.0115,-1.0651,-1.095,-1.1391,-1.1848,-1.2285,-1.2879,-1.3609,-1.3637,-1.3665,-1.3708,-1.4019,-1.4617,-1.5417,-1.6026,-1.6376,-1.6515,-1.6489,-1.6775,-1.7627,-1.8377,-1.8865,-1.9274,-1.9407,-1.9649,-2.0172,-2.0118,-2.0172,-2.0237,-2.0366,-2.0495,-2.056,-2.07,-2.0828,-2.0967,-2.1031,-2.1031,-2.0914,-2.0903,-2.0764,-2.0688,-2.0366,-2.0096,-2.0107,-2.0053,-1.966,-1.9473,-1.9417,-1.9008,-1.8529,-1.8596,-1.8385,-1.8596,-1.8607,-1.8182,-1.7901,-1.8046,-1.7852,-0.8401,-0.8067,-0.8103,-0.8031,-0.786,-0.7705,-0.7637,-0.7627,-0.7544,-0.7414,-0.7342,-0.7198,-0.6894,-0.6479,-0.6461,-0.6354,-0.6218,-0.6354,-0.6548,-0.6806,-0.6863,-0.6929,-0.7113,-0.815,-0.8981,-0.9254,-0.9109,-0.9057,-0.899,-0.8672,-0.8308,-0.8159,-0.8096,-0.7525,-0.6821,-0.6577,-0.6187,-0.5832,-0.5553,-0.5216,-0.52,-0.5359,-0.5512,-0.5365,-0.5369,-0.5387,-0.5552,-0.5461,-0.5384,-0.55,-0.5899,-0.6437,-0.6972,-0.7154,-0.7543,-0.7957,-0.8378,-0.868,-0.9145,-0.9674,-1.0196,-1.0801,-1.1242,-1.1861,-1.2399,-1.2673,-1.2799,-1.3004,-1.3382,-1.3985,-1.4776,-1.5046,-1.5313,-1.5596,-1.5658,-1.5956,-1.663,-1.7323,-1.8086,-1.8522,-1.8714,-1.8865,-1.911,-1.933,-1.9462,-1.9639,-2.0107,-2.0237,-2.0107,-2.0172,-2.0302,-2.0431,-2.0495,-2.0442,-2.0248,-2.0107,-1.9901,-1.9759,-1.9497,-1.9299,-1.9243,-1.9121,-1.9008,-1.8977,-1.9003,-1.8509,-1.8104,-1.8162,-1.7959,-1.7354,-1.7217,-1.7482,-1.7482,-1.7079,-1.6872,-0.7592,-0.728,-0.7206,-0.7047,-0.6856,-0.6559,-0.6277,-0.6156,-0.6272,-0.6083,-0.5917,-0.5997,-0.5826,-0.572,-0.5782,-0.5785,-0.5716,-0.5709,-0.5821,-0.5879,-0.5895,-0.5944,-0.6128,-0.6427,-0.6886,-0.7333,-0.7633,-0.7718,-0.7646,-0.7328,-0.7182,-0.6974,-0.6832,-0.6287,-0.5613,-0.5277,-0.4992,-0.4511,-0.4373,-0.4261,-0.4333,-0.4351,-0.4351,-0.4278,-0.4349,-0.4163,-0.4152,-0.4054,-0.401,-0.3955,-0.4056,-0.467,-0.5526,-0.6201,-0.6517,-0.6587,-0.6816,-0.7153,-0.7621,-0.8156,-0.8761,-0.9437,-0.9825,-1.0432,-1.1037,-1.1254,-1.1403,-1.1996,-1.2512,-1.3258,-1.376,-1.4209,-1.4386,-1.4561,-1.4791,-1.5267,-1.579,-1.6201,-1.676,-1.7754,-1.8086,-1.8395,-1.8654,-1.8931,-1.8988,-1.91,-1.9617,-1.9846,-1.9695,-1.9608,-1.9717,-1.9749,-1.977,-1.9901,-1.9759,-1.9607,-1.9399,-1.9062,-1.8818,-1.8568,-1.8502,-1.8639,-1.8685,-1.8645,-1.8522,-1.7996,-1.7687,-1.7707,-1.7239,-1.6237,-1.6385,-1.7217,-1.6872,-1.6035,-1.5948,-0.5949,-0.5702,-0.5423,-0.5269,-0.5186,-0.4852,-0.4709,-0.4686,-0.4752,-0.4689,-0.4678,-0.4632,-0.4748,-0.4745,-0.5047,-0.5115,-0.4983,-0.4916,-0.4913,-0.4887,-0.4826,-0.4833,-0.4908,-0.4882,-0.5203,-0.5647,-0.6124,-0.6472,-0.6594,-0.651,-0.6029,-0.5755,-0.5752,-0.5306,-0.4577,-0.418,-0.3931,-0.3394,-0.3328,-0.3343,-0.3215,-0.3225,-0.3227,-0.3227,-0.3299,-0.3034,-0.2492,-0.2177,-0.1911,-0.1704,-0.1993,-0.2478,-0.3161,-0.3858,-0.4556,-0.5123,-0.5175,-0.5594,-0.6367,-0.6454,-0.7076,-0.7851,-0.8232,-0.8689,-0.9296,-0.9518,-0.9728,-1.0456,-1.1421,-1.2338,-1.2372,-1.2976,-1.3417,-1.3401,-1.3566,-1.4109,-1.4261,-1.456,-1.5031,-1.6195,-1.7048,-1.7997,-1.8198,-1.8374,-1.8415,-1.8572,-1.8908,-1.9062,-1.8892,-1.8828,-1.8935,-1.8977,-1.8977,-1.92,-1.9323,-1.9159,-1.8996,-1.8609,-1.8284,-1.7869,-1.7905,-1.8301,-1.8366,-1.7419,-1.7434,-1.7436,-1.7225,-1.6983,-1.6642,-1.5816,-1.6423,-1.712,-1.6251,-1.5323,-1.5564,-0.5017,-0.4758,-0.4287,-0.4151,-0.4084,-0.3823,-0.3689,-0.3623,-0.362,-0.3699,-0.3898,-0.4038,-0.4134,-0.4304,-0.4528,-0.4273,-0.3705,-0.3961,-0.3895,-0.3685,-0.3589,-0.3663,-0.3695,-0.3637,-0.3808,-0.4103,-0.4462,-0.4987,-0.5454,-0.5119,-0.4857,-0.4716,-0.4716,-0.4172,-0.3349,-0.3042,-0.2684,-0.2281,-0.2149,-0.2082,-0.1945,-0.2013,-0.1879,-0.1947,-0.1816,-0.1556,-0.1167,-0.0762,-0.0563,-0.0429,-0.0511,-0.0812,-0.1185,-0.1707,-0.2695,-0.3663,-0.3997,-0.4387,-0.5222,-0.5372,-0.5746,-0.6049,-0.6485,-0.708,-0.7536,-0.7829,-0.8005,-0.8738,-0.9259,-1.0096,-1.0073,-1.1247,-1.152,-1.1416,-1.1861,-1.253,-1.3016,-1.3284,-1.3791,-1.4494,-1.5443,-1.6492,-1.7757,-1.7855,-1.781,-1.8049,-1.8263,-1.8183,-1.7998,-1.7967,-1.7967,-1.8124,-1.8187,-1.8247,-1.8301,-1.7931,-1.7915,-1.7668,-1.7327,-1.6994,-1.6515,-1.6541,-1.5891,-1.4962,-1.5379,-1.6158,-1.5446,-1.4706,-1.501,-1.5274,-1.5086,-1.5016,-1.4913,-1.4844,-1.4849,-0.424,-0.402,-0.3586,-0.3261,-0.3058,-0.2977,-0.2783,-0.2661,-0.2777,-0.2919,-0.3177,-0.3432,-0.3643,-0.3758,-0.3559,-0.3007,-0.1831,-0.2573,-0.2653,-0.2405,-0.2277,-0.2369,-0.2408,-0.2447,-0.2536,-0.2703,-0.2549,-0.3222,-0.4102,-0.3971,-0.3763,-0.3701,-0.356,-0.3086,-0.235,-0.2016,-0.1478,-0.1075,-0.0739,-0.0739,-0.0604,-0.0467,-0.0334,-0.0268,-0.0067,0.0136,0.055,0.1104,0.1121,0.1138,0.1007,0.0867,0.0653,0.0436,-0.0518,-0.2058,-0.3032,-0.3699,-0.3854,-0.3749,-0.3674,-0.3847,-0.4576,-0.5208,-0.5891,-0.6146,-0.6585,-0.6984,-0.7457,-0.7797,-0.8179,-0.8871,-0.926,-0.9408,-0.976,-1.0386,-1.0763,-1.1216,-1.1639,-1.2484,-1.3616,-1.4629,-1.5613,-1.6608,-1.6495,-1.6596,-1.6799,-1.685,-1.6747,-1.6864,-1.6989,-1.7225,-1.7348,-1.7387,-1.7056,-1.6307,-1.629,-1.6188,-1.5816,-1.5408,-1.4811,-1.4292,-1.3655,-1.3428,-1.3564,-1.4067,-1.3215,-1.2981,-1.3696,-1.3906,-1.3233,-1.3186,-1.3697,-1.366,-1.3523,-0.3314,-0.3306,-0.3081,-0.2462,-0.1742,-0.1772,-0.1586,-0.1483,-0.2027,-0.2273,-0.2349,-0.2514,-0.2684,-0.2694,-0.2125,-0.1328,-0.0838,-0.0969,-0.1347,-0.1223,-0.1102,-0.1107,-0.1057,-0.0955,-0.1286,-0.1437,-0.1065,-0.1677,-0.2684,-0.3021,-0.3021,-0.2818,-0.2415,-0.1944,-0.1335,-0.1005,-0.0739,-0.0403,-0.0134,0.02,0.0665,0.0849,0.1112,0.1324,0.1331,0.1467,0.2217,0.2902,0.3279,0.2863,0.2875,0.277,0.2679,0.3054,0.2474,0.0878,-0.0954,-0.2513,-0.2088,-0.1549,-0.1248,-0.1554,-0.2002,-0.2712,-0.3526,-0.4473,-0.4965,-0.5315,-0.5678,-0.5839,-0.6102,-0.6859,-0.7294,-0.7194,-0.698,-0.7109,-0.748,-0.8122,-0.8659,-0.9241,-0.9918,-1.1631,-1.302,-1.4182,-1.5098,-1.521,-1.5249,-1.5142,-1.5139,-1.4971,-1.5712,-1.5962,-1.6068,-1.6076,-1.5899,-1.5187,-1.4574,-1.4606,-1.4084,-1.3745,-1.3332,-1.2868,-1.2862,-1.2672,-1.2586,-1.2451,-1.2243,-1.2372,-1.2854,-1.2803,-1.2407,-1.2631,-1.299,-1.2713,-1.2398,-0.1963,-0.2036,-0.1656,-0.1213,-0.0819,-0.0758,-0.0821,-0.1004,-0.1366,-0.1579,-0.1602,-0.1613,-0.1655,-0.1563,-0.0815,-0.0232,0.0115,-0.0,-0.012,-0.0241,-0.0121,-0.0182,-0.037,-0.025,-0.0253,-0.0388,-0.0463,-0.0604,-0.1343,-0.1542,-0.1611,-0.1612,-0.1274,-0.0797,-0.0198,0.02,0.0656,0.0969,0.1214,0.1343,0.1594,0.1772,0.1957,0.2173,0.211,0.2515,0.3132,0.3603,0.4119,0.3934,0.4026,0.3978,0.4018,0.4232,0.4155,0.3395,0.2559,0.1191,-0.0215,0.0428,0.0574,0.0506,0.0289,-0.0,-0.0939,-0.1707,-0.2328,-0.2264,-0.2572,-0.2949,-0.3389,-0.3835,-0.403,-0.4053,-0.4053,-0.4315,-0.4409,-0.4626,-0.5142,-0.5683,-0.6227,-0.7591,-0.9325,-1.1409,-1.2435,-1.2981,-1.2402,-1.1717,-1.1801,-1.1915,-1.3099,-1.4598,-1.4582,-1.4571,-1.4432,-1.4031,-1.3001,-1.2663,-1.1903,-1.1658,-1.1836,-1.1684,-1.0939,-1.0933,-1.0933,-1.0939,-1.1058,-1.1389,-1.1523,-1.1659,-1.1715,-1.1861,-1.1904,-1.1892,-1.158,-0.0531,-0.0604,-0.081,-0.0561,-0.0061,0.0124,-0.0062,-0.0428,-0.0544,-0.0595,-0.0585,-0.0582,-0.0574,-0.0507,0.0112,0.0564,0.0563,0.0871,0.0764,0.0708,0.0654,0.0544,0.0491,0.0557,0.0562,0.0447,0.0387,0.0326,0.0394,0.0264,-0.0,-0.0403,-0.0201,0.0331,0.0978,0.1501,0.1943,0.2365,0.2514,0.2698,0.2833,0.2938,0.3003,0.3134,0.3204,0.3413,0.3801,0.4298,0.4693,0.4807,0.515,0.5179,0.5055,0.5259,0.5252,0.49,0.4607,0.4066,0.2651,0.2332,0.2289,0.2167,0.1948,0.167,0.1252,0.0961,0.0607,0.0067,0.0066,-0.0194,-0.0446,-0.0945,-0.1114,-0.1216,-0.1197,-0.1476,-0.1684,-0.1583,-0.1164,-0.1039,-0.1568,-0.2424,-0.4615,-0.7886,-0.9616,-1.0458,-0.9848,-0.845,-0.8305,-0.8477,-0.9365,-1.0686,-0.9545,-0.9438,-0.9756,-0.998,-0.9958,-1.0212,-0.9423,-0.8685,-0.8192,-0.7969,-0.7352,-0.7761,-0.8483,-0.7657,-0.6632,-0.8493,-1.0244,-1.058,-1.0866,-1.0748,-1.0757,-1.0631,-1.0562,0.1071,0.0793,-0.1171,-0.083,0.0826,0.086,0.0636,0.0412,0.0573,0.0681,0.0679,0.0733,0.0395,0.028,0.0785,0.1178,0.1236,0.1628,0.1528,0.1368,0.133,0.134,0.1286,0.1348,0.1476,0.1608,0.1504,0.1566,0.1753,0.1732,0.1243,0.0669,0.1064,0.1381,0.1871,0.254,0.2959,0.3404,0.3636,0.3929,0.4076,0.4249,0.4523,0.48,0.4891,0.5036,0.5243,0.5519,0.5731,0.5706,0.6125,0.6258,0.6043,0.6246,0.6108,0.6024,0.6197,0.578,0.5108,0.4483,0.4411,0.4024,0.3496,0.3134,0.3006,0.2018,0.1611,0.1815,0.2069,0.1676,0.1404,0.1259,0.1234,0.1145,0.1171,0.1297,0.1325,0.1912,0.2385,0.3282,0.2965,0.191,0.1239,-0.1813,-0.523,-0.6244,-0.5296,-0.3904,-0.4521,-0.4775,-0.5195,-0.5403,-0.3484,-0.2978,-0.3141,-0.3761,-0.5341,-0.56,-0.5061,-0.4203,-0.3408,-0.3356,-0.4287,-0.4039,-0.4498,-0.3369,-0.3125,-0.5493,-0.7683,-0.9286,-0.9585,-0.822,-0.7814,-0.7689,-0.8122,0.1679,0.1961,0.0909,0.0743,0.1088,0.1154,0.1094,0.097,0.1072,0.1402,0.1681,0.1512,0.1456,0.14,0.1289,0.157,0.1802,0.1915,0.2052,0.2065,0.2026,0.1914,0.1916,0.2096,0.2216,0.2285,0.2372,0.2519,0.2591,0.2861,0.3003,0.2735,0.2713,0.2877,0.3261,0.364,0.3932,0.4098,0.434,0.4472,0.4358,0.4649,0.4858,0.4798,0.4808,0.4861,0.5052,0.5474,0.5808,0.621,0.6604,0.6777,0.6862,0.7044,0.7044,0.6911,0.7233,0.731,0.6871,0.6216,0.5657,0.5675,0.5275,0.4955,0.4955,0.4817,0.4553,0.4505,0.418,0.3776,0.3837,0.3686,0.3477,0.3363,0.3439,0.3686,0.4036,0.4479,0.5026,0.5468,0.5967,0.5815,0.5352,0.4671,0.1065,-0.184,-0.06,0.0292,-0.0281,-0.0599,-0.0841,-0.0524,0.1239,0.0831,0.049,-0.0353,-0.1193,-0.0871,-0.0608,-0.0149,0.0341,-0.1415,-0.2078,-0.1471,-0.0871,-0.0554,-0.1179,-0.3177,-0.4642,-0.5591,-0.5216,-0.4178,-0.4164,-0.4814,-0.5169,0.2347,0.2738,0.2521,0.2074,0.1575,0.1552,0.149,0.1408,0.1572,0.1794,0.2128,0.1959,0.2015,0.2017,0.1906,0.1906,0.2194,0.2345,0.2483,0.249,0.249,0.2432,0.2548,0.2721,0.2954,0.2915,0.3179,0.3392,0.3607,0.3841,0.4228,0.4562,0.461,0.4645,0.4389,0.478,0.496,0.4949,0.5027,0.5058,0.4849,0.5073,0.5238,0.5093,0.51,0.5194,0.5527,0.5948,0.633,0.6787,0.7171,0.7498,0.7677,0.7844,0.7962,0.8117,0.8247,0.8491,0.8015,0.7249,0.6671,0.669,0.6766,0.6778,0.7056,0.7186,0.6649,0.6478,0.6297,0.6067,0.5899,0.5451,0.5242,0.5053,0.554,0.5858,0.6056,0.6475,0.7009,0.7537,0.7792,0.7776,0.7427,0.67,0.4955,0.2419,0.3234,0.409,0.4213,0.3995,0.3964,0.4531,0.5691,0.4586,0.3197,0.3555,0.3967,0.4464,0.4496,0.3795,0.342,0.1893,0.1934,0.3634,0.3784,0.2516,0.2341,0.2551,0.081,-0.1365,-0.1152,-0.1204,-0.2174,-0.273,-0.1947,0.3186,0.2907,0.2905,0.2798,0.2635,0.2298,0.2021,0.1908,0.224,0.2352,0.2294,0.2294,0.2238,0.2238,0.2183,0.2406,0.2742,0.2919,0.2983,0.2936,0.3109,0.3205,0.3317,0.349,0.3725,0.3974,0.4297,0.4594,0.4827,0.5243,0.576,0.6226,0.6319,0.6147,0.5354,0.5814,0.6059,0.6059,0.6218,0.6159,0.5941,0.5996,0.6041,0.5892,0.5982,0.6023,0.6223,0.6865,0.7247,0.7537,0.8327,0.8622,0.8525,0.8761,0.8831,0.8844,0.897,0.9157,0.928,0.8235,0.7965,0.7948,0.8078,0.8114,0.8005,0.8045,0.8184,0.8035,0.7725,0.7292,0.706,0.6961,0.6941,0.7006,0.7543,0.7652,0.7818,0.8022,0.8448,0.8736,0.8691,0.8621,0.8442,0.8079,0.7397,0.6693,0.7243,0.7568,0.7501,0.7536,0.7196,0.7393,0.8159,0.7692,0.6744,0.8354,0.9177,0.9633,0.8928,0.7432,0.7388,0.7154,0.7705,0.8826,0.7954,0.6336,0.7827,0.9471,0.5983,0.2462,0.1321,0.0829,-0.0152,-0.0644,0.0046,0.4015,0.4073,0.3741,0.3741,0.3796,0.313,0.2685,0.2685,0.3239,0.3461,0.3352,0.3408,0.3186,0.2961,0.2679,0.2901,0.3577,0.34,0.34,0.3852,0.3852,0.3849,0.4015,0.4291,0.4453,0.4673,0.5113,0.566,0.5882,0.6413,0.6748,0.7138,0.7609,0.7356,0.6947,0.6972,0.7009,0.7069,0.7176,0.7182,0.681,0.6902,0.6844,0.6623,0.6839,0.6999,0.7153,0.7901,0.8321,0.8555,0.9391,0.9493,0.9384,0.954,0.9613,0.9596,0.974,1.0062,1.0364,1.014,0.9918,0.9686,0.9457,0.9444,0.9518,0.9394,0.9449,0.9445,0.9109,0.9066,0.9669,0.9459,0.9336,0.9037,0.9197,0.8945,0.8972,0.9201,0.9477,0.9625,0.9641,0.8625,0.8144,0.7442,0.6839,0.7163,0.7345,0.8139,0.8314,0.8964,0.9092,0.9062,0.9405,0.9635,0.9993,1.0376,1.0532,1.0351,1.0005,0.9219,0.9736,1.0711,1.0399,0.9921,1.0094,1.0263,0.9904,0.9382,0.8257,0.6171,0.539,0.3769,0.2338,0.1811,0.1799,0.4631,0.4846,0.446,0.4408,0.4463,0.3796,0.3461,0.3572,0.407,0.4239,0.4187,0.4184,0.3959,0.3458,0.3118,0.3506,0.4411,0.4467,0.4177,0.4632,0.4622,0.4563,0.4728,0.5007,0.5226,0.5441,0.5987,0.6588,0.6902,0.7444,0.7996,0.8427,0.8626,0.8646,0.8408,0.8243,0.7978,0.7978,0.8078,0.8184,0.8019,0.8,0.7939,0.7826,0.7955,0.8201,0.8461,0.8906,0.94,0.9769,1.0128,1.0391,1.0332,1.0303,1.0398,1.0426,1.0454,1.0795,1.1112,1.1352,1.1087,1.0972,1.0871,1.0663,1.0561,1.0339,1.0573,1.0588,1.0434,1.0856,1.1327,1.1151,1.0745,1.0421,1.0124,0.9861,0.9935,1.0162,1.0551,1.067,0.9857,0.878,0.7415,0.661,0.585,0.6467,0.7122,0.7916,0.8695,0.9304,0.9929,1.007,1.0477,1.0925,1.0997,1.1035,1.1139,1.1052,1.0683,1.0234,1.1396,1.2213,1.1634,1.089,1.0437,0.9922,0.9283,0.8564,0.8124,0.9023,1.0141,0.8064,0.534,0.3428,0.2097,0.5165,0.5257,0.4995,0.4835,0.4673,0.4433,0.4385,0.4515,0.4519,0.4574,0.4519,0.4677,0.4453,0.395,0.3442,0.3886,0.4956,0.5483,0.5364,0.5128,0.5277,0.5332,0.5496,0.5828,0.605,0.6376,0.681,0.7396,0.7771,0.8349,0.9086,0.9607,0.9614,0.9622,0.9452,0.9273,0.8974,0.9033,0.9131,0.928,0.9266,0.9318,0.9291,0.93,0.9438,0.9643,0.9961,1.037,1.063,1.1031,1.1536,1.1545,1.1447,1.1265,1.1217,1.1195,1.1137,1.1499,1.1721,1.1946,1.2075,1.1984,1.1528,1.117,1.1066,1.117,1.1423,1.1552,1.1508,1.1886,1.223,1.1731,1.1281,1.0978,1.0681,1.0666,1.0785,1.1116,1.1583,1.1276,1.0101,0.8711,0.6676,0.5596,0.5011,0.5042,0.5629,0.6342,0.7226,0.8504,0.923,1.0261,1.0892,1.2103,1.2131,1.1651,1.1326,1.113,1.1212,1.1089,1.2425,1.2332,1.0844,0.9824,0.9954,0.9142,0.6848,0.7256,0.8739,0.9733,0.9016,0.8981,0.5171,0.195,0.0226,0.5517,0.5581,0.5462,0.5417,0.5466,0.536,0.5272,0.5066,0.5073,0.5073,0.5073,0.5289,0.5113,0.4732,0.4707,0.4929,0.5492,0.6064,0.6168,0.6159,0.6095,0.6095,0.6312,0.6588,0.6815,0.7085,0.7461,0.799,0.8302,0.8988,0.9592,1.0035,1.0187,1.0195,1.0147,1.0124,1.0136,1.0182,1.0336,1.0423,1.0559,1.0602,1.0589,1.0631,1.0914,1.1137,1.1359,1.1706,1.1883,1.193,1.212,1.2015,1.1433,1.1554,1.1616,1.1574,1.1912,1.2393,1.2491,1.2574,1.2732,1.2865,1.2621,1.2285,1.2081,1.2058,1.2296,1.2438,1.2567,1.2871,1.3334,1.3103,1.2698,1.242,1.2167,1.2146,1.2155,1.1943,1.2297,1.1111,0.9955,0.8071,0.6045,0.4787,0.4248,0.3933,0.4014,0.4712,0.5754,0.7068,0.8459,0.9507,1.0872,1.1958,1.2172,1.18,1.147,1.1229,1.0834,1.0232,0.9879,0.9506,0.8894,0.8023,0.7005,0.5148,0.2911,0.417,0.6247,0.4463,0.3713,0.4966,0.5054,0.1272,-0.2243,0.6042,0.6207,0.6129,0.6187,0.6288,0.6288,0.6158,0.5923,0.5811,0.5864,0.6,0.6159,0.5896,0.5503,0.5533,0.5707,0.5917,0.6573,0.683,0.6756,0.6907,0.6858,0.7025,0.7295,0.7402,0.7676,0.7996,0.8474,0.8817,0.9372,0.9981,1.0516,1.0598,1.0663,1.0774,1.1014,1.1312,1.1358,1.146,1.1543,1.1683,1.1814,1.1819,1.1892,1.2252,1.2321,1.2525,1.2877,1.2892,1.2878,1.3011,1.2779,1.2323,1.2329,1.2054,1.2012,1.2274,1.2617,1.2747,1.2923,1.3131,1.3335,1.3509,1.3361,1.3105,1.2987,1.3303,1.3501,1.3621,1.3849,1.4357,1.4743,1.4441,1.4137,1.3989,1.3831,1.341,1.2939,1.2007,1.0816,0.9217,0.7357,0.5762,0.4429,0.3305,0.2697,0.2523,0.2924,0.4134,0.5619,0.7184,0.8591,1.0169,1.1599,1.1503,1.0874,0.9919,0.9144,0.8647,0.803,0.7405,0.7174,0.7056,0.533,0.3217,0.1433,-0.0195,0.1309,0.2631,0.1037,0.0986,0.3351,0.2954,-0.1168,-0.45,0.6595,0.7067,0.6983,0.6924,0.7079,0.7042,0.6988,0.6934,0.6681,0.6759,0.6945,0.7031,0.6648,0.6149,0.6056,0.6207,0.6521,0.7031,0.7263,0.7133,0.7396,0.7456,0.7568,0.7824,0.7984,0.8143,0.8468,0.8896,0.9275,0.9857,1.0433,1.1063,1.1223,1.1302,1.1361,1.163,1.1883,1.213,1.2137,1.2164,1.2745,1.2909,1.2938,1.2992,1.304,1.3094,1.3403,1.3642,1.3767,1.3943,1.3917,1.3585,1.3267,1.3066,1.2597,1.2539,1.2758,1.2973,1.3161,1.3298,1.3442,1.362,1.3789,1.4137,1.411,1.3927,1.4122,1.4398,1.4526,1.4803,1.5281,1.4801,1.4361,1.4516,1.4606,1.3567,1.2261,1.152,1.0366,0.9387,0.8644,0.6709,0.4381,0.2986,0.2462,0.1616,0.1726,0.2013,0.2808,0.4411,0.5566,0.7109,0.7349,0.8399,0.9217,0.8497,0.7519,0.679,0.6408,0.5871,0.526,0.5241,0.5398,0.268,-0.0263,-0.1469,-0.236,-0.1249,-0.0535,-0.0537,0.0097,0.2598,0.0897,-0.3662,-0.497,0.6923,0.7127,0.7164,0.7175,0.7106,0.7106,0.7291,0.7481,0.7396,0.7182,0.7009,0.6977,0.6924,0.6717,0.6318,0.642,0.6823,0.7281,0.7509,0.7676,0.783,0.7996,0.8162,0.8468,0.8567,0.8626,0.889,0.9413,0.9959,1.0417,1.0936,1.1655,1.1713,1.1583,1.158,1.1834,1.2126,1.2489,1.2579,1.2759,1.3293,1.3601,1.3742,1.3788,1.3749,1.3641,1.376,1.3667,1.3523,1.3409,1.3254,1.3078,1.2982,1.3118,1.3171,1.3138,1.3331,1.3555,1.3789,1.3954,1.4187,1.4537,1.4852,1.5078,1.5104,1.489,1.4887,1.5168,1.546,1.579,1.5747,1.4982,1.447,1.4848,1.5003,1.3102,1.1201,0.9951,0.8791,0.8039,0.7589,0.5755,0.332,0.2053,0.1545,0.159,0.2062,0.2396,0.2627,0.3608,0.3692,0.4534,0.3241,0.3973,0.5336,0.599,0.492,0.4657,0.4432,0.3831,0.3071,0.231,0.1471,-0.1229,-0.3685,-0.4311,-0.472,-0.4865,-0.4202,-0.3272,-0.3056,-0.1523,-0.2984,-0.6972,-0.6269,0.7192,0.7384,0.7534,0.7672,0.7805,0.7809,0.7953,0.8035,0.804,0.7856,0.7481,0.7301,0.7141,0.7149,0.6801,0.6577,0.7032,0.7441,0.7759,0.7996,0.8262,0.8474,0.8738,0.9054,0.9145,0.9197,0.9673,1.0182,1.0602,1.081,1.1238,1.1714,1.1656,1.1659,1.1611,1.1827,1.2098,1.2595,1.2722,1.3043,1.3493,1.3826,1.3883,1.391,1.3864,1.3818,1.3854,1.3732,1.3724,1.3614,1.3622,1.3496,1.3493,1.3565,1.3682,1.3776,1.396,1.4264,1.4487,1.4738,1.4986,1.5316,1.5607,1.5725,1.6111,1.5883,1.5329,1.5583,1.6046,1.6392,1.6176,1.5552,1.5467,1.5688,1.505,1.3626,1.156,0.9776,0.7977,0.6108,0.5529,0.4574,0.2458,0.1155,0.065,0.0371,0.1047,0.0908,0.1466,0.1889,0.2188,0.2239,0.1102,0.0492,0.1525,0.2215,0.2168,0.211,0.2419,0.1157,0.0,-0.1289,-0.2793,-0.4225,-0.5366,-0.5986,-0.641,-0.6535,-0.6421,-0.5415,-0.5922,-0.6381,-0.8233,-0.9304,-0.8488,0.7419,0.7754,0.7916,0.8201,0.8517,0.858,0.8511,0.8469,0.8495,0.8384,0.8074,0.7678,0.7327,0.7264,0.7392,0.7203,0.7212,0.7552,0.7899,0.8362,0.858,0.8896,0.9263,0.9569,0.9673,0.9932,1.0352,1.0608,1.0956,1.1103,1.1269,1.1398,1.1547,1.1731,1.1685,1.1774,1.2044,1.2419,1.2677,1.2883,1.3342,1.3792,1.3773,1.3684,1.3634,1.3708,1.3769,1.3855,1.4012,1.4124,1.4143,1.418,1.4159,1.42,1.4178,1.4322,1.4592,1.4765,1.4887,1.5257,1.553,1.5823,1.6061,1.6275,1.6588,1.6381,1.582,1.5758,1.6233,1.6486,1.6273,1.6337,1.6328,1.5471,1.4537,1.2872,1.0673,0.8571,0.6296,0.4052,0.3478,0.2756,0.1696,0.0358,-0.0099,-0.0433,-0.0799,-0.1132,-0.1195,-0.0867,-0.0574,-0.0253,-0.0528,-0.0978,-0.1015,-0.0528,0.0179,0.003,0.0091,-0.1515,-0.2815,-0.328,-0.4148,-0.562,-0.6622,-0.7059,-0.7282,-0.7327,-0.7197,-0.7094,-0.79,-0.8542,-0.9267,-1.0147,-1.0352,0.7845,0.7875,0.7963,0.7895,0.7852,0.8133,0.8119,0.7966,0.8186,0.8166,0.8014,0.7762,0.7521,0.7404,0.7081,0.7035,0.7362,0.7686,0.8209,0.8698,0.8883,0.9368,0.9784,0.9991,1.0205,1.0462,1.0761,1.1023,1.1216,1.1336,1.1565,1.1921,1.1772,1.1774,1.1664,1.1752,1.1969,1.2265,1.2541,1.2769,1.314,1.3509,1.3777,1.3766,1.3777,1.3716,1.3695,1.3822,1.3934,1.4145,1.4459,1.4699,1.4836,1.4892,1.4887,1.4965,1.5242,1.527,1.5439,1.5704,1.5956,1.5874,1.5968,1.585,1.6034,1.5991,1.5487,1.5048,1.5479,1.5993,1.6039,1.6529,1.6509,1.4223,1.2726,0.9439,0.6616,0.4707,0.2664,0.1825,0.1511,0.0851,0.019,-0.0566,-0.0698,-0.11,-0.1663,-0.1963,-0.2065,-0.2534,-0.2937,-0.2552,-0.2054,-0.1854,-0.1646,-0.1535,-0.1151,-0.1445,-0.1885,-0.2841,-0.3678,-0.4396,-0.5424,-0.6707,-0.7328,-0.7753,-0.7921,-0.7896,-0.8153,-0.823,-0.9317,-1.012,-1.0591,-1.0872,-1.0952]},{"header":{"parameterUnit":"m.s-1","parameterCategory":1,"la1":31.0,"la2":29.5877,"lo1":-88.7671,"lo2":-86.6584,"dy":0.0162,"dx":0.0185,"nx":115,"ny":88,"refTime":"2023-09-06T00:00:00:Z","depth":0,"parameterNumber":3,"parameterNumberName":"V-component_of_WINDS"},"data":[0.0,0.0,0.0,0.0,0.0,0.0,0.0,0.0,0.0,0.0,0.0,0.0,0.0,0.0,0.0,0.0,0.0,0.0,0.0,0.0,0.0,0.0,0.0,0.0,0.0,0.0,0.0,0.0,0.0,0.0,0.0,0.0,0.0,0.0,0.0,0.0,0.0,0.0,0.0,0.0,0.0,0.0,0.0,0.0,0.0,0.0,0.0,0.0,0.0,0.0,0.0,0.0,0.0,0.0,0.0,0.0,0.0,0.0,0.0,0.0,0.0,0.0,0.0,0.0,0.0,0.0,0.0,0.0,0.0,0.0,0.0,0.0,0.0,0.0,0.0,0.0,0.0,0.0,0.0,0.0,0.0,0.0,0.0,0.0,0.0,0.0,0.0,0.0,0.0,0.0,0.0,0.0,0.0,0.0,0.0,0.0,0.0,0.0,0.0,0.0,0.0,0.0,0.0,0.0,0.0,0.0,0.0,0.0,0.0,0.0,0.0,0.0,0.0,0.0,0.0,0.0,0.0,0.0,0.0,0.0,0.0,0.0,0.0,0.0,0.0,0.0,0.0,0.0,0.0,0.0,0.0,0.0,0.0,0.0,0.0,0.0,0.0,0.0,0.0,0.0,0.0,0.0,0.0,0.0,0.0,0.0,0.0,0.0,0.0,0.0,0.0,0.0,0.0,0.0,0.0,0.0,0.0,0.0,0.0,0.0,0.0,0.0,0.0,0.0,0.0,0.0,0.0,0.0,0.0,0.0,0.0,0.0,0.0,0.0,0.0,0.0,0.0,0.0,0.0,0.0,0.0,0.0,0.0,0.0,0.0,0.0,0.0,0.0,0.0,0.0,0.0,0.0,0.0,0.0,0.0,0.0,0.0,0.0,0.0,0.0,0.0,0.0,0.0,0.0,0.0,0.0,0.0,0.0,0.0,0.0,0.0,0.0,0.0,0.0,0.0,0.0,0.0,0.0,0.0,0.0,0.0,0.0,0.0,0.0,0.0,0.0,0.0,0.0,0.0,0.0,0.0,0.0,0.0,0.0,0.0,0.0,0.0,0.0,0.0,0.0,0.0,0.0,0.0,0.0,0.0,0.0,0.0,0.0,0.0,0.0,0.0,0.0,0.0,0.0,0.0,0.0,0.0,0.0,0.0,0.0,0.0,0.0,0.0,0.0,0.0,0.0,0.0,0.0,0.0,0.0,0.0,0.0,0.0,0.0,0.0,0.0,0.0,0.0,0.0,0.0,0.0,0.0,0.0,0.0,0.0,0.0,0.0,0.0,0.0,0.0,0.0,0.0,0.0,0.0,0.0,0.0,0.0,0.0,0.0,0.0,0.0,0.0,0.0,0.0,0.0,0.0,0.0,0.0,0.0,0.0,0.0,0.0,0.0,0.0,0.0,0.0,0.0,0.0,0.0,0.0,0.0,0.0,0.0,0.0,0.0,0.0,0.0,0.0,0.0,0.0,0.0,0.0,0.0,0.0,0.0,0.0,0.0,0.0,0.0,0.0,0.0,0.0,0.0,0.0,0.0,0.0,0.0,0.0,0.0,0.0,0.0,0.0,0.0,0.0,0.0,0.0,0.0,0.0,0.0,0.0,0.0,0.0,0.0,0.0,0.0,0.0,0.0,0.0,0.0,0.0,0.0,0.0,0.0,0.0,0.0,0.0,0.0,0.0,0.0,0.0,0.0,0.0,0.0,0.0,0.0,0.0,0.0,0.0,0.0,0.0,0.0,0.0,0.0,0.0,0.0,0.0,0.0,0.0,0.0,0.0,0.0,0.0,0.0,0.0,0.0,0.0,0.0,0.0,0.0,0.0,0.0,0.0,0.0,0.0,0.0,0.0,0.0,0.0,0.0,0.0,0.0,0.0,0.0,0.0,0.0,0.0,0.0,0.0,0.0,0.0,0.0,0.0,0.0,0.0,0.0,0.0,0.0,0.0,0.0,0.0,0.0,0.0,0.0,0.0,0.0,0.0,0.0,0.0,0.0,0.0,0.0,0.0,0.0,0.0,0.0,0.0,0.0,0.0,0.0,0.0,0.0,0.0,0.0,0.0,0.0,0.0,0.0,0.0,0.0,0.0,0.0,0.0,0.0,0.0,0.0,0.0,0.0,0.0,0.0,0.0,0.0,0.0,0.0,0.0,0.0,0.0,0.0,0.0,0.0,0.0,0.0,0.0,0.0,0.0,0.0,0.0,0.0,0.0,0.0,0.0,0.0,0.0,0.0,0.0,0.0,0.0,0.0,0.0,0.0,0.0,0.0,0.0,0.0,0.0,0.0,0.0,0.0,0.0,0.0,0.0,0.0,0.0,0.0,0.0,0.0,0.0,0.0,0.0,0.0,0.0,0.0,0.0,0.0,0.0,0.0,0.0,0.0,0.0,0.0,0.0,0.0,0.0,0.0,0.0,0.0,0.0,0.0,0.0,0.0,0.0,0.0,0.0,0.0,0.0,0.0,0.0,0.0,0.0,0.0,0.0,0.0,0.0,0.0,0.0,0.0,0.0,0.0,0.0,0.0,0.0,0.0,0.0,0.0,0.0,0.0,0.0,0.0,0.0,0.0,0.0,0.0,0.0,0.0,0.0,0.0,0.0,0.0,0.0,0.0,0.0,0.0,0.0,0.0,0.0,0.0,0.0,0.0,0.0,0.0,0.0,0.0,0.0,0.0,0.0,0.0,0.0,0.0,0.0,0.0,0.0,0.0,0.0,0.0,0.0,0.0,0.0,0.0,0.0,0.0,0.0,0.0,0.0,0.0,0.0,0.0,0.0,0.0,0.0,0.0,0.0,0.0,0.0,0.0,0.0,0.0,0.0,0.0,0.0,0.0,0.0,0.0,0.0,0.0,0.0,0.0,0.0,0.0,0.0,0.0,0.0,0.0,0.0,0.0,0.0,0.0,0.0,0.0,0.0,0.0,0.0,0.0,0.0,0.0,0.0,0.0,0.0,0.0,0.0,0.0,0.0,0.0,0.0,0.0,0.0,0.0,0.0,0.0,0.0,0.0,0.0,0.0,0.0,0.0,0.0,0.0,0.0,0.0,0.0,0.0,0.0,0.0,0.0,0.0,0.0,0.0,0.0,0.0,0.0,0.0,0.0,0.0,0.0,0.0,0.0,0.0,0.0,0.0,0.0,0.0,0.0,0.0,0.0,0.0,0.0,0.0,0.0,0.0,0.0,0.0,0.0,0.0,0.0,0.0,0.0,0.0,0.0,0.0,0.0,0.0,0.0,0.0,0.0,0.0,0.0,0.0,0.0,0.0,0.0,0.0,0.0,0.0,0.0,0.0,0.0,0.0,0.0,0.0,0.0,0.0,0.0,0.0,0.0,0.0,0.0,0.0,0.0,0.0,0.0,0.0,0.0,0.0,0.0,0.0,0.0,0.0,0.0,0.0,0.0,0.0,0.0,0.0,0.0,0.0,0.0,0.0,0.0,0.0,0.0,0.0,0.0,0.0,0.0,0.0,0.0,0.0,0.0,0.0,0.0,0.0,0.0,0.0,0.0,0.0,0.0,0.0,0.0,0.0,0.0,0.0,0.0,0.0,0.0,0.0,0.0,0.0,0.0,0.0,0.0,0.0,0.0,0.0,0.0,0.0,0.0,0.0,0.0,0.0,0.0,0.0,0.0,0.0,0.0,0.0,0.0,0.0,0.0,0.0,0.0,0.0,0.0,0.0,0.0,0.0,0.0,0.0,0.0,0.0,0.0,0.0,0.0,0.0,0.0,0.0,0.0,0.0,0.0,0.0,0.0,0.0,0.0,0.0,0.0,0.0,0.0,0.0,0.0,0.0,0.0,0.0,0.0,0.0,0.0,0.0,0.0,0.0,0.0,0.0,0.0,0.0,0.0,0.0,0.0,0.0,0.0,0.0,0.0,0.0,0.0,0.0,0.0,0.0,0.0,0.0,0.0,0.0,0.0,0.0,0.0,0.0,0.0,0.0,0.0,0.0,0.0,0.0,0.0,0.0,0.0,0.0,0.0,0.0,0.0,0.0,0.0,0.0,0.0,0.0,0.0,0.0,0.0,0.0,0.0,0.0,0.0,0.0,0.0,0.0,0.0,0.0,0.0,0.0,0.0,0.0,0.0,0.0,0.0,0.0,0.0,0.0,0.0,0.0,0.0,0.0,0.0,0.0,0.0,0.0,0.0,0.0,0.0,0.0,0.0,0.0,0.0,0.0,0.0,0.0,0.0,0.0,0.0,0.0,0.0,0.0,0.0,0.0,0.0,0.0,0.0,0.0,0.0,0.0,0.0,0.0,0.0,0.0,0.0,-2.5616,0.0,0.0,0.0,0.0,0.0,0.0,0.0,0.0,0.0,0.0,0.0,0.0,0.0,0.0,0.0,0.0,0.0,0.0,0.0,0.0,0.0,0.0,0.0,0.0,0.0,0.0,0.0,0.0,0.0,0.0,0.0,0.0,0.0,0.0,0.0,0.0,0.0,0.0,0.0,0.0,0.0,0.0,0.0,0.0,0.0,0.0,0.0,0.0,0.0,0.0,0.0,0.0,0.0,0.0,0.0,0.0,0.0,0.0,0.0,0.0,0.0,0.0,0.0,0.0,0.0,0.0,0.0,0.0,0.0,0.0,0.0,0.0,0.0,0.0,0.0,0.0,0.0,0.0,0.0,0.0,0.0,0.0,0.0,0.0,0.0,0.0,0.0,0.0,0.0,0.0,0.0,0.0,0.0,0.0,0.0,0.0,0.0,0.0,0.0,0.0,0.0,0.0,0.0,0.0,0.0,0.0,0.0,0.0,0.0,0.0,-2.636,-2.5138,-2.6747,-2.6899,-2.5321,0.0,0.0,0.0,0.0,0.0,0.0,0.0,0.0,0.0,0.0,0.0,0.0,0.0,0.0,0.0,0.0,0.0,0.0,0.0,0.0,0.0,0.0,0.0,0.0,0.0,0.0,0.0,0.0,0.0,0.0,0.0,0.0,0.0,0.0,0.0,0.0,0.0,0.0,0.0,0.0,0.0,0.0,0.0,0.0,0.0,0.0,0.0,0.0,0.0,0.0,0.0,0.0,0.0,0.0,0.0,0.0,0.0,0.0,0.0,0.0,0.0,0.0,0.0,0.0,0.0,0.0,0.0,0.0,0.0,0.0,0.0,0.0,0.0,0.0,0.0,0.0,0.0,0.0,0.0,0.0,0.0,0.0,0.0,0.0,0.0,0.0,0.0,0.0,0.0,0.0,0.0,0.0,0.0,0.0,0.0,0.0,0.0,0.0,0.0,0.0,0.0,0.0,0.0,0.0,0.0,0.0,0.0,0.0,0.0,0.0,0.0,0.0,-2.6612,-2.6822,-2.5748,0.0,0.0,0.0,0.0,0.0,0.0,0.0,0.0,0.0,0.0,0.0,0.0,0.0,0.0,0.0,0.0,0.0,0.0,0.0,0.0,0.0,0.0,0.0,0.0,0.0,0.0,0.0,0.0,0.0,0.0,0.0,0.0,0.0,0.0,0.0,0.0,0.0,0.0,0.0,0.0,0.0,0.0,0.0,0.0,0.0,0.0,0.0,0.0,0.0,0.0,0.0,0.0,0.0,0.0,0.0,0.0,0.0,0.0,0.0,0.0,0.0,0.0,0.0,0.0,0.0,0.0,0.0,0.0,0.0,0.0,0.0,0.0,0.0,0.0,0.0,0.0,0.0,0.0,0.0,0.0,0.0,0.0,0.0,0.0,0.0,0.0,0.0,0.0,0.0,0.0,0.0,0.0,0.0,0.0,0.0,0.0,0.0,0.0,0.0,0.0,0.0,0.0,0.0,0.0,0.0,0.0,0.0,0.0,0.0,0.0,-2.4901,-2.6561,-2.6995,0.0,-2.7641,0.0,0.0,0.0,0.0,0.0,0.0,0.0,0.0,0.0,0.0,0.0,0.0,0.0,0.0,0.0,0.0,0.0,0.0,0.0,0.0,0.0,0.0,0.0,0.0,0.0,0.0,0.0,0.0,0.0,0.0,0.0,0.0,0.0,0.0,0.0,0.0,0.0,0.0,0.0,0.0,0.0,0.0,0.0,0.0,0.0,0.0,0.0,0.0,0.0,0.0,0.0,0.0,0.0,0.0,0.0,0.0,0.0,0.0,0.0,0.0,0.0,0.0,0.0,0.0,0.0,0.0,0.0,0.0,0.0,0.0,0.0,0.0,0.0,0.0,0.0,0.0,0.0,0.0,0.0,0.0,0.0,0.0,0.0,0.0,0.0,0.0,0.0,0.0,0.0,0.0,0.0,0.0,0.0,0.0,0.0,0.0,0.0,0.0,0.0,0.0,0.0,0.0,0.0,0.0,0.0,0.0,0.0,0.0,0.0,0.0,-2.4206,-2.5069,-2.5569,-2.5805,0.0,0.0,0.0,0.0,0.0,0.0,0.0,0.0,0.0,0.0,0.0,0.0,0.0,0.0,0.0,0.0,0.0,0.0,0.0,0.0,0.0,0.0,0.0,0.0,0.0,0.0,0.0,0.0,0.0,0.0,0.0,0.0,0.0,0.0,0.0,0.0,0.0,0.0,0.0,0.0,0.0,0.0,0.0,0.0,0.0,0.0,0.0,0.0,0.0,0.0,0.0,0.0,0.0,0.0,0.0,0.0,0.0,0.0,0.0,0.0,0.0,0.0,0.0,0.0,0.0,0.0,0.0,0.0,0.0,0.0,0.0,0.0,0.0,0.0,0.0,0.0,0.0,0.0,0.0,0.0,0.0,0.0,0.0,0.0,0.0,0.0,0.0,0.0,0.0,0.0,0.0,0.0,0.0,0.0,0.0,0.0,0.0,0.0,0.0,0.0,0.0,0.0,0.0,0.0,0.0,0.0,0.0,0.0,0.0,0.0,-2.3388,-2.361,-2.4346,-2.4523,-2.4618,-2.4628,0.0,0.0,0.0,0.0,0.0,0.0,0.0,0.0,0.0,0.0,0.0,0.0,0.0,0.0,0.0,0.0,0.0,0.0,0.0,0.0,0.0,0.0,0.0,0.0,0.0,0.0,0.0,0.0,0.0,0.0,0.0,0.0,0.0,0.0,0.0,0.0,0.0,0.0,0.0,0.0,0.0,0.0,0.0,0.0,0.0,0.0,0.0,0.0,0.0,0.0,0.0,0.0,0.0,0.0,0.0,0.0,0.0,0.0,0.0,0.0,0.0,0.0,0.0,0.0,0.0,0.0,0.0,0.0,0.0,0.0,0.0,0.0,0.0,0.0,0.0,0.0,0.0,0.0,0.0,0.0,0.0,0.0,0.0,0.0,0.0,0.0,0.0,0.0,0.0,0.0,0.0,0.0,0.0,0.0,0.0,0.0,0.0,0.0,0.0,0.0,0.0,0.0,0.0,0.0,0.0,0.0,0.0,0.0,-2.548,-2.3284,-2.3195,-2.5433,-2.4384,-2.4385,0.0,0.0,0.0,0.0,0.0,0.0,0.0,0.0,0.0,0.0,0.0,0.0,0.0,0.0,0.0,0.0,0.0,0.0,0.0,0.0,0.0,0.0,0.0,0.0,0.0,0.0,0.0,0.0,0.0,0.0,0.0,0.0,0.0,0.0,0.0,0.0,0.0,0.0,0.0,0.0,0.0,0.0,0.0,0.0,0.0,0.0,0.0,0.0,0.0,0.0,0.0,0.0,0.0,0.0,0.0,0.0,0.0,0.0,0.0,0.0,0.0,0.0,0.0,0.0,0.0,0.0,0.0,0.0,0.0,0.0,0.0,0.0,0.0,0.0,0.0,0.0,0.0,0.0,0.0,0.0,0.0,0.0,0.0,0.0,0.0,0.0,0.0,0.0,0.0,0.0,0.0,0.0,0.0,0.0,0.0,0.0,0.0,0.0,0.0,0.0,0.0,0.0,0.0,0.0,0.0,0.0,0.0,0.0,0.0,-2.0917,-2.0445,-2.124,-2.3319,-2.2879,-2.3234,0.0,0.0,0.0,0.0,0.0,0.0,0.0,0.0,0.0,0.0,0.0,0.0,0.0,0.0,0.0,0.0,0.0,0.0,0.0,0.0,0.0,0.0,0.0,0.0,0.0,0.0,0.0,0.0,0.0,0.0,0.0,0.0,0.0,0.0,0.0,0.0,0.0,0.0,0.0,0.0,0.0,0.0,0.0,0.0,0.0,0.0,0.0,0.0,0.0,0.0,0.0,0.0,0.0,0.0,0.0,0.0,0.0,0.0,0.0,0.0,0.0,0.0,0.0,0.0,0.0,0.0,0.0,0.0,0.0,0.0,0.0,0.0,0.0,0.0,0.0,0.0,0.0,0.0,0.0,0.0,0.0,0.0,0.0,0.0,0.0,0.0,0.0,0.0,0.0,0.0,0.0,0.0,0.0,0.0,0.0,0.0,0.0,0.0,0.0,0.0,0.0,0.0,0.0,0.0,0.0,0.0,0.0,0.0,0.0,-1.809,0.0,-1.9784,-2.1192,-2.1269,-2.1765,0.0,0.0,0.0,0.0,0.0,0.0,0.0,0.0,0.0,0.0,0.0,0.0,0.0,0.0,0.0,0.0,0.0,0.0,0.0,0.0,0.0,0.0,0.0,0.0,0.0,0.0,0.0,0.0,0.0,0.0,0.0,0.0,0.0,0.0,0.0,0.0,0.0,0.0,0.0,0.0,0.0,0.0,0.0,0.0,0.0,0.0,0.0,0.0,0.0,0.0,0.0,0.0,0.0,0.0,0.0,0.0,0.0,0.0,0.0,0.0,0.0,0.0,0.0,0.0,0.0,0.0,0.0,0.0,0.0,0.0,0.0,0.0,0.0,0.0,0.0,0.0,0.0,0.0,0.0,0.0,0.0,0.0,0.0,0.0,0.0,0.0,0.0,0.0,0.0,0.0,0.0,0.0,0.0,0.0,0.0,0.0,0.0,0.0,0.0,0.0,0.0,0.0,0.0,0.0,0.0,0.0,0.0,0.0,-1.7948,-1.7783,-1.8381,-1.891,-1.9334,-1.983,-2.0048,0.0,0.0,0.0,0.0,0.0,0.0,0.0,0.0,0.0,0.0,0.0,0.0,0.0,0.0,0.0,0.0,0.0,0.0,0.0,0.0,0.0,0.0,0.0,0.0,0.0,0.0,0.0,0.0,0.0,0.0,0.0,0.0,0.0,0.0,0.0,0.0,0.0,0.0,0.0,0.0,0.0,0.0,0.0,0.0,0.0,0.0,0.0,0.0,0.0,0.0,0.0,0.0,0.0,0.0,0.0,0.0,0.0,0.0,0.0,0.0,0.0,0.0,0.0,0.0,0.0,0.0,0.0,0.0,0.0,0.0,0.0,0.0,0.0,0.0,0.0,0.0,0.0,0.0,0.0,0.0,0.0,0.0,0.0,0.0,0.0,0.0,0.0,0.0,0.0,0.0,0.0,0.0,0.0,0.0,0.0,0.0,0.0,0.0,0.0,0.0,0.0,0.0,0.0,0.0,0.0,0.0,0.0,0.0,0.0,-1.5481,-1.5811,-1.7328,-1.992,-1.9438,-2.0321,0.0,0.0,0.0,0.0,0.0,0.0,0.0,0.0,0.0,0.0,0.0,0.0,0.0,0.0,0.0,0.0,0.0,0.0,0.0,0.0,0.0,0.0,0.0,0.0,0.0,0.0,0.0,0.0,0.0,0.0,0.0,0.0,0.0,0.0,0.0,0.0,0.0,0.0,0.0,0.0,0.0,0.0,0.0,0.0,0.0,0.0,0.0,0.0,0.0,0.0,0.0,0.0,0.0,0.0,0.0,0.0,0.0,0.0,0.0,0.0,0.0,0.0,0.0,0.0,0.0,0.0,0.0,0.0,0.0,0.0,0.0,0.0,0.0,0.0,0.0,0.0,0.0,0.0,0.0,0.0,0.0,0.0,0.0,0.0,0.0,0.0,0.0,0.0,0.0,0.0,0.0,0.0,0.0,0.0,0.0,0.0,0.0,0.0,0.0,0.0,0.0,0.0,0.0,0.0,0.0,0.0,0.0,0.0,0.0,-1.4121,-1.5024,-1.6783,-1.9574,-1.9077,-2.0075,-2.2683,0.0,0.0,0.0,0.0,0.0,0.0,0.0,0.0,0.0,0.0,0.0,0.0,0.0,0.0,0.0,0.0,0.0,0.0,0.0,0.0,0.0,0.0,0.0,0.0,0.0,0.0,0.0,0.0,0.0,0.0,0.0,0.0,0.0,0.0,0.0,0.0,0.0,0.0,0.0,0.0,0.0,0.0,0.0,0.0,0.0,0.0,0.0,0.0,0.0,0.0,0.0,0.0,0.0,0.0,0.0,0.0,0.0,0.0,0.0,0.0,0.0,0.0,0.0,0.0,0.0,0.0,0.0,0.0,0.0,0.0,0.0,0.0,0.0,0.0,0.0,0.0,0.0,0.0,0.0,0.0,0.0,0.0,0.0,0.0,0.0,0.0,0.0,0.0,0.0,0.0,0.0,0.0,0.0,0.0,0.0,0.0,0.0,0.0,0.0,0.0,0.0,0.0,0.0,0.0,0.0,0.0,0.0,0.0,-1.3537,-1.5553,-1.7157,-1.8352,-1.8987,-1.9515,0.0,0.0,0.0,0.0,0.0,0.0,0.0,0.0,0.0,0.0,0.0,0.0,0.0,0.0,0.0,0.0,0.0,0.0,0.0,0.0,0.0,0.0,0.0,0.0,0.0,0.0,0.0,0.0,0.0,0.0,0.0,0.0,0.0,0.0,0.0,0.0,0.0,0.0,0.0,0.0,0.0,0.0,0.0,0.0,0.0,0.0,0.0,0.0,0.0,0.0,0.0,0.0,0.0,0.0,0.0,0.0,0.0,0.0,0.0,0.0,0.0,0.0,0.0,0.0,0.0,0.0,0.0,0.0,0.0,0.0,0.0,0.0,0.0,0.0,0.0,0.0,0.0,0.0,0.0,0.0,0.0,0.0,0.0,0.0,0.0,0.0,0.0,0.0,0.0,0.0,0.0,0.0,0.0,0.0,0.0,0.0,0.0,0.0,0.0,0.0,0.0,0.0,0.0,0.0,0.0,0.0,0.0,0.0,0.0,-1.3361,-1.516,-1.745,-2.0156,-2.0239,-2.0994,0.0,0.0,0.0,0.0,0.0,0.0,0.0,0.0,0.0,0.0,0.0,0.0,0.0,0.0,0.0,0.0,0.0,0.0,0.0,0.0,0.0,0.0,0.0,0.0,0.0,0.0,0.0,0.0,0.0,0.0,0.0,0.0,0.0,0.0,0.0,0.0,0.0,0.0,0.0,0.0,0.0,0.0,0.0,0.0,0.0,0.0,0.0,0.0,0.0,0.0,0.0,0.0,0.0,0.0,0.0,0.0,0.0,0.0,0.0,0.0,0.0,0.0,0.0,0.0,0.0,0.0,0.0,0.0,0.0,0.0,0.0,0.0,0.0,0.0,0.0,0.0,0.0,0.0,0.0,0.0,0.0,0.0,0.0,0.0,0.0,0.0,0.0,0.0,0.0,0.0,0.0,0.0,0.0,0.0,0.0,0.0,0.0,0.0,0.0,0.0,0.0,0.0,0.0,0.0,0.0,0.0,0.0,0.0,-1.2503,-1.3286,-1.5436,-1.7906,-2.0864,-2.1084,-2.1906,0.0,0.0,0.0,0.0,0.0,0.0,0.0,0.0,0.0,0.0,0.0,0.0,0.0,0.0,0.0,0.0,0.0,0.0,0.0,0.0,0.0,0.0,0.0,0.0,0.0,0.0,0.0,0.0,0.0,0.0,0.0,0.0,0.0,0.0,0.0,0.0,0.0,0.0,0.0,0.0,0.0,0.0,0.0,0.0,0.0,0.0,0.0,0.0,0.0,0.0,0.0,0.0,0.0,0.0,0.0,0.0,0.0,0.0,0.0,0.0,0.0,0.0,0.0,0.0,0.0,0.0,0.0,0.0,0.0,0.0,0.0,0.0,0.0,0.0,0.0,0.0,0.0,0.0,0.0,0.0,0.0,0.0,0.0,0.0,0.0,0.0,0.0,0.0,0.0,0.0,0.0,0.0,0.0,0.0,0.0,0.0,0.0,0.0,0.0,0.0,0.0,0.0,0.0,0.0,0.0,0.0,0.0,0.0,-1.2825,-1.3483,-1.5922,-1.8295,-2.0555,-2.1661,-2.248,0.0,0.0,0.0,0.0,0.0,0.0,0.0,0.0,0.0,0.0,0.0,0.0,0.0,0.0,0.0,0.0,0.0,0.0,0.0,0.0,0.0,0.0,0.0,0.0,0.0,0.0,0.0,0.0,0.0,0.0,0.0,0.0,0.0,0.0,0.0,0.0,0.0,0.0,0.0,0.0,0.0,0.0,0.0,0.0,0.0,0.0,0.0,0.0,0.0,0.0,0.0,0.0,0.0,0.0,0.0,0.0,0.0,0.0,0.0,0.0,0.0,0.0,0.0,0.0,0.0,0.0,0.0,0.0,0.0,0.0,0.0,0.0,0.0,0.0,0.0,0.0,0.0,0.0,0.0,0.0,0.0,0.0,0.0,0.0,0.0,0.0,0.0,0.0,0.0,0.0,0.0,0.0,0.0,0.0,0.0,0.0,0.0,0.0,0.0,0.0,0.0,0.0,0.0,0.0,0.0,0.0,0.0,0.0,-1.2878,-1.4034,-1.5652,-1.7577,-1.972,-2.1232,-2.2552,0.0,0.0,0.0,0.0,0.0,0.0,0.0,0.0,0.0,0.0,0.0,0.0,0.0,0.0,0.0,0.0,0.0,0.0,0.0,0.0,0.0,0.0,0.0,0.0,0.0,0.0,0.0,0.0,0.0,0.0,0.0,0.0,0.0,0.0,0.0,0.0,0.0,0.0,0.0,0.0,0.0,0.0,0.0,0.0,0.0,0.0,0.0,0.0,-2.3685,0.0,0.0,0.0,0.0,0.0,0.0,0.0,0.0,0.0,0.0,0.0,0.0,0.0,0.0,0.0,0.0,0.0,0.0,0.0,0.0,0.0,0.0,0.0,0.0,0.0,0.0,0.0,0.0,0.0,0.0,0.0,0.0,0.0,0.0,0.0,0.0,0.0,0.0,0.0,0.0,0.0,0.0,0.0,0.0,0.0,0.0,0.0,0.0,0.0,0.0,0.0,0.0,0.0,0.0,0.0,0.0,0.0,0.0,0.0,-1.2923,-1.4154,-1.5487,-1.7339,-1.9795,-2.1269,-2.2625,0.0,0.0,0.0,0.0,0.0,0.0,0.0,0.0,0.0,0.0,0.0,0.0,0.0,0.0,0.0,0.0,0.0,0.0,0.0,0.0,0.0,0.0,0.0,0.0,0.0,0.0,0.0,0.0,0.0,0.0,0.0,0.0,0.0,0.0,0.0,0.0,0.0,0.0,0.0,0.0,0.0,0.0,0.0,0.0,0.0,0.0,0.0,0.0,0.0,0.0,0.0,0.0,0.0,0.0,0.0,0.0,0.0,0.0,0.0,0.0,0.0,0.0,0.0,0.0,0.0,0.0,0.0,0.0,0.0,0.0,0.0,0.0,0.0,0.0,0.0,0.0,0.0,0.0,0.0,0.0,0.0,0.0,0.0,0.0,0.0,0.0,0.0,0.0,0.0,0.0,0.0,0.0,0.0,0.0,0.0,0.0,0.0,0.0,0.0,0.0,0.0,0.0,0.0,0.0,0.0,0.0,0.0,-1.1876,-1.3021,-1.4441,-1.559,-1.7487,-2.0153,-2.1352,-2.2457,-2.362,0.0,0.0,0.0,0.0,0.0,0.0,0.0,0.0,0.0,0.0,0.0,0.0,0.0,0.0,0.0,0.0,0.0,0.0,0.0,0.0,0.0,0.0,0.0,0.0,0.0,0.0,0.0,0.0,0.0,0.0,0.0,0.0,0.0,0.0,0.0,0.0,0.0,0.0,-1.8636,-1.9394,0.0,0.0,0.0,0.0,0.0,0.0,0.0,0.0,-2.4188,0.0,0.0,0.0,0.0,0.0,0.0,0.0,0.0,0.0,0.0,0.0,0.0,0.0,0.0,0.0,0.0,0.0,0.0,0.0,0.0,0.0,0.0,0.0,0.0,0.0,0.0,0.0,0.0,0.0,0.0,0.0,0.0,0.0,0.0,0.0,0.0,0.0,0.0,0.0,0.0,0.0,0.0,0.0,0.0,0.0,0.0,0.0,0.0,0.0,0.0,0.0,0.0,0.0,0.0,0.0,0.0,-1.1931,-1.2373,-1.3492,-1.5511,-1.626,-1.7645,-1.9799,-2.0686,-2.1728,-2.3067,0.0,0.0,0.0,0.0,0.0,0.0,0.0,0.0,0.0,0.0,0.0,0.0,0.0,0.0,0.0,0.0,0.0,0.0,0.0,0.0,0.0,0.0,0.0,0.0,0.0,0.0,0.0,0.0,0.0,0.0,0.0,0.0,0.0,0.0,0.0,0.0,0.0,0.0,0.0,-2.0015,-2.0936,0.0,0.0,0.0,0.0,0.0,0.0,0.0,0.0,-2.4632,0.0,0.0,0.0,0.0,0.0,0.0,0.0,0.0,0.0,0.0,0.0,0.0,0.0,0.0,0.0,0.0,0.0,0.0,0.0,0.0,0.0,0.0,0.0,0.0,0.0,0.0,0.0,0.0,0.0,0.0,0.0,0.0,0.0,0.0,0.0,0.0,0.0,0.0,0.0,0.0,0.0,0.0,0.0,0.0,0.0,0.0,0.0,0.0,0.0,0.0,0.0,0.0,0.0,0.0,0.0,-1.1963,-1.3032,-1.4412,-1.6045,-1.6676,-1.8103,-2.0471,-2.1086,-2.1901,0.0,0.0,0.0,0.0,0.0,0.0,0.0,0.0,0.0,0.0,0.0,0.0,0.0,0.0,0.0,0.0,0.0,0.0,0.0,0.0,0.0,0.0,0.0,0.0,0.0,0.0,0.0,0.0,0.0,0.0,0.0,0.0,0.0,0.0,0.0,0.0,0.0,0.0,0.0,0.0,-1.805,-1.9022,-1.9889,0.0,0.0,0.0,0.0,0.0,0.0,-2.3077,-2.4388,0.0,0.0,0.0,0.0,0.0,0.0,0.0,0.0,0.0,0.0,0.0,0.0,0.0,0.0,0.0,0.0,0.0,0.0,0.0,0.0,0.0,0.0,0.0,0.0,0.0,0.0,0.0,0.0,0.0,0.0,0.0,0.0,0.0,0.0,0.0,0.0,0.0,0.0,0.0,0.0,0.0,0.0,0.0,0.0,0.0,0.0,0.0,0.0,0.0,0.0,0.0,0.0,0.0,0.0,0.0,-1.1809,-1.3707,-1.53,-1.6529,-1.7297,-1.8835,-2.1261,-2.1598,-2.2186,0.0,0.0,0.0,0.0,0.0,0.0,0.0,0.0,0.0,0.0,0.0,0.0,0.0,0.0,0.0,0.0,0.0,0.0,0.0,0.0,0.0,0.0,0.0,0.0,0.0,0.0,0.0,0.0,0.0,0.0,0.0,0.0,0.0,0.0,0.0,0.0,0.0,0.0,0.0,0.0,0.0,-1.7682,-1.8629,-1.9774,0.0,0.0,0.0,0.0,-2.1081,-2.2752,0.0,0.0,0.0,0.0,0.0,0.0,0.0,0.0,0.0,0.0,0.0,0.0,0.0,0.0,0.0,0.0,0.0,0.0,0.0,0.0,0.0,0.0,0.0,0.0,0.0,0.0,0.0,0.0,0.0,0.0,0.0,0.0,0.0,0.0,0.0,0.0,0.0,0.0,0.0,0.0,0.0,0.0,0.0,0.0,0.0,0.0,0.0,0.0,0.0,0.0,0.0,0.0,0.0,0.0,0.0,0.0,-1.2018,-1.415,-1.5899,-1.7135,-1.8332,-1.9785,-2.1658,-2.1529,-2.1992,0.0,0.0,0.0,0.0,0.0,0.0,0.0,0.0,0.0,0.0,0.0,0.0,0.0,0.0,0.0,0.0,0.0,0.0,0.0,0.0,0.0,0.0,0.0,0.0,0.0,0.0,0.0,0.0,0.0,0.0,0.0,0.0,0.0,0.0,0.0,0.0,0.0,0.0,0.0,0.0,0.0,-1.9239,-1.8082,-1.9245,-2.0025,0.0,0.0,-2.0556,-2.1575,-2.3499,0.0,0.0,0.0,0.0,0.0,0.0,0.0,0.0,0.0,0.0,0.0,0.0,0.0,0.0,0.0,0.0,0.0,0.0,0.0,0.0,0.0,0.0,0.0,0.0,0.0,0.0,0.0,0.0,0.0,0.0,0.0,0.0,0.0,0.0,0.0,0.0,0.0,0.0,0.0,0.0,0.0,0.0,0.0,0.0,0.0,0.0,0.0,0.0,0.0,0.0,0.0,0.0,0.0,0.0,0.0,-1.2187,-1.2552,-1.505,-1.6981,-1.8098,-1.9199,-2.0571,-2.2262,-2.2039,-2.2396,0.0,0.0,0.0,0.0,0.0,0.0,0.0,0.0,0.0,0.0,0.0,0.0,0.0,0.0,0.0,0.0,0.0,0.0,0.0,0.0,0.0,0.0,0.0,0.0,0.0,0.0,0.0,0.0,0.0,0.0,0.0,0.0,0.0,0.0,0.0,0.0,0.0,0.0,0.0,0.0,0.0,0.0,-1.8391,-1.9397,0.0,0.0,0.0,-2.1239,-2.1705,0.0,0.0,0.0,0.0,0.0,0.0,0.0,0.0,0.0,0.0,0.0,0.0,0.0,0.0,0.0,0.0,0.0,0.0,0.0,0.0,0.0,0.0,0.0,0.0,0.0,0.0,0.0,0.0,0.0,0.0,0.0,0.0,0.0,0.0,0.0,0.0,0.0,0.0,0.0,0.0,0.0,0.0,0.0,0.0,0.0,0.0,0.0,0.0,0.0,0.0,0.0,0.0,0.0,0.0,0.0,0.0,0.0,-1.3439,-1.6361,-1.8318,-1.9248,-2.0265,-2.1512,-2.2829,-2.2885,0.0,0.0,0.0,0.0,0.0,0.0,0.0,0.0,0.0,0.0,0.0,0.0,0.0,0.0,0.0,0.0,0.0,0.0,0.0,0.0,0.0,0.0,0.0,0.0,0.0,0.0,0.0,-1.8165,0.0,0.0,0.0,0.0,0.0,0.0,0.0,0.0,0.0,0.0,0.0,0.0,0.0,0.0,-1.7532,-1.8543,-1.9358,-1.9948,0.0,0.0,-2.1664,-2.1998,-2.4078,-2.5689,0.0,0.0,0.0,0.0,0.0,0.0,0.0,0.0,0.0,0.0,0.0,0.0,0.0,0.0,0.0,0.0,0.0,0.0,0.0,0.0,0.0,0.0,0.0,0.0,0.0,0.0,0.0,0.0,0.0,0.0,0.0,0.0,0.0,0.0,0.0,0.0,0.0,0.0,0.0,0.0,0.0,0.0,0.0,0.0,0.0,0.0,0.0,0.0,0.0,0.0,0.0,0.0,0.0,0.0,0.0,-1.5029,-1.8076,-2.004,-2.0747,-2.1924,-2.2861,-2.3497,-2.409,-2.4117,0.0,0.0,0.0,0.0,0.0,0.0,0.0,0.0,0.0,0.0,0.0,0.0,0.0,0.0,0.0,0.0,0.0,0.0,0.0,0.0,0.0,0.0,0.0,0.0,0.0,0.0,0.0,0.0,0.0,0.0,0.0,0.0,0.0,0.0,0.0,0.0,0.0,0.0,0.0,0.0,0.0,-1.8481,-1.8354,-1.9052,-2.0079,0.0,0.0,-2.1476,-2.2981,-2.4621,-2.5744,-2.5758,0.0,0.0,0.0,0.0,0.0,0.0,0.0,0.0,0.0,0.0,0.0,0.0,0.0,0.0,0.0,0.0,0.0,0.0,0.0,0.0,0.0,0.0,0.0,0.0,0.0,0.0,0.0,0.0,0.0,0.0,0.0,0.0,0.0,0.0,0.0,0.0,0.0,0.0,0.0,0.0,0.0,0.0,0.0,0.0,0.0,0.0,0.0,0.0,0.0,0.0,0.0,0.0,0.0,-1.5125,-1.6042,-1.8512,-2.0429,-2.1731,-2.26,-2.3424,-2.4288,-2.4779,-2.4655,0.0,0.0,0.0,0.0,0.0,0.0,0.0,0.0,0.0,0.0,0.0,0.0,0.0,0.0,0.0,0.0,0.0,0.0,0.0,0.0,0.0,0.0,0.0,0.0,0.0,0.0,0.0,0.0,-1.7929,-1.7374,-1.6359,0.0,0.0,0.0,0.0,0.0,0.0,0.0,0.0,0.0,0.0,-1.9428,-2.0465,-2.0694,0.0,0.0,-2.2833,-2.3177,-2.4185,-2.5571,-2.6162,-2.5325,-2.5104,0.0,0.0,0.0,0.0,0.0,0.0,0.0,0.0,0.0,0.0,0.0,0.0,0.0,0.0,0.0,0.0,0.0,0.0,0.0,0.0,0.0,0.0,0.0,0.0,0.0,0.0,0.0,0.0,0.0,0.0,0.0,0.0,0.0,0.0,0.0,0.0,0.0,0.0,0.0,0.0,0.0,0.0,0.0,0.0,0.0,0.0,0.0,0.0,0.0,0.0,0.0,0.0,-1.6366,-1.7309,-1.9578,-2.1458,-2.2839,-2.3341,-2.4153,-2.5123,-2.567,-2.5586,0.0,0.0,0.0,0.0,0.0,0.0,0.0,0.0,0.0,0.0,0.0,0.0,0.0,0.0,0.0,0.0,0.0,0.0,0.0,0.0,0.0,0.0,0.0,0.0,0.0,0.0,0.0,0.0,-1.7779,-1.7055,-1.5426,0.0,0.0,0.0,0.0,0.0,0.0,0.0,0.0,0.0,0.0,-2.0425,-2.175,-2.1698,-2.1935,-2.2804,-2.3168,-2.3588,-2.4497,-2.5584,-2.6119,-2.5444,0.0,0.0,0.0,0.0,0.0,0.0,0.0,0.0,0.0,0.0,0.0,0.0,0.0,0.0,0.0,0.0,0.0,0.0,0.0,0.0,0.0,0.0,0.0,0.0,0.0,0.0,0.0,0.0,0.0,0.0,0.0,0.0,0.0,0.0,0.0,0.0,0.0,0.0,0.0,0.0,0.0,0.0,0.0,0.0,0.0,0.0,0.0,0.0,0.0,0.0,0.0,0.0,0.0,-1.832,-1.8892,-2.1459,-2.327,-2.4143,-2.4492,-2.5075,-2.6009,-2.6791,-2.6959,-2.6645,0.0,0.0,0.0,0.0,0.0,0.0,0.0,0.0,0.0,0.0,0.0,0.0,0.0,0.0,0.0,0.0,0.0,0.0,0.0,0.0,0.0,0.0,0.0,0.0,0.0,0.0,-1.718,-1.719,-1.6768,0.0,0.0,0.0,0.0,0.0,0.0,0.0,0.0,0.0,0.0,-2.0472,-2.154,-2.1597,-2.1547,-2.179,-2.22,-2.1891,-2.2034,-2.3635,-2.4595,-2.5409,0.0,0.0,0.0,0.0,0.0,0.0,0.0,0.0,0.0,0.0,0.0,0.0,0.0,0.0,0.0,0.0,0.0,0.0,0.0,0.0,0.0,0.0,0.0,0.0,0.0,0.0,0.0,-2.1399,-2.1491,0.0,0.0,0.0,0.0,0.0,0.0,0.0,0.0,0.0,0.0,0.0,-2.0233,-2.1073,0.0,0.0,0.0,0.0,0.0,0.0,0.0,0.0,0.0,0.0,0.0,0.0,-1.8573,-1.9371,-2.1922,-2.3649,-2.4492,-2.5016,-2.5737,-2.6691,-2.7266,-2.7611,-2.7704,0.0,0.0,0.0,0.0,0.0,0.0,0.0,0.0,0.0,0.0,0.0,0.0,0.0,0.0,0.0,0.0,0.0,0.0,0.0,0.0,0.0,0.0,0.0,0.0,0.0,-1.6841,0.0,0.0,0.0,0.0,0.0,0.0,0.0,0.0,0.0,0.0,0.0,-1.8668,-2.0314,-2.0703,-2.1148,-2.1688,-2.2518,-2.3381,0.0,0.0,0.0,0.0,0.0,0.0,0.0,0.0,0.0,0.0,0.0,0.0,0.0,0.0,-2.8903,-2.8133,-2.7987,-2.7758,-2.7311,0.0,0.0,0.0,0.0,0.0,0.0,0.0,0.0,0.0,0.0,0.0,0.0,0.0,0.0,0.0,0.0,-2.3729,0.0,0.0,0.0,0.0,0.0,0.0,0.0,0.0,-2.2196,-2.2981,-2.3077,-2.381,-2.3765,0.0,-2.2303,-2.1182,0.0,0.0,0.0,0.0,0.0,0.0,0.0,0.0,-1.9661,-2.0435,-2.2811,-2.4519,-2.5334,-2.5804,-2.6458,-2.7527,-2.8199,-2.8625,-2.884,-2.7744,-2.6985,0.0,0.0,0.0,0.0,0.0,0.0,0.0,0.0,0.0,0.0,0.0,0.0,0.0,0.0,0.0,0.0,0.0,0.0,0.0,0.0,0.0,0.0,0.0,-1.726,0.0,0.0,0.0,0.0,0.0,0.0,0.0,0.0,0.0,-1.8292,-1.9268,-2.0521,-2.1975,-2.2032,-2.197,-2.1947,0.0,0.0,0.0,0.0,0.0,0.0,0.0,-2.6626,-2.6737,-2.6901,-2.7303,-2.7867,-2.906,-3.0033,-3.0227,0.0,0.0,-3.0173,-3.0085,-3.0089,-2.9653,-2.9646,-2.9423,-2.8546,-2.7718,-2.7186,0.0,0.0,0.0,0.0,0.0,0.0,0.0,0.0,-2.4412,-2.4634,0.0,-2.5016,0.0,0.0,0.0,0.0,0.0,0.0,0.0,0.0,-2.631,-2.736,-2.6704,-2.7172,-2.7095,-2.6653,-2.5298,-2.4785,-2.4873,-2.2083,0.0,0.0,0.0,0.0,0.0,0.0,-2.1652,-2.2178,-2.4265,-2.5791,-2.6645,-2.6714,-2.731,-2.8567,-2.9454,-2.9945,-3.0115,-2.9534,-2.9465,-2.9788,-2.7025,0.0,0.0,0.0,0.0,0.0,0.0,0.0,0.0,0.0,0.0,0.0,0.0,0.0,0.0,0.0,0.0,0.0,0.0,0.0,0.0,-1.811,0.0,0.0,0.0,0.0,0.0,0.0,0.0,0.0,0.0,0.0,-2.0103,-2.1752,-2.3199,-2.3606,0.0,0.0,0.0,0.0,-2.3689,-2.2419,-2.2803,-2.3803,-2.4854,-2.5972,-2.708,-2.8217,0.0,0.0,-2.9992,-3.042,-3.1065,-3.1697,-3.2555,-3.3146,-3.2497,-3.213,-3.1918,-3.1833,-3.1711,-3.14,-3.0193,-2.9653,-2.9391,-2.5162,0.0,0.0,0.0,0.0,-2.4832,-2.6268,-2.8474,-2.8108,-2.8089,-2.8195,-2.7844,0.0,0.0,0.0,0.0,0.0,0.0,-2.4454,-2.6115,-2.6919,-2.7408,-2.7612,-2.7863,-2.7679,-2.7038,-2.6772,-2.6602,-2.6562,-2.5605,-2.3869,-2.1519,0.0,0.0,0.0,0.0,-2.3041,-2.368,-2.5602,-2.6879,-2.7284,-2.7497,-2.8053,-2.8961,-2.9666,-3.0315,-3.0925,-3.0776,-3.0393,-2.972,-2.8384,0.0,0.0,0.0,0.0,0.0,0.0,0.0,0.0,0.0,0.0,0.0,0.0,0.0,0.0,0.0,0.0,0.0,0.0,0.0,-1.903,-2.0051,-2.0292,0.0,0.0,0.0,0.0,0.0,0.0,0.0,0.0,0.0,-2.2957,-2.2787,-2.2683,0.0,0.0,-2.1719,-2.0863,-2.2894,-2.4362,-2.4352,0.0,0.0,0.0,-2.8316,-2.8396,-2.9125,-3.0022,-3.0687,-3.0891,-3.1484,-3.2171,-3.2785,-3.3156,-3.3319,-3.3333,-3.3687,-3.3695,-3.3027,-3.2691,-3.2233,-3.1417,-3.0669,-3.031,-2.7899,-2.6664,-2.6109,-2.641,-2.7305,-2.7552,-2.8922,-3.0952,-3.033,-3.0106,-3.0151,-2.9895,-2.8815,-2.7142,-2.5887,0.0,0.0,0.0,-2.6832,-2.8686,-2.8233,-2.8354,-2.8982,-2.8886,-2.8615,-2.8222,-2.7978,-2.8061,-2.8394,-2.7686,-2.6624,-2.5264,0.0,0.0,-2.2297,-2.3729,-2.4838,-2.5435,-2.6909,-2.7868,-2.8195,-2.8597,-2.9058,-2.9588,-3.0144,-3.0702,-3.1161,-3.1509,-3.1243,-3.0361,-2.9537,-2.8,0.0,0.0,0.0,0.0,0.0,0.0,0.0,0.0,0.0,0.0,0.0,-2.3585,-2.1741,0.0,0.0,0.0,-2.0159,-2.0204,-2.0804,-2.1375,0.0,0.0,0.0,0.0,0.0,0.0,0.0,-2.3018,-2.4007,-2.4784,-2.5075,-2.4652,-2.4297,-2.4241,-2.3654,-2.3065,-2.2548,0.0,-2.5723,-2.5892,-2.7331,-2.8578,-2.9331,-2.9137,-2.9232,-3.0171,-3.052,-3.1009,-3.1636,-3.2201,-3.2571,-3.2989,-3.3418,-3.3809,-3.3975,-3.44,-3.4391,-3.3582,-3.3423,-3.3291,-3.2947,-3.2187,-3.1808,-3.004,-2.9652,-2.8068,-2.8068,-2.9036,-2.9837,-3.0858,-3.1913,-3.1483,-3.1156,-3.1057,-3.1227,-3.0513,-2.9063,-2.8212,0.0,-2.7775,-2.8154,-2.9363,-3.1009,-3.0098,-3.0047,-3.0655,-3.0081,-2.98,-2.9664,-2.9063,-2.9226,-3.0052,-2.8625,-2.8372,-2.9187,-2.7077,-2.5597,-2.4743,-2.5845,-2.679,-2.744,-2.8271,-2.8889,-2.9421,-2.9931,-3.0251,-3.0372,-3.0792,-3.1087,-3.1131,-3.1838,-3.1995,-3.1482,-3.0472,-2.9061,-2.7139,0.0,0.0,0.0,0.0,0.0,0.0,0.0,0.0,0.0,0.0,0.0,0.0,0.0,0.0,0.0,-2.2781,0.0,-2.3217,-2.2648,0.0,0.0,0.0,-2.294,-2.4692,-2.5098,-2.5282,-2.553,0.0,0.0,-2.6543,0.0,-2.7076,-2.6991,-2.6843,-2.6479,-2.5878,-2.6584,-2.7272,-2.6975,-2.7225,-2.7757,-2.8899,-2.912,-2.9671,-3.1041,-3.1215,-3.1294,-3.2193,-3.2444,-3.254,-3.2725,-3.3516,-3.422,-3.4458,-3.4445,-3.4272,-3.3594,-3.3914,-3.4324,-3.4176,-3.3705,-3.3302,-3.0713,-3.0384,-3.0667,-3.122,-3.188,-3.2708,-3.3264,-3.3569,-3.3329,-3.2818,-3.2244,-3.1817,-3.1309,-3.0592,-3.0253,-3.0314,-3.0742,-3.0592,-3.1022,-3.1836,-3.1338,-3.0949,-3.0609,-3.0159,-2.9574,-2.8876,-2.8937,-2.9053,-2.9162,-2.9004,-2.919,-2.9617,-2.9185,-2.8559,-2.7685,-2.8216,-2.8879,-2.9736,-2.994,-3.0147,-3.0418,-3.0658,-3.0851,-3.1043,-3.1394,-3.1667,-3.191,-3.2287,-3.2384,-3.2167,-3.1462,-3.0085,-2.8065,-2.5967,0.0,0.0,0.0,0.0,0.0,0.0,0.0,0.0,0.0,-2.4802,-2.2039,0.0,-2.2059,0.0,-2.3906,-2.5385,-2.592,-2.5973,0.0,0.0,-2.5578,-2.5664,-2.647,-2.738,-2.7492,-2.6132,-2.693,-2.739,-2.7039,-2.7074,-2.7491,-2.8539,-2.7511,-2.6401,-2.5779,-2.6878,-2.7696,-2.7532,-2.8434,-2.9449,-2.9832,-3.017,-3.0433,-3.0829,-3.0815,-3.1121,-3.1983,-3.2137,-3.2434,-3.3158,-3.3512,-3.3853,-3.424,-3.4163,-3.3896,-3.349,-3.3382,-3.3485,-3.3595,-3.3145,-3.2859,-3.081,-3.0591,-3.1896,-3.2698,-3.3067,-3.333,-3.3463,-3.3523,-3.3314,-3.3016,-3.2529,-3.2277,-3.1955,-3.1636,-3.1676,-3.1769,-3.1938,-3.1869,-3.192,-3.202,-3.1626,-3.1102,-3.0347,-3.0067,-2.9609,-2.9049,-2.9226,-2.9401,-2.9498,-2.9623,-2.9884,-3.0222,-3.0404,-3.03,-3.0015,-3.0029,-3.0315,-3.0837,-3.0896,-3.1073,-3.1321,-3.1394,-3.1567,-3.1781,-3.2048,-3.2272,-3.2437,-3.2873,-3.2914,-3.2522,-3.1901,-3.0766,-2.8986,-2.6671,-2.477,0.0,0.0,0.0,0.0,0.0,0.0,0.0,0.0,0.0,0.0,0.0,-2.3179,-2.2926,-2.5433,-2.7013,-2.6835,-2.7244,-2.7572,-2.762,-2.7627,-2.7891,-2.8491,-2.926,-2.9326,-2.821,-2.8751,-2.9129,-2.8761,-2.8701,-2.8975,-2.9701,-2.9044,-2.8248,-2.7775,-2.8179,-2.8533,-2.8586,-2.9116,-2.9597,-2.9797,-3.0306,-3.0673,-3.0835,-3.0968,-3.1185,-3.2137,-3.2149,-3.2299,-3.292,-3.3211,-3.3477,-3.3854,-3.3765,-3.354,-3.3416,-3.3189,-3.3047,-3.3252,-3.3147,-3.3111,-3.083,-3.0635,-3.2249,-3.3006,-3.3257,-3.2894,-3.2786,-3.2895,-3.2663,-3.2561,-3.2561,-3.2761,-3.2664,-3.2299,-3.261,-3.2555,-3.2289,-3.2514,-3.2278,-3.1792,-3.1615,-3.104,-3.0165,-3.0066,-2.9907,-2.9665,-2.9741,-2.996,-3.0326,-3.0266,-3.0418,-3.0896,-3.1029,-3.1321,-3.1724,-3.1379,-3.1263,-3.1452,-3.161,-3.1781,-3.2094,-3.2094,-3.2262,-3.2523,-3.2765,-3.2911,-3.2895,-3.3471,-3.346,-3.2721,-3.2192,-3.1239,-2.9802,-2.7503,-2.5728,0.0,-2.3505,0.0,0.0,0.0,0.0,0.0,0.0,0.0,0.0,-2.5936,-2.465,-2.4811,-2.71,-2.8179,-2.7382,-2.7787,-2.8481,-2.9225,-2.9274,-2.9555,-3.0318,-3.0663,-3.0752,-3.0478,-3.0838,-3.0984,-3.0597,-3.0614,-3.058,-3.0423,-3.058,-3.0397,-3.0104,-2.9649,-2.95,-2.9856,-2.9517,-2.9332,-2.9345,-2.9932,-3.059,-3.1035,-3.1111,-3.1567,-3.2447,-3.2388,-3.2268,-3.2427,-3.2823,-3.3137,-3.3445,-3.3358,-3.323,-3.3266,-3.2925,-3.2786,-3.3138,-3.3422,-3.3591,-3.1987,-3.1809,-3.2058,-3.2595,-3.3255,-3.2849,-3.3199,-3.4068,-3.3536,-3.3339,-3.3409,-3.3742,-3.363,-3.3352,-3.3143,-3.2963,-3.291,-3.2263,-3.1897,-3.1834,-3.1931,-3.1611,-3.1011,-3.1133,-3.0816,-3.0219,-3.0341,-3.0447,-3.0553,-3.0732,-3.1014,-3.1364,-3.1682,-3.1966,-3.2231,0.0,0.0,0.0,-3.2327,-3.2422,-3.2492,-3.2586,-3.2765,-3.2973,-3.333,0.0,-3.3523,-3.3933,-3.3909,-3.3273,-3.2651,0.0,0.0,0.0,0.0,0.0,0.0,0.0,0.0,0.0,0.0,0.0,-3.0128,-2.8972,-2.8306,-2.7365,-2.7114,-2.7829,-2.8494,-2.9195,-2.9872,-3.0063,-3.0203,-3.0355,-3.0265,-3.0213,-3.0406,-3.0868,-3.0958,-3.0484,-3.088,-3.0955,-3.0546,-3.0444,-3.0419,-3.0394,-3.0458,-3.0444,-3.0289,-3.0319,-3.0369,-3.0161,-2.9984,-2.9754,-2.9419,-2.9972,-3.0496,-3.0687,-3.1026,-3.1394,-3.2017,-3.2164,-3.2259,-3.2533,-3.2729,-3.2825,-3.3112,-3.2941,-3.2773,-3.2416,-3.2305,-3.2403,-3.2959,-3.3381,-3.3677,-3.1965,0.0,-3.1791,-3.2129,0.0,-3.2276,-3.2745,-3.3906,-3.3542,-3.3303,-3.3244,-3.3427,-3.3431,-3.3246,-3.3093,-3.2996,-3.2974,-3.2573,-3.2155,-3.1772,-3.2038,-3.1704,-3.0924,-3.1229,-3.1114,-3.0673,-3.0866,-3.1058,-3.1176,-3.1278,-3.1537,-3.1936,-3.212,-3.2358,-3.2648,-3.2866,-3.2866,-3.2648,-3.2796,-3.2904,-3.2942,-3.314,-3.3314,-3.3503,0.0,0.0,0.0,0.0,0.0,0.0,0.0,0.0,0.0,0.0,0.0,-2.9042,-2.8357,-2.8655,-3.0026,-3.009,-3.0788,-3.2583,-3.2129,-3.0998,-2.9268,-2.9539,-2.9965,-3.0164,-3.0338,-3.0683,-3.1211,-3.1176,-3.1189,-3.1136,-3.1057,-3.097,-3.0735,-3.0981,-3.1059,-3.0674,-3.0765,-3.0842,-3.047,-3.025,-3.0108,-3.0095,-3.0183,-3.0154,-2.9838,-3.0266,-3.0573,-3.0572,-3.0583,-3.0467,-3.0121,-3.0293,-3.0677,-3.0857,-3.0994,-3.1324,-3.1853,-3.1979,-3.205,-3.2374,-3.2567,-3.2775,-3.3072,-3.3002,-3.275,-3.236,-3.233,-3.2455,-3.2847,-3.3109,-3.336,-3.1709,-3.2252,-3.1712,-3.189,-3.2538,-3.1882,-3.2343,-3.3532,0.0,0.0,0.0,-3.3051,-3.3074,-3.2996,-3.2962,-3.2946,-3.2909,-3.2781,-3.2416,-3.1749,-3.208,-3.1679,-3.0881,-3.1101,-3.1217,-3.1204,-3.1217,-3.1462,-3.1826,-3.1853,-3.2064,-3.2437,-3.2508,-3.2703,-3.3005,-3.3256,-3.3256,-3.3043,-3.315,-3.3256,-3.3398,-3.3658,-3.3848,-3.3949,-3.4137,-3.4203,-3.4203,-3.3754,-3.3449,-3.3284,-3.2309,-3.1902,-3.2253,-3.1118,-3.0541,-3.0767,-3.0082,-3.0164,-3.135,-3.0994,-3.1566,-3.3532,-3.3532,-3.2601,-3.0528,-3.1556,-3.216,-3.1775,-3.1685,-3.1712,-3.1653,-3.1616,-3.1569,-3.1362,-3.1476,-3.1329,-3.0969,-3.1043,-3.0929,-3.0611,-3.0572,-3.0524,-3.031,-3.0008,-2.9796,-2.9809,-2.9967,-2.9895,-2.9451,-2.9792,-3.0211,-3.0602,-3.0607,-3.0705,-3.0506,-3.0575,-3.0885,-3.0986,-3.0966,-3.1183,-3.1571,-3.1723,-3.1806,-3.2011,-3.2361,-3.264,-3.3016,-3.3,-3.279,-3.2376,-3.2383,-3.2502,-3.27,-3.2766,-3.3048,-3.2068,-3.2349,-3.2043,-3.2488,-3.3317,-3.2661,-3.2853,-3.3571,-3.3772,-3.3637,-3.3317,-3.3622,-3.3576,-3.3295,-3.3081,-3.3001,-3.295,-3.241,-3.2038,0.0,-3.2019,-3.1974,-3.1781,-3.1293,-3.1324,-3.1792,-3.146,-3.153,-3.2089,-3.2382,-3.2586,-3.2749,-3.2904,-3.3134,-3.3398,-3.3555,-3.3658,-3.3607,-3.3591,-3.3694,-3.3797,-3.3949,-3.4101,-3.4218,-3.3891,-3.3769,-3.3879,-3.3321,-3.2773,-3.2243,-3.254,-3.2436,-3.1791,-3.2537,-3.3023,-3.2979,-3.3079,-3.3486,-3.4206,-3.3684,-3.3393,-3.3741,-3.3743,-3.3302,-3.2362,-3.2017,-3.1801,-3.1481,-3.1212,-3.0829,-3.058,-3.1246,-3.1382,-3.0715,-3.0977,-3.1031,-3.0508,-3.0481,-3.0425,-3.0016,-3.0204,-3.0244,-3.0016,-2.9883,-2.979,-2.9804,-2.9807,-2.9891,-2.9947,-2.9534,-2.943,-2.9813,-2.9797,-2.9639,-2.9733,-2.9987,-3.0486,-3.0624,-3.0936,-3.1121,-3.1436,-3.1464,-3.1531,-3.1716,-3.191,-3.2151,-3.2493,-3.2587,-3.2492,-3.214,-3.2057,-3.2076,-3.2167,-3.2414,-3.2924,-3.1884,-3.237,-3.1946,-3.2079,-3.2702,-3.26,-3.2859,-3.3404,-3.3535,-3.3475,-3.3362,-3.3336,-3.3284,-3.3099,-3.2833,-3.2649,-3.2691,-3.2384,-3.2206,-3.2094,-3.2094,-3.2094,-3.2064,-3.187,-3.194,-3.2281,-3.1882,-3.1935,-3.2439,-3.2123,-3.2107,-3.2437,-3.2396,-3.2634,-3.3171,-3.2966,-3.2886,-3.2935,-3.3209,-3.3353,-3.3403,-3.3339,-3.3397,-3.3428,-3.3313,-3.3283,-3.3328,-3.275,-3.2302,-3.201,-3.1867,-3.2009,-3.2407,-3.2862,-3.3419,-3.4131,-3.4219,-3.4347,-3.4672,-3.4106,-3.3661,-3.3572,-3.3393,-3.315,-3.2641,-3.247,-3.2248,-3.194,-3.1678,-3.1415,-3.111,-3.1483,-3.1539,-3.0936,-3.123,-3.1202,-3.0692,-3.0692,-3.0569,-3.0158,-3.0364,-3.0433,-3.0089,-3.0025,-2.9943,-2.9835,-2.9631,-2.9631,-3.0201,-2.9605,-2.9416,-3.0306,-3.0513,-3.0419,-3.0132,-3.0198,-3.0543,-3.0741,-3.0577,-3.0693,-3.0983,-3.103,-3.1081,-3.129,-3.1604,-3.2026,-3.2411,-3.2553,-3.2401,-3.2056,-3.2001,-3.2062,-3.2243,-3.2556,-3.3034,-3.1674,-3.2345,-3.1877,-3.1894,-3.2262,-3.2656,-3.3049,-3.3398,-3.3503,-3.3555,-3.3503,-3.315,-3.2975,-3.2959,-3.2726,-3.2609,-3.2633,-3.2594,-3.2446,-3.2213,-3.2407,-3.2391,-3.2237,-3.2153,-3.223,-3.2407,-3.1898,-3.1903,-3.2306,-3.1731,-3.1658,-3.2088,-3.1935,-3.2159,-3.2853,-3.2364,-3.221,-3.2289,-3.2572,-3.277,-3.2901,-3.2784,-3.2746,-3.2802,-3.2794,-3.284,-3.2832,-3.2219,-3.1849,-3.189,-3.1463,-3.1832,-3.3024,-3.3161,-3.3677,-3.4811,-3.4787,-3.4594,-3.4448,-3.4101,-3.3745,-3.3519,-3.3256,-3.2973,-3.2858,-3.2862,-3.2702,-3.2332,-3.2009,-3.1786,-3.1546,-3.1768,-3.1654,-3.1282,-3.144,-3.1304,-3.0848,-3.089,-3.0811,-3.0427,-3.056,-3.0585,-3.0264,-3.0145,-2.9998,-2.9822,-2.9439,-2.9541,-3.0044,-2.9702,-2.9853,-3.0527,-3.0956,-3.076,-3.0581,-3.0446,-3.051,-3.0763,-3.033,-3.0253,-3.0537,-3.0573,-3.0622,-3.0965,-3.144,-3.1907,-3.2335,-3.2444,-3.2344,-3.208,-3.2168,-3.2287,-3.2432,-3.2664,-3.294,-3.1455,-3.2016,-3.2109,-3.2453,-3.2942,-3.3382,-3.3642,-3.3729,-3.4151,-3.4399,-3.4202,-3.3607,-3.3309,-3.3234,-3.3206,-3.319,-3.3171,-3.319,-3.2845,-3.23,-3.2903,-3.2856,-3.2159,-3.1612,-3.1628,-3.2057,-3.1082,-3.099,-3.1607,-3.1662,-3.1805,-3.2075,-3.2196,-3.2256,-3.2338,-3.2318,-3.2285,-3.2285,-3.1924,-3.2062,-3.2689,-3.2734,-3.2862,-3.3134,-3.2522,-3.2268,-3.2439,-3.1749,-3.1431,-3.1577,-3.197,-3.2568,-3.3313,-3.3946,-3.4644,-3.5249,-3.5165,-3.4851,-3.4399,-3.43,-3.4184,-3.405,-3.3764,-3.3507,-3.3366,-3.3083,-3.2613,-3.2107,-3.1747,-3.1515,-3.1146,-3.1615,-3.164,-3.0942,-3.1203,-3.129,-3.0809,-3.0621,-3.0499,-3.0178,-3.0459,-3.0438,-3.0043,-2.9973,-2.984,-2.9771,-2.9763,-2.9797,-3.0072,-3.0125,-3.0064,-3.0283,-3.0111,-2.9904,-2.9868,-2.995,-3.0178,-3.0225,-3.0168,-3.0154,-3.0225,-3.0395,-3.0669,-3.0964,-3.125,-3.1663,-3.1998,-3.2163,-3.2266,-3.2296,-3.2333,-3.2369,-3.2394,-3.245,-3.2505,-3.212,-3.2508,-3.2617,-3.3033,-3.3626,-3.3848,-3.3874,-3.3827,-3.4526,-3.4372,-3.3647,-3.4119,-3.4218,-3.3915,-3.365,-3.3271,-3.2796,-3.2736,-3.232,-3.1599,-3.2019,-3.2088,-3.1801,-3.1678,-3.1807,-3.1983,-3.1241,-3.1191,-3.1629,-3.1605,-3.1634,-3.1819,-3.1663,-3.1748,-3.2114,-3.1833,-3.1658,-3.1642,-3.1457,-3.1539,-3.1832,-3.1842,-3.1883,-3.2053,-3.1862,-3.1766,-3.181,-3.156,-3.1462,-3.1496,-3.173,-3.2372,-3.3546,-3.3837,-3.449,-3.5487,-3.556,-3.535,-3.4899,-3.4866,-3.4723,-3.448,-3.3893,-3.3453,-3.3221,-3.2969,-3.2645,-3.2257,-3.2081,-3.1807,-3.1422,-3.1719,-3.1706,-3.1073,-3.1205,-3.1234,-3.0939,-3.0881,-3.0762,-3.0507,-3.0702,-3.0747,-3.0387,-3.0447,-3.0447,-3.028,-3.0341,-3.0462,-3.0401,-3.0462,-3.0536,-3.0582,-3.0507,-3.0312,-3.0083,-3.0097,-3.0136,-2.9966,-3.005,-3.0222,-3.0102,-3.0334,-3.0687,-3.1087,-3.1364,-3.1667,-3.2083,-3.215,-3.2247,-3.2358,-3.2398,-3.2398,-3.2398,-3.2238,-3.2253,-3.2602,-3.2873,-3.314,-3.361,-3.4184,-3.4201,-3.4218,-3.417,-3.4655,-3.4392,-3.3778,-3.4516,-3.4739,-3.449,-3.4217,-3.3721,-3.3209,-3.2901,-3.2352,-3.1614,-3.1646,-3.163,-3.1484,-3.1609,-3.1765,-3.1713,-3.1291,-3.1254,-3.1618,-3.1386,-3.1331,-3.1483,-3.1227,-3.1325,-3.1786,-3.1404,-3.119,-3.1207,-3.1269,-3.1329,-3.1406,-3.1389,-3.1389,-3.1428,-3.1559,-3.1614,-3.1651,-3.1688,-3.1706,-3.1688,-3.1726,-3.2256,-3.347,-3.3551,-3.4138,-3.5386,-3.5377,-3.5186,-3.5031,-3.4801,-3.4485,-3.4206,-3.3541,-3.3104,-3.2899,-3.2676,-3.2482,-3.2267,-3.2253,-3.1998,-3.1992,-3.2007,-3.1925,-3.1524,-3.1509,-3.1424,-3.138,-3.1307,-3.1132,-3.0925,-3.0866,-3.0851,-3.0631,-3.0808,-3.0955,-3.0776,-3.0895,-3.1014,-3.0777,-3.063,-3.0543,-3.0602,-3.0572,-3.047,-3.0437,-3.0613,-3.0411,-3.0338,-3.0499,-3.0631,-3.0322,-3.0705,-3.097,-3.1567,-3.1667,-3.1823,-3.2176,-3.2302,-3.2327,-3.2453,-3.2477,-3.2408,-3.233,-3.2101,-3.2134,-3.2687,-3.3118,-3.3642,-3.4036,-3.448,-3.4464,-3.4625,-3.4735,-3.4516,-3.4827,-3.5215,-3.4528,-3.4397,-3.4882,-3.4968,-3.5066,-3.4851,-3.3996,-3.3195,-3.2479,-3.2315,-3.1896,-3.1324,-3.1335,-3.1363,-3.1386,-3.0896,-3.0675,-3.0924,-3.0833,-3.0929,-3.1269,-3.1286,-3.1269,-3.1414,-3.1342,-3.123,-3.1308,-3.1445,-3.1542,-3.1617,-3.1802,-3.1839,-3.1819,-3.1839,-3.1912,-3.2037,-3.2144,-3.2144,-3.2179,-3.2197,-3.2581,-3.3167,-3.3308,-3.3928,-3.4921,-3.4432,-3.4157,-3.4267,-3.3835,-3.3369,-3.3056,-3.2873,-3.2652,-3.2562,-3.2213,-3.1996,-3.1948,-3.1823,-3.1985,-3.2538,-3.2391,-3.2247,-3.2185,-3.2046,-3.1947,-3.1955,-3.1697,-3.1524,-3.1377,-3.1004,-3.0765,-3.0476,-3.0748,-3.1102,-3.1073,-3.1102,-3.1043,-3.0807,-3.0353,-3.0131,-3.0068,-2.9832,-2.9628,-3.0675,-3.0925,-3.1172,-3.1008,-3.073,-3.1275,-3.1522,-3.1667,-3.1781,-3.1951,-3.212,-3.2216,-3.2382,-3.2422,-3.2485,-3.2548,-3.2439,-3.2391,-3.193,-3.2076,-3.2092,-3.2546,-3.2885,-3.3596,-3.3842,-3.3723,-3.4263,-3.4152,-3.3634,-3.4062,-3.3905,-3.3636,-3.4088,-3.4286,-3.4053,-3.4572,-3.4481,-3.3917,-3.3575,-3.3018,-3.2336,-3.2285,-3.1859,-3.12,-3.1091,-3.1075,-3.0967,-3.0849,-3.0895,-3.1038,-3.1134,-3.1269,-3.1423,-3.1579,-3.1654,-3.1674,-3.1728,-3.1783,-3.1856,-3.1929,-3.2037,-3.2161,-3.2283,-3.2352,-3.2335,-3.2161,-3.2073,-3.2108,-3.2197,-3.2249,-3.2266,-3.2387,-3.2721,-3.3406,-3.384,-3.4216,-3.4549,-3.4411,-3.4259,-3.4209,-3.4037,-3.3785,-3.3439,-3.2874,-3.2454,-3.2217,-3.1957,-3.172,-3.1651,-3.186,-3.2176,-3.2221,-3.2233,-3.2029,-3.1844,-3.2026,-3.2185,-3.2231,-3.212,-3.2064,-3.2018,-3.1723,-3.1464,-3.1272,-3.1546,-3.1531,-3.1212,-3.1177,-3.09,-3.0317,-2.9837,-2.9522,-2.9492,-2.933,-2.93,-2.9822,-3.0499,-3.0806,-3.0672,-3.0642,-3.1009,-3.1328,-3.1596,-3.1754,-3.1555,-3.1881,-3.2013,-3.1929,-3.1844,-3.1997,-3.2073,-3.2033,-3.1842,-3.1295,-3.141,-3.1483,-3.2517,-3.2824,-3.3373,-3.351,-3.3457,-3.4016,-3.3891,-3.3283,-3.3713,-3.3534,-3.323,-3.3776,-3.3864,-3.3723,-3.4002,-3.3932,-3.3453,-3.323,-3.2771,-3.2297,-3.2076,-3.1624,-3.1139,-3.1072,-3.1055,-3.0982,-3.1117,-3.1274,-3.1445,-3.1596,-3.1746,-3.1893,-3.1966,-3.2073,-3.2144,-3.2197,-3.2267,-3.2318,-3.237,-3.242,-3.2539,-3.2639,-3.2719,-3.2719,-3.2506,-3.2353,-3.2335,-3.2472,-3.2539,-3.2521,-3.2639,-3.292,-3.3385,-3.3776,-3.4038,-3.4174,-3.3983,-3.3855,-3.3821,-3.3668,-3.3343,-3.3009,-3.2542,-3.2117,-3.1813,-3.155,-3.1382,-3.1328,-3.1419,-3.1585,-3.1613,-3.1694,-3.1744,-3.1581,-3.1789,-3.1933,-3.1951,-3.179,-3.1582,-3.1328,-3.1289,-3.1271,-3.1211,-3.1302,-3.118,-3.0892,-3.0807,-3.054,-2.9954,-2.9409,-2.9182,-2.9098,-2.886,-2.8831,-2.9222,-2.9705,-3.0364,-3.0295,-3.0431,-3.0828,-3.1025,-3.1393,-3.1448,-3.1298,-3.1243,-3.1404,-3.1411,-3.1294,-3.1337,-3.141,-3.1388,-3.1322,-3.0919,-3.0656,-3.083,-3.2597,-3.2854,-3.2911,-3.3229,-3.3579,-3.3797,-3.4012,-3.4027,-3.3577,-3.3723,-3.4145,-3.3532,-3.347,-3.3758,-3.3523,-3.3473,-3.3736,-3.3256,-3.2969,-3.2796,-3.1905,-3.1426,-3.1291,-3.1291,-3.1329,-3.1372,-3.1504,-3.1674,-3.1858,-3.1949,-3.2162,-3.2472,-3.2352,-3.2403,-3.2651,-3.2539,-3.2557,-3.2606,-3.2654,-3.2702,-3.2752,-3.2866,-3.2961,-3.293,-3.2948,-3.2898,-3.2898,-3.2948,-3.2961,-3.2979,-3.3055,-3.3055,-3.3037,-3.3062,-3.3197,-3.3579,-3.3035,-3.2809,-3.301,-3.2522,-3.2154,-3.1895,-3.1665,-3.1661,-3.1465,-3.1139,-3.0996,-3.1015,-3.0775,-3.0533,-3.0648,-3.1046,-3.145,-3.1613,-3.1402,-3.13,-3.1083,-3.0649,-3.0114,-2.9874,-3.0191,-3.0053,-2.9746,-3.0176,-3.0514,-3.0287,-3.0225,-3.0044,-2.9727,-2.9161,-2.8919,-2.8885,-2.8586,-2.8303,-2.8591,-2.8931,-2.9592,-3.0114,-3.0324,-3.0584,-3.0661,-3.0845,-3.0806,-3.0618,-3.0598,-3.0742,-3.1197,-3.1127,-3.1024,-3.1061,-3.0952,-3.0829,-3.0561,-3.0316,-3.0412,-3.2593,-3.2334,-3.293,-3.2959,-3.2837,-3.3438,-3.3565,-3.3262,-3.3146,-3.338,-3.3629,-3.3485,-3.3502,-3.3658,-3.3582,-3.3676,-3.38,-3.3422,-3.327,-3.3319,-3.2982,-3.2454,-3.1982,-3.1912,-3.1912,-3.1912,-3.1984,-3.2038,-3.2179,-3.2301,-3.2456,-3.2523,-3.2588,-3.2603,-3.2734,-3.2737,-3.282,-3.2884,-3.3006,-3.3099,-3.3238,-3.3368,-3.3473,-3.3512,-3.3512,-3.353,-3.3512,-3.3309,-3.3202,-3.3202,-3.3298,-3.3256,-3.3042,-3.2979,-3.3059,-3.3123,-3.2948,-3.2826,-3.2889,-3.2648,-3.2283,-3.2073,-3.1984,-3.1854,-3.1644,-3.1402,-3.1297,-3.1274,-3.111,-3.0895,-3.0848,-3.0817,-3.1051,-3.1126,-3.1405,-3.147,-3.1246,-3.1097,-3.0833,-3.0456,-3.0514,-3.0514,-3.0375,-3.0545,-3.0344,-3.0018,-2.9906,-2.9682,-2.9035,-2.8682,-2.8223,-2.8197,-2.7871,-2.789,-2.8305,-2.856,-2.8882,-2.9423,-2.9781,-2.9981,-3.0074,-3.0191,-3.0134,-3.0126,-3.0037,-3.0232,-3.0696,-3.0877,-3.072,-3.0561,-3.0401,-3.0252,-3.0068,-3.0129,-3.0256,-3.277,-3.2301,-3.2827,-3.2913,-3.2659,-3.3333,-3.3373,-3.3086,-3.3262,-3.3397,-3.3502,-3.3671,-3.3753,-3.3715,-3.3615,-3.3702,-3.3854,-3.3401,-3.3194,-3.3203,-3.2871,-3.2438,-3.2002,-3.2179,-3.2249,-3.2284,-3.2301,-3.237,-3.2438,-3.2573,-3.2705,-3.2852,-3.293,-3.3019,-3.3093,-3.316,-3.3238,-3.3298,-3.3408,-3.3569,-3.3698,-3.3815,-3.3895,-3.3947,-3.3947,-3.3928,-3.3921,-3.3797,-3.3643,-3.3522,-3.3587,-3.3502,-3.3309,-3.3256,-3.3196,-3.3055,-3.3011,-3.2948,-3.2916,-3.2773,-3.2639,-3.247,-3.2335,-3.2179,-3.1979,-3.176,-3.1602,-3.1584,-3.1426,-3.1291,-3.1173,-3.1072,-3.0983,-3.092,-3.0936,-3.1029,-3.0828,-3.0688,-3.0497,-3.0129,-3.0127,-3.0125,-3.0125,-3.006,-2.9984,-2.9609,-2.9467,-2.9277,-2.8601,-2.8394,-2.8201,-2.8054,-2.8054,-2.8103,-2.8152,-2.8232,-2.8281,-2.8716,-2.9138,-2.9292,-2.935,-2.9518,-2.9539,-2.9657,-2.9675,-2.9816,-3.0226,-3.024,-3.0202,-3.0035,-3.0061,-2.9964,-2.9972,-3.0125,-3.0248,-3.3019,-3.2777,-3.2781,-3.2908,-3.3082,-3.3277,-3.34,-3.3587,-3.3625,-3.3697,-3.3778,-3.3817,-3.3876,-3.3784,-3.331,-3.3355,-3.3822,-3.3208,-3.2617,-3.2281,-3.1797,-3.1391,-3.1535,-3.2013,-3.2313,-3.2488,-3.2606,-3.2654,-3.2737,-3.293,-3.3152,-3.3334,-3.3393,-3.353,-3.3652,-3.3726,-3.3698,-3.3798,-3.3939,-3.3998,-3.4023,-3.4148,-3.4221,-3.4221,-3.4221,-3.4221,-3.4245,-3.4293,-3.4197,-3.3895,-3.3842,-3.386,-3.378,-3.3671,-3.353,-3.335,-3.319,-3.3086,-3.2979,-3.2948,-3.2866,-3.2752,-3.2573,-3.2439,-3.2214,-3.1963,-3.1817,-3.1792,-3.1668,-3.1542,-3.1462,-3.1423,-3.1263,-3.0871,-3.0488,-3.0008,-2.9489,-2.9507,-2.9605,-2.9357,-2.9169,-2.9107,-2.9171,-2.914,-2.9077,-2.8983,-2.8951,-2.8809,-2.8715,-2.8573,-2.8493,-2.8396,-2.825,-2.825,-2.8266,-2.8314,-2.8314,-2.8455,-2.8832,-2.8863,-2.8958,-2.9121,-2.9344,-2.9419,-2.9523,-2.9627,-2.9762,-2.9976,-3.0064,-3.0103,-3.0038,-2.9973,-3.0027,-3.0241,-3.0351,-3.2961,-3.2448,-3.3125,-3.3128,-3.2665,-3.2748,-3.3176,-3.3633,-3.3283,-3.3451,-3.3833,-3.3566,-3.3422,-3.3403,-3.2799,-3.2635,-3.2727,-3.2477,-3.1827,-3.1162,-3.0785,-3.1175,-3.1779,-3.2056,-3.2468,-3.2978,-3.316,-3.3238,-3.3196,-3.3386,-3.3502,-3.3549,-3.3689,-3.3762,-3.3921,-3.391,-3.3994,-3.4076,-3.421,-3.4279,-3.4325,-3.4431,-3.4517,-3.458,-3.4517,-3.4517,-3.4561,-3.4539,-3.4473,-3.4269,-3.4245,-3.4148,-3.3991,-3.3921,-3.3842,-3.368,-3.3559,-3.3444,-3.3386,-3.3178,-3.3037,-3.2993,-3.2752,-3.2558,-3.2493,-3.2196,-3.2055,-3.1985,-3.1877,-3.1671,-3.1538,-3.1406,-3.1173,-3.0773,-3.0476,-3.0152,-2.9842,-2.9798,-2.9694,-2.9486,-2.9515,-2.938,-2.9198,-2.9167,-2.9259,-2.9121,-2.8967,-2.8842,-2.8763,-2.8621,-2.8525,-2.8444,-2.8363,-2.8411,-2.8411,-2.8411,-2.8411,-2.8411,-2.8585,-2.8745,-2.8904,-2.9077,-2.94,-2.9621,-2.9742,-2.9858,-3.0092,-3.0314,-3.0274,-3.0284,-3.0326,-3.0342,-3.0384,-3.051,-3.0593,-3.3652,-3.3083,-3.364,-3.3382,-3.2702,-3.2791,-3.2921,-3.2945,-3.2734,-3.2825,-3.3146,-3.2975,-3.2837,-3.2786,-3.2147,-3.2052,-3.2259,-3.1902,-3.1374,-3.0747,-3.0163,-3.0423,-3.1235,-3.1819,-3.2556,-3.3002,-3.3441,-3.3605,-3.3605,-3.3753,-3.3815,-3.3868,-3.3998,-3.3957,-3.3757,-3.3794,-3.3836,-3.396,-3.4076,-3.4276,-3.4617,-3.4773,-3.487,-3.4908,-3.487,-3.4851,-3.487,-3.4831,-3.4711,-3.4539,-3.4473,-3.4409,-3.4288,-3.4197,-3.4148,-3.4049,-3.3868,-3.378,-3.3726,-3.3541,-3.3368,-3.3298,-3.3037,-3.2902,-3.2811,-3.2558,-3.2437,-3.2433,-3.2248,-3.2055,-3.1856,-3.1614,-3.1308,-3.1095,-3.0871,-3.0584,-3.0146,-3.0017,-2.9886,-2.9738,-2.9649,-2.9589,-2.9213,-2.9259,-2.9198,-2.909,-2.8936,-2.8889,-2.8873,-2.87,-2.8621,-2.8589,-2.8604,-2.8604,-2.8652,-2.8652,-2.8636,-2.8636,-2.8811,-2.8889,-2.8982,-2.9213,-2.9515,-2.9782,-2.9941,-3.0113,-3.0359,-3.0584,-3.0708,-3.0733,-3.0773,-3.0757,-3.0757,-3.0733,-3.0797,-3.4412,-3.3855,-3.3881,-3.3491,-3.2794,-3.2885,-3.2518,-3.2075,-3.1989,-3.2106,-3.2258,-3.2241,-3.2184,-3.2145,-3.146,-3.1459,-3.2026,-3.1341,-3.1009,-3.049,-2.998,-2.9829,-3.0397,-3.1685,-3.2375,-3.275,-3.3401,-3.3611,-3.3644,-3.3802,-3.3963,-3.3985,-3.4139,-3.4036,-3.3634,-3.3468,-3.3431,-3.3488,-3.3597,-3.3894,-3.4327,-3.453,-3.4549,-3.4566,-3.4585,-3.4606,-3.4666,-3.478,-3.4734,-3.4369,-3.4499,-3.4386,-3.4363,-3.4239,-3.4267,-3.4236,-3.4091,-3.408,-3.4005,-3.3921,-3.3762,-3.3625,-3.3437,-3.3298,-3.3158,-3.2997,-3.2894,-3.2818,-3.2749,-3.2521,-3.2266,-3.1908,-3.1631,-3.1504,-3.1432,-3.1027,-3.0551,-3.0205,-3.006,-2.9897,-2.9738,-2.956,-2.9335,-2.9182,-2.909,-2.9409,-2.9243,-2.9198,-2.9136,-2.9059,-2.8982,-2.8967,-2.892,-2.8889,-2.8889,-2.8889,-2.892,-2.8951,-2.9198,-2.9335,-2.9289,-2.947,-2.9738,-2.9957,-3.013,-3.0342,-3.0568,-3.0773,-3.0935,-3.0871,-3.0733,-3.0918,-3.1061,-3.0958,-3.0958,-3.2968,-3.175,-3.2427,-3.2182,-3.1505,-3.1487,-3.1713,-3.2032,-3.1525,-3.1637,-3.2033,-3.1673,-3.1493,-3.1496,-3.0776,-3.0468,-3.078,-3.0521,-3.0257,-3.0082,-2.9954,-2.9827,-3.0208,-3.1291,-3.2186,-3.2715,-3.3152,-3.3306,-3.3306,-3.3418,-3.3529,-3.3573,-3.3652,-3.3695,-3.3596,-3.2966,-3.2773,-3.2893,-3.297,-3.3097,-3.3286,-3.3456,-3.3499,-3.3489,-3.347,-3.3403,-3.3485,-3.3954,-3.3921,-3.3544,-3.3737,-3.3899,-3.3466,-3.375,-3.398,-3.4012,-3.4308,-3.4423,-3.4302,-3.4208,-3.4043,-3.3928,-3.3752,-3.355,-3.3472,-3.3334,-3.3196,-3.3094,-3.3027,-3.283,-3.2506,-3.2144,-3.1967,-3.1896,-3.1844,-3.1716,-3.1475,-3.1043,-3.0634,-3.0401,-3.0316,-3.0113,-2.9766,-2.9826,-2.9766,-2.9722,-2.9633,-2.9544,-2.9499,-2.9425,-2.9335,-2.9259,-2.9213,-2.9213,-2.9321,-2.9305,-2.938,-2.9409,-2.9633,-2.9793,-2.981,-2.987,-3.013,-3.0274,-3.0333,-3.0568,-3.0838,-3.0797,-3.0902,-3.0797,-3.0814,-3.1021,-3.1162,-3.11,-3.1235,-3.2486,-3.1765,-3.2199,-3.1915,-3.1233,-3.1191,-3.1208,-3.117,-3.0829,-3.088,-3.1178,-3.0871,-3.078,-3.0811,-3.0395,-3.0218,-3.0226,-3.0218,-3.0157,-3.0079,-3.0026,-3.0011,-3.0209,-3.0957,-3.1844,-3.2274,-3.3126,-3.3221,-3.2976,-3.294,-3.3014,-3.3031,-3.3086,-3.292,-3.2794,-3.2326,-3.2204,-3.225,-3.2319,-3.2474,-3.2833,-3.2906,-3.294,-3.2945,-3.2964,-3.308,-3.3627,-3.3998,-3.399,-3.3774,-3.3885,-3.3906,-3.3521,-3.4022,-3.4377,-3.4464,-3.4565,-3.4813,-3.4734,-3.4591,-3.442,-3.4255,-3.4093,-3.3965,-3.3835,-3.3671,-3.356,-3.3439,-3.3332,-3.3147,-3.2802,-3.2636,-3.2468,-3.2334,-3.2282,-3.2179,-3.1946,-3.1576,-3.1168,-3.0979,-3.084,-3.0634,-3.0435,-3.0342,-3.0258,-3.0097,-2.981,-2.9722,-2.981,-2.9766,-2.9677,-2.9589,-2.9544,-2.9605,-2.9738,-2.981,-2.9924,-2.9995,-3.0166,-3.0293,-3.0351,-3.0452,-3.0568,-3.0518,-3.041,-3.0804,-3.1044,-3.0988,-3.1106,-3.147,-3.1545,-3.1376,-3.1376,-3.162,-3.1731,-3.2243,-3.2175,-3.2172,-3.1787,-3.1249,-3.1193,-3.0852,-3.0259,-3.0155,-3.0234,-3.0088,-3.0151,-3.0324,-3.0126,-3.0094,-3.0113,-3.0107,-3.0068,-2.9947,-2.9896,-2.9634,-2.9545,-2.9786,-3.0562,-3.1062,-3.114,-3.2414,-3.2775,-3.2471,-3.2384,-3.2397,-3.2462,-3.2492,-3.2344,-3.1833,-3.1534,-3.1521,-3.1594,-3.1613,-3.1825,-3.2367,-3.2503,-3.2503,-3.2493,-3.2484,-3.2724,-3.3218,-3.3624,-3.3885,-3.4048,-3.4272,-3.4313,-3.4403,-3.4724,-3.5163,-3.511,-3.5066,-3.5159,-3.51,-3.498,-3.4813,-3.4615,-3.4548,-3.439,-3.4221,-3.413,-3.408,-3.3876,-3.3689,-3.3444,-3.322,-3.3073,-3.289,-3.2706,-3.2645,-3.2555,-3.2196,-3.1969,-3.1856,-3.138,-3.1168,-3.0918,-3.074,-3.0593,-3.0535,-3.0418,-3.0064,-2.9843,-2.9897,-2.9907,-2.9648,-2.9556,-2.9448,-2.9783,-2.9995,-3.0048,-3.0159,-3.0212,-3.041,-3.0449,-3.049,-3.0268,-3.0194,-3.0425,-3.0523,-3.0858,-3.1104,-3.1138,-3.1422,-3.2039,-3.1985,-3.1545,-3.1731,-3.2162,-3.2162,-3.1335,-3.0765,-3.0756,-3.0664,-3.0579,-3.0634,-3.0597,-3.0442,-3.0432,-3.0027,-2.9534,-3.0095,-2.9978,-2.9543,-2.9374,-2.9382,-2.9385,-2.9377,-2.9357,-2.9203,-2.8837,-2.8499,-2.8942,-2.9976,-3.0279,-3.01,-3.1142,-3.1809,-3.1704,-3.1642,-3.1757,-3.1827,-3.1808,-3.1707,-3.1564,-3.1225,-3.0903,-3.0987,-3.1013,-3.1149,-3.1241,-3.1338,-3.1358,-3.1358,-3.139,-3.1514,-3.166,-3.2133,-3.2405,-3.2514,-3.3789,-3.4364,-3.4406,-3.4531,-3.4604,-3.4801,-3.5148,-3.5321,-3.521,-3.5254,-3.5174,-3.5049,-3.4962,-3.4851,-3.4694,-3.4614,-3.4494,-3.4199,-3.3889,-3.367,-3.3762,-3.3367,-3.3002,-3.2755,-3.2751,-3.284,-3.2411,-3.2321,-3.2234,-3.1445,-3.1236,-3.1016,-3.074,-3.043,-3.0199,-3.0011,-2.9824,-2.9493,-2.9371,-2.9412,-2.9297,-2.9222,-2.9222,-2.9707,-3.0185,-3.0219,-3.0253,-3.0218,-3.0279,-3.0185,-3.0096,-2.9719,-2.9679,-3.0019,-3.0349,-3.0662,-3.0916,-3.1116,-3.13,-3.155,-3.1548,-3.1531,-3.1724,-3.1945,-3.2089,-3.0805,-3.0471,-3.0501,-3.05,-3.0509,-3.0582,-3.0599,-3.0607,-3.0587,-3.0125,-2.9608,-2.9668,-2.9418,-2.8801,-2.8589,-2.8589,-2.8628,-2.8634,-2.8623,-2.8473,-2.821,-2.8299,-2.8551,-2.9621,-2.9934,-3.0152,-3.0772,-3.1047,-3.0929,-3.1006,-3.1107,-3.109,-3.109,-3.1167,-3.1207,-3.0886,-3.0684,-3.0697,-3.0726,-3.073,-3.07,-3.0715,-3.0724,-3.0739,-3.0786,-3.0977,-3.1463,-3.1729,-3.228,-3.2771,-3.3473,-3.3838,-3.3944,-3.4,-3.4249,-3.4847,-3.5085,-3.5098,-3.4944,-3.4901,-3.4802,-3.4751,-3.499,-3.5193,-3.5078,-3.4954,-3.4674,-3.4093,-3.3388,-3.3022,-3.2948,-3.2896,-3.2532,-3.2238,-3.2368,-3.222,-3.1815,-3.1874,-3.153,-3.1083,-3.0973,-3.0693,-3.0297,-3.0012,-2.9789,-2.9599,-2.9513,-2.9241,-2.8942,-2.8893,-2.8893,-2.8864,-2.8824,-2.9201,-2.9719,-2.999,-3.0113,-3.0145,-3.0163,-3.0037,-2.9947,-2.9687,-2.9575,-2.9685,-3.0021,-3.023,-3.0644,-3.0832,-3.0946,-3.1144,-3.1452,-3.1659,-3.1621,-3.1653,-3.1845,-3.0172,-3.0025,-3.0296,-3.0392,-3.0374,-3.0225,-3.0283,-3.0411,-3.0224,-2.9642,-2.9006,-2.8997,-2.8636,-2.807,-2.7978,-2.8023,-2.7928,-2.8007,-2.8196,-2.8198,-2.815,-2.8515,-2.8982,-2.9449,-2.9736,-3.0133,-3.0675,-3.0651,-3.0645,-3.0681,-3.0649,-3.0696,-3.0653,-3.0646,-3.0711,-3.0754,-3.0765,-3.0782,-3.0772,-3.0772,-3.0756,-3.0602,-3.0623,-3.076,-3.0742,-3.1074,-3.1499,-3.1602,-3.209,-3.2578,-3.2973,-3.3114,-3.3255,-3.3278,-3.3902,-3.49,-3.4653,-3.447,-3.4492,-3.4229,-3.4237,-3.4434,-3.4759,-3.4847,-3.4738,-3.4416,-3.4275,-3.3578,-3.2956,-3.2476,-3.2502,-3.226,-3.2028,-3.1761,-3.1675,-3.1496,-3.1038,-3.0815,-3.0721,-3.0514,-3.0582,-3.0328,-2.9833,-2.9962,-2.9757,-2.9634,-2.9542,-2.9039,-2.8716,-2.8488,-2.8414,-2.8386,-2.8448,-2.8653,-2.91,-2.9571,-2.9692,-2.9814,-2.9903,-2.9917,-2.9869,-2.9796,-2.9621,-2.9296,-2.9254,-2.9493,-3.0034,-3.0582,-3.0761,-3.1052,-3.1556,-3.1639,-3.1315,-3.1416,-3.1667,-2.9089,-2.8461,-2.9311,-2.9624,-2.9538,-2.8969,-2.9058,-2.9533,-2.8992,-2.8092,-2.7537,-2.8032,-2.7879,-2.7348,-2.777,-2.7644,-2.7429,-2.7737,-2.8034,-2.802,-2.8045,-2.8181,-2.8496,-2.9184,-2.9445,-2.9926,-3.0489,-3.0716,-3.0684,-3.0672,-3.0672,-3.0671,-3.0686,-3.0681,-3.0576,-3.0706,-3.0792,-3.0759,-3.0644,-3.0605,-3.0481,-2.991,-2.9979,-3.0323,-3.0479,-3.0551,-3.074,-3.084,-3.1195,-3.1923,-3.2059,-3.248,-3.3114,-3.3239,-3.3287,-3.3524,-3.3619,-3.3813,-3.4135,-3.3793,-3.3629,-3.389,-3.3945,-3.3523,-3.3546,-3.3413,-3.3225,-3.3091,-3.2615,-3.2289,-3.2141,-3.2267,-3.1911,-3.1473,-3.1161,-3.0792,-3.0281,-2.9285,-2.9233,-2.8869,-2.8602,-2.9152,-2.9244,-2.9568,-2.9791,-2.969,-2.945,-2.8779,-2.8028,-2.743,-2.7913,-2.7928,-2.7552,-2.7705,-2.839,-2.8866,-2.9071,-2.9295,-2.9528,-2.9644,-2.9597,-2.9418,-2.9058,-2.88,-2.8774,-2.8981,-2.9557,-3.0053,-3.0466,-3.072,-3.0903,-3.0875,-3.079,-3.1074,-3.1474,-2.8076,-2.8227,-2.9172,-2.9252,-2.8856,-2.8935,-2.8934,-2.8752,-2.8444,-2.7807,-2.716,-2.7355,-2.7059,-2.6497,-2.6667,-2.6581,-2.6445,-2.7148,-2.7519,-2.7577,-2.7617,-2.7812,-2.8259,-2.8651,-2.8964,-2.9646,-3.0309,-3.0756,-3.0752,-3.0703,-3.0739,-3.0758,-3.0716,-3.0439,-3.0273,-3.0546,-3.0071,-2.9593,-2.9272,-2.9286,-2.9195,-2.8969,-2.8899,-2.9236,-2.926,-2.9483,-2.9797,-2.9881,-3.0268,-3.0923,-3.1108,-3.1271,-3.1581,-3.1612,-3.1564,-3.1635,-3.1635,-3.2087,-3.2851,-3.2731,-3.2905,-3.3102,-3.3124,-3.332,-3.3092,-3.2572,-3.2279,-3.2382,-3.1791,-3.1346,-3.0948,-3.0679,-3.0102,-2.9784,-2.9784,-2.9313,-2.8647,-2.8019,-2.7412,-2.7026,-2.6705,-2.7142,-2.767,-2.8062,-2.8094,-2.7996,-2.7531,-2.6788,-2.5895,-2.498,-2.5987,-2.7454,-2.6997,-2.6559,-2.7431,-2.8141,-2.8202,-2.8441,-2.8915,-2.9036,-2.9112,-2.892,-2.8312,-2.8481,-2.8858,-2.9064,-2.9186,-2.9478,-2.9824,-2.9981,-3.0126,-3.0111,-3.022,-3.0979,-3.1181,-2.7046,-2.7669,-2.8563,-2.8569,-2.8008,-2.8457,-2.8359,-2.8004,-2.769,-2.7259,-2.681,-2.6654,-2.6302,-2.5835,-2.5781,-2.5853,-2.5814,-2.6607,-2.6942,-2.7041,-2.7258,-2.7709,-2.8121,-2.8373,-2.8627,-2.9254,-2.9587,-2.99,-3.0075,-3.0292,-3.0469,-3.0779,-3.0781,-3.033,-2.9886,-2.9884,-2.9643,-2.8457,-2.8032,-2.8015,-2.8139,-2.7951,-2.7984,-2.8048,-2.8119,-2.8311,-2.8872,-2.9197,-2.9631,-2.9929,-3.0367,-3.054,-3.0621,-3.0606,-3.0568,-3.0507,-3.0375,-3.0373,-3.1078,-3.1378,-3.1734,-3.1997,-3.1854,-3.187,-3.187,-3.145,-3.0912,-3.0742,-3.0312,-2.9648,-2.9196,-2.8871,-2.8357,-2.7845,-2.7415,-2.703,-2.6587,-2.5889,-2.5383,-2.5057,-2.4755,-2.4607,-2.5206,-2.5998,-2.6243,-2.6213,-2.5655,-2.4894,-2.4118,-2.329,-2.4397,-2.6121,-2.5873,-2.5413,-2.592,-2.6691,-2.6991,-2.7313,-2.7761,-2.7755,-2.7436,-2.7339,-2.6965,-2.752,-2.8185,-2.761,-2.6849,-2.7998,-2.913,-2.9467,-2.9654,-2.9531,-2.9756,-3.0443,-3.0674,-2.5818,-2.5945,-2.683,-2.7175,-2.7038,-2.6255,-2.6477,-2.7009,-2.6283,-2.6007,-2.5929,-2.5829,-2.5837,-2.5702,-2.5691,-2.5696,-2.5732,-2.661,-2.691,-2.7231,-2.7683,-2.7897,-2.8056,-2.8073,-2.8164,-2.8314,-2.8691,-2.8688,-2.8657,-2.9363,-2.9974,-3.0657,-3.047,-3.0125,-2.9531,-2.903,-2.8754,-2.7721,-2.716,-2.7099,-2.7275,-2.7209,-2.7026,-2.7574,-2.7736,-2.7849,-2.795,-2.8394,-2.881,-2.9015,-2.9448,-2.9759,-2.9704,-2.9702,-2.9691,-2.9608,-2.9153,-2.906,-2.9344,-2.9999,-3.0898,-3.1088,-3.068,-2.9816,-2.9849,-2.8855,-2.8372,-2.8653,-2.8695,-2.8427,-2.7953,-2.7452,-2.6925,-2.6225,-2.554,-2.4751,-2.4261,-2.3634,-2.3178,-2.2989,-2.252,-2.1831,-2.182,-2.2407,-2.4606,-2.4812,-2.4393,-2.3645,-2.3256,-2.2707,-2.3435,-2.4369,-2.4401,-2.4251,-2.427,-2.4794,-2.5401,-2.5526,-2.5738,-2.5456,-2.5043,-2.5069,-2.562,-2.5502,-2.5842,-2.5166,-2.5001,-2.6407,-2.7704,-2.8793,-2.9066,-2.8201,-2.8175,-2.8695,-2.9042,-2.5609,-2.5628,-2.6039,-2.62,-2.6227,-2.642,-2.6384,-2.6154,-2.5837,-2.5684,-2.5648,-2.5639,-2.5642,-2.5645,-2.5671,-2.5675,-2.5777,-2.6552,-2.6816,-2.6991,-2.7268,-2.7374,-2.7394,-2.74,-2.7391,-2.7503,-2.7809,-2.809,-2.8201,-2.8411,-2.8573,-2.9071,-2.9524,-2.9214,-2.8623,-2.7652,-2.7119,-2.7015,-2.6285,-2.6025,-2.6044,-2.6033,-2.5896,-2.6205,-2.6263,-2.6551,-2.6932,-2.7209,-2.7619,-2.8011,-2.8322,-2.8502,-2.8582,-2.8518,-2.8518,-2.851,-2.7967,-2.7765,-2.7816,-2.833,-2.8765,-2.8861,-2.8461,-2.8102,-2.8102,-2.767,-2.7576,-2.7663,-2.7556,-2.7299,-2.6876,-2.6227,-2.5546,-2.4714,-2.3717,-2.2631,-2.1778,-2.1072,-2.0345,-1.9887,-1.8925,-1.8031,-1.8214,-1.8562,-2.1204,-2.3385,-2.2922,-2.2303,-2.1463,-2.1105,-2.1409,-2.183,-2.182,-2.2387,-2.2456,-2.3103,-2.3759,-2.348,-2.3234,-2.2792,-2.2341,-2.4001,-2.4365,-2.4057,-2.346,-2.3099,-2.3486,-2.4974,-2.5995,-2.6586,-2.6523,-2.6014,-2.6293,-2.6956,-2.7228,-2.5537,-2.5517,-2.5599,-2.5639,-2.5753,-2.6321,-2.6247,-2.5782,-2.5694,-2.566,-2.5615,-2.5609,-2.5604,-2.5624,-2.5652,-2.5652,-2.5727,-2.6145,-2.6387,-2.6465,-2.6465,-2.647,-2.646,-2.6442,-2.6437,-2.6618,-2.6863,-2.7133,-2.6947,-2.7329,-2.7469,-2.7634,-2.7923,-2.7758,-2.7325,-2.6109,-2.5518,-2.5759,-2.5565,-2.5141,-2.5241,-2.5217,-2.5184,-2.5313,-2.5351,-2.5532,-2.6001,-2.6288,-2.6621,-2.6972,-2.7236,-2.7269,-2.7219,-2.7131,-2.7097,-2.6969,-2.6766,-2.6526,-2.6632,-2.7053,-2.7262,-2.7599,-2.7138,-2.6934,-2.6801,-2.6585,-2.6181,-2.6223,-2.6227,-2.6021,-2.5298,-2.4338,-2.3164,-2.2106,-2.0859,-1.9776,-1.8918,-1.8157,-1.7348,-1.6634,-1.58,-1.5262,-1.4978,-1.5317,-1.6335,-1.8377,-1.8112,-1.7718,-1.7548,-1.7479,-1.8066,-1.8516,-1.8908,-1.9668,-2.0475,-1.9662,-1.8865,-1.8773,-1.8726,-1.9298,-1.9646,-2.1107,-2.1044,-1.9369,-1.9241,-2.0491,-2.0551,-2.0053,-2.184,-2.4043,-2.3976,-2.3974,-2.4846,-2.544,-2.5453,-2.5485,-2.5518,-2.5499,-2.555,-2.5607,-2.562,-2.5682,-2.5671,-2.5605,-2.5595,-2.5581,-2.5581,-2.5586,-2.5586,-2.5591,-2.5571,-2.5556,-2.5615,-2.5687,-2.5771,-2.579,-2.564,-2.5626,-2.5642,-2.5688,-2.5453,-2.5678,-2.5726,-2.5425,-2.606,-2.6251,-2.6184,-2.6322,-2.6363,-2.6316,-2.5438,-2.4999,-2.4999,-2.494,-2.4934,-2.4987,-2.4974,-2.4923,-2.4778,-2.4917,-2.5088,-2.4959,-2.5397,-2.5697,-2.5858,-2.6209,-2.634,-2.6433,-2.6376,-2.6394,-2.6431,-2.5686,-2.5329,-2.5326,-2.632,-2.6464,-2.6408,-2.5816,-2.5539,-2.5389,-2.4946,-2.4283,-2.4189,-2.3776,-2.3484,-2.2738,-2.1909,-2.0745,-1.9648,-1.8438,-1.7288,-1.6482,-1.5575,-1.4856,-1.4255,-1.3708,-1.3149,-1.2516,-1.2149,-1.2189,-1.2788,-1.2867,-1.3042,-1.3394,-1.3665,-1.4199,-1.4668,-1.5105,-1.5261,-1.5511,-1.4617,-1.3998,-1.395,-1.4641,-1.5757,-1.5843,-1.6163,-1.5625,-1.4474,-1.5038,-1.6292,-1.528,-1.4108,-1.6549,-1.9021,-2.16,-2.2348,-2.3261,-2.2706,-2.1289,-2.5348,-2.5359,-2.541,-2.541,-2.5401,-2.5492,-2.5543,-2.5543,-2.5459,-2.543,-2.5464,-2.5456,-2.5485,-2.5493,-2.5485,-2.546,-2.5453,-2.5398,-2.5398,-2.5393,-2.5393,-2.5374,-2.5348,-2.5303,-2.5255,-2.5215,-2.513,-2.5012,-2.4981,-2.5253,-2.5186,-2.5098,-2.5082,-2.5035,-2.5051,-2.4719,-2.4648,-2.4651,-2.462,-2.4639,-2.4764,-2.4678,-2.4471,-2.4086,-2.4452,-2.4407,-2.3955,-2.45,-2.469,-2.4672,-2.4951,-2.4892,-2.4933,-2.4853,-2.472,-2.4517,-2.3807,-2.3141,-2.3008,-2.332,-2.3797,-2.4124,-2.432,-2.3821,-2.3265,-2.3105,-2.2533,-2.1983,-2.1722,-2.1359,-2.0619,-1.9832,-1.8828,-1.7929,-1.6764,-1.5494,-1.4499,-1.3513,-1.2692,-1.2209,-1.1695,-0.9128,-0.7762,-0.6384,-0.624,-0.7581,-0.7946,-0.9281,-0.9953,-0.9826,-1.0053,-1.0471,-1.0819,-1.0747,-1.0577,-1.0886,-1.1196,-1.1495,-1.2355,-1.3477,-1.3157,-1.2376,-1.2283,-1.2197,-1.2029,-1.1859,-1.0714,-1.0105,-1.1576,-1.3779,-1.5764,-1.6829,-1.6633,-1.5303,-1.3435,-2.4985,-2.5222,-2.5293,-2.5322,-2.5313,-2.5401,-2.543,-2.5414,-2.5339,-2.5331,-2.536,-2.534,-2.5357,-2.541,-2.5395,-2.5345,-2.5341,-2.5332,-2.5302,-2.5302,-2.5244,-2.5235,-2.5205,-2.5171,-2.5126,-2.5061,-2.4936,-2.4804,-2.4678,-2.454,-2.4428,-2.4303,-2.4192,-2.4247,-2.4248,-2.4284,-2.4372,-2.4372,-2.4318,-2.4283,-2.4317,-2.4262,-2.4076,-2.3908,-2.3948,-2.3988,-2.3566,-2.3506,-2.3712,-2.3584,-2.3432,-2.3338,-2.3343,-2.3142,-2.2949,-2.2615,-2.2041,-2.1417,-2.1233,-2.1128,-2.1642,-2.2006,-2.2165,-2.1984,-2.1534,-2.1555,-2.1092,-2.0558,-2.0044,-1.9484,-1.8851,-1.802,-1.703,-1.6125,-1.4869,-1.3573,-1.216,-1.1139,-1.0413,-0.995,-0.8307,-0.5593,-0.2809,-0.0812,0.0332,-0.1419,-0.3115,-0.457,-0.6004,-0.6042,-0.6114,-0.676,-0.7577,-0.8121,-0.8287,-0.843,-0.8742,-0.907,-0.9619,-1.0234,-1.0489,-0.9715,-0.9805,-0.9383,-0.7829,-0.663,-0.6145,-0.6222,-0.6757,-0.7538,-0.8816,-0.9525,-0.9634,-0.8872,-0.7627,-2.4301,-2.5,-2.5113,-2.5165,-2.5215,-2.5139,-2.5188,-2.5284,-2.5303,-2.5293,-2.5303,-2.5234,-2.5255,-2.5299,-2.5294,-2.5249,-2.5201,-2.5251,-2.5237,-2.5206,-2.5096,-2.5084,-2.5049,-2.4994,-2.4961,-2.4879,-2.4764,-2.4575,-2.4459,-2.4247,-2.3981,-2.3777,-2.3795,-2.3666,-2.3692,-2.3846,-2.4002,-2.4001,-2.3943,-2.3864,-2.3828,-2.3808,-2.3587,-2.3458,-2.3508,-2.3425,-2.3185,-2.3155,-2.3058,-2.2869,-2.2641,-2.2658,-2.2467,-2.199,-2.1663,-2.1167,-2.0511,-2.0221,-1.9799,-1.9686,-1.9608,-1.9846,-1.9866,-2.0047,-2.0172,-2.0047,-1.9588,-1.8943,-1.8327,-1.7873,-1.7306,-1.6295,-1.5245,-1.4052,-1.2786,-1.1338,-0.9797,-0.8803,-0.8111,-0.6944,-0.4954,-0.2354,0.0761,0.3118,0.4592,0.4441,0.2761,0.1611,0.0079,-0.1885,-0.2216,-0.3433,-0.4428,-0.5838,-0.6048,-0.5872,-0.5102,-0.5014,-0.5348,-0.5896,-0.6331,-0.5948,-0.4743,-0.3503,-0.2207,-0.1183,-0.0329,-0.0364,-0.0938,-0.1826,-0.2843,-0.47,-0.5593,-0.5047,-0.4134,-2.298,-2.3246,-2.3895,-2.4186,-2.4155,-2.4179,-2.4538,-2.5179,-2.5217,-2.5217,-2.5217,-2.5153,-2.513,-2.5224,-2.509,-2.5067,-2.503,-2.5018,-2.4972,-2.4934,-2.491,-2.491,-2.4855,-2.4804,-2.4783,-2.4707,-2.4596,-2.4409,-2.4284,-2.4039,-2.3741,-2.3642,-2.3428,-2.3169,-2.3062,-2.3285,-2.345,-2.3558,-2.3491,-2.341,-2.3305,-2.3264,-2.297,-2.267,-2.2882,-2.2709,-2.2293,-2.2487,-2.235,-2.1859,-2.1642,-2.1454,-2.0839,-2.0526,-2.0221,-1.9454,-1.9249,-1.9176,-1.8432,-1.821,-1.8099,-1.7789,-1.7531,-1.7792,-1.8166,-1.8392,-1.7974,-1.7278,-1.6526,-1.5966,-1.5271,-1.4299,-1.3206,-1.1994,-1.086,-0.9705,-0.8315,-0.7608,-0.6781,-0.4716,-0.2691,0.0494,0.3704,0.61,0.747,0.8532,0.8559,0.7256,0.4871,0.2451,0.0982,-0.0311,-0.1359,-0.2816,-0.3091,-0.2969,-0.174,-0.0958,-0.1354,-0.1121,-0.0259,0.0332,0.127,0.2131,0.2992,0.4378,0.5838,0.4991,0.2963,0.355,0.2698,0.038,-0.1284,-0.0803,0.0118,-2.2746,-2.3369,-2.3915,-2.4142,-2.4095,-2.4095,-2.4471,-2.4911,-2.4677,-2.4664,-2.4993,-2.4934,-2.4797,-2.4567,-2.47,-2.4721,-2.441,-2.4747,-2.484,-2.4779,-2.4697,-2.4731,-2.4704,-2.4626,-2.4594,-2.453,-2.4428,-2.4266,-2.406,-2.3492,-2.3092,-2.281,-2.2858,-2.2482,-2.2212,-2.2334,-2.2688,-2.2905,-2.2985,-2.29,-2.2807,-2.2695,-2.2229,-2.1902,-2.2217,-2.1888,-2.1478,-2.186,-2.167,-2.1222,-2.1026,-2.055,-1.9913,-1.9541,-1.8651,-1.7977,-1.7776,-1.7606,-1.7148,-1.6918,-1.6732,-1.6394,-1.5817,-1.5993,-1.6329,-1.6622,-1.6067,-1.5463,-1.4671,-1.391,-1.3098,-1.2207,-1.1081,-0.9945,-0.9084,-0.8229,-0.7433,-0.67,-0.5004,-0.2949,-0.0181,0.301,0.5838,0.8329,1.0324,1.1344,1.1744,1.1106,0.7734,0.3754,0.2758,0.1944,0.1159,0.0253,0.0176,0.0332,0.1549,0.2472,0.2439,0.3062,0.4878,0.4907,0.426,0.5792,0.7863,0.9047,0.9939,0.7821,0.6161,0.6638,0.6053,0.3194,0.2012,0.3254,0.4422,-2.2999,-2.4245,-2.4554,-2.455,-2.4689,-2.4557,-2.4572,-2.4588,-2.3888,-2.3967,-2.4625,-2.4723,-2.4383,-2.4212,-2.4517,-2.4439,-2.4337,-2.452,-2.4717,-2.4673,-2.4575,-2.4578,-2.4564,-2.4442,-2.4391,-2.4338,-2.4248,-2.4114,-2.3699,-2.3081,-2.2374,-2.1829,-2.1791,-2.1596,-2.1367,-2.1532,-2.1773,-2.1771,-2.2124,-2.2287,-2.2186,-2.2136,-2.2074,-2.1838,-2.1809,-2.1685,-2.145,-2.1414,-2.1404,-2.0868,-2.0344,-1.9766,-1.9036,-1.8318,-1.7259,-1.6792,-1.6552,-1.6309,-1.6108,-1.5918,-1.5669,-1.5462,-1.518,-1.464,-1.4612,-1.5133,-1.4817,-1.4273,-1.3605,-1.3039,-1.232,-1.1255,-1.0103,-0.8983,-0.8013,-0.6399,-0.4737,-0.3331,-0.0953,0.0718,0.1976,0.5148,0.8111,1.0502,1.1337,1.3163,1.311,1.2713,1.0571,0.5749,0.4968,0.4507,0.3644,0.3245,0.3724,0.4053,0.5024,0.5672,0.5872,0.6904,0.8459,0.7844,0.6636,0.8698,1.0973,1.2413,1.2891,1.0551,0.8753,0.8479,0.7421,0.5099,0.4959,0.6094,0.6002,-2.1306,-2.1773,-2.3073,-2.403,-2.4579,-2.3989,-2.4036,-2.4468,-2.3636,-2.3864,-2.4648,-2.4738,-2.455,-2.4222,-2.4431,-2.4384,-2.4396,-2.4385,-2.4561,-2.453,-2.4461,-2.4428,-2.4393,-2.4248,-2.4192,-2.4192,-2.4096,-2.3896,-2.3462,-2.2726,-2.2177,-2.2271,-2.1799,-2.1113,-2.0467,-2.0704,-2.0897,-2.0682,-2.0833,-2.134,-2.1587,-2.1556,-2.1467,-2.0831,-2.0481,-2.0129,-1.9835,-1.9519,-1.9047,-1.8456,-1.8327,-1.7754,-1.6996,-1.6418,-1.6049,-1.5797,-1.5609,-1.5389,-1.518,-1.5029,-1.4755,-1.441,-1.3971,-1.305,-1.29,-1.3644,-1.3762,-1.3185,-1.2688,-1.2116,-1.1388,-1.0201,-0.913,-0.802,-0.6877,-0.4543,-0.2152,0.0434,0.2963,0.4141,0.4881,0.7202,1.0216,1.1795,1.2581,1.2497,1.1695,1.1152,1.0838,0.8057,0.8148,0.762,0.6327,0.606,0.6861,0.7564,0.8436,0.9091,0.9398,1.0598,1.1875,1.123,1.0464,1.1949,1.3753,1.4102,1.3805,1.2756,1.1315,1.0457,0.9337,0.7244,0.6625,0.7412,0.6436,-2.0886,-2.1295,-2.2194,-2.3095,-2.3668,-2.3338,-2.3598,-2.4189,-2.3857,-2.4001,-2.4468,-2.4257,-2.3917,-2.3752,-2.3915,-2.3917,-2.393,-2.4337,-2.4422,-2.4428,-2.4339,-2.4266,-2.4172,-2.4056,-2.3979,-2.3959,-2.3792,-2.3558,-2.3264,-2.2412,-2.1937,-2.1687,-2.1028,-2.0399,-1.9614,-1.9781,-1.9937,-1.9487,-1.9591,-1.9894,-2.058,-2.0594,-2.039,-1.9682,-1.9259,-1.8931,-1.8808,-1.8558,-1.8296,-1.7742,-1.7514,-1.6666,-1.601,-1.5536,-1.5329,-1.5166,-1.497,-1.4707,-1.4487,-1.4232,-1.3914,-1.3491,-1.3213,-1.2452,-1.1652,-1.2187,-1.1657,-1.1115,-1.0823,-1.0293,-0.9481,-0.84,-0.7585,-0.6579,-0.5478,-0.3779,-0.0707,0.2369,0.518,0.7645,0.8473,0.9698,1.2216,1.3545,1.4184,1.4175,1.2946,1.2584,1.1725,1.0714,1.0876,1.0646,0.931,0.9792,1.1205,1.1527,1.1695,1.2281,1.2443,1.2897,1.3398,1.4023,1.4539,1.4148,1.3798,1.3604,1.3215,1.2826,1.2467,1.1482,1.0629,0.9595,0.9144,0.8377,0.7443,-2.1097,-2.1745,-2.1749,-2.2081,-2.263,-2.2648,-2.307,-2.375,-2.3824,-2.3842,-2.3784,-2.3114,-2.255,-2.2694,-2.292,-2.2672,-2.2874,-2.3771,-2.4131,-2.4284,-2.4229,-2.4114,-2.3976,-2.3834,-2.3792,-2.3685,-2.3526,-2.3412,-2.323,-2.2268,-2.1305,-2.0457,-1.99,-1.9428,-1.87,-1.8482,-1.8634,-1.8762,-1.8707,-1.8399,-1.8792,-1.9335,-1.9132,-1.8835,-1.8509,-1.8357,-1.8189,-1.7975,-1.7854,-1.7364,-1.656,-1.5748,-1.5184,-1.4769,-1.4491,-1.4322,-1.4215,-1.395,-1.3762,-1.3439,-1.3031,-1.2643,-1.2436,-1.1825,-1.0927,-1.0236,-0.9695,-0.919,-0.8906,-0.8766,-0.7937,-0.7146,-0.635,-0.429,-0.319,-0.141,0.2002,0.5227,0.8168,1.1058,1.1742,1.2693,1.3566,1.4918,1.5195,1.5267,1.5252,1.5231,1.4776,1.3683,1.3152,1.2908,1.2098,1.3167,1.4515,1.4228,1.3651,1.3926,1.3965,1.4413,1.4654,1.4497,1.4232,1.3823,1.3503,1.3346,1.3136,1.2819,1.2466,1.2165,1.123,1.0271,0.9596,0.8899,0.8383,-2.0984,-2.1784,-2.1731,-2.1839,-2.2021,-2.1898,-2.2007,-2.2187,-2.219,-2.2135,-2.217,-2.1618,-2.1537,-2.2957,-2.316,-2.3011,-2.2827,-2.3481,-2.3841,-2.4062,-2.4078,-2.3935,-2.3768,-2.3682,-2.3611,-2.3499,-2.3342,-2.3241,-2.2996,-2.2129,-2.1412,-2.0857,-2.0085,-1.9402,-1.8575,-1.8358,-1.817,-1.8184,-1.7994,-1.7737,-1.7757,-1.8091,-1.8035,-1.7699,-1.7242,-1.6713,-1.6249,-1.5831,-1.568,-1.5437,-1.517,-1.4635,-1.4327,-1.4071,-1.3762,-1.3415,-1.3308,-1.3157,-1.2897,-1.2604,-1.2188,-1.148,-1.1077,-1.0342,-0.9492,-0.8819,-0.8191,-0.7462,-0.7425,-0.8061,-0.7522,-0.6846,-0.5806,-0.1244,0.1309,0.4528,0.7885,1.039,1.2951,1.3865,1.4079,1.4428,1.455,1.5243,1.5218,1.5253,1.5183,1.5166,1.5173,1.5141,1.5108,1.4662,1.4168,1.457,1.5027,1.4921,1.4623,1.5009,1.5078,1.4788,1.4482,1.4157,1.3859,1.3526,1.3356,1.3227,1.299,1.2822,1.2614,1.2259,1.1455,1.0618,1.0006,0.9493,0.9068]}]]